[[{"header":{"parameterUnit":"m.s-1","parameterCategory":1,"la1":31.0,"la2":29.5877,"lo1":-88.7671,"lo2":-86.6584,"dy":0.0162,"dx":0.0185,"nx":115,"ny":88,"refTime":"2023-07-17T06:00:00:Z","depth":0,"parameterNumber":2,"parameterNumberName":"U-component_of_WINDS"},"data":[0.0,0.0,0.0,0.0,0.0,0.0,0.0,0.0,0.0,0.0,0.0,0.0,0.0,0.0,0.0,0.0,0.0,0.0,0.0,0.0,0.0,0.0,0.0,0.0,0.0,0.0,0.0,0.0,0.0,0.0,0.0,0.0,0.0,0.0,0.0,0.0,0.0,0.0,0.0,0.0,0.0,0.0,0.0,0.0,0.0,0.0,0.0,0.0,0.0,0.0,0.0,0.0,0.0,0.0,0.0,0.0,0.0,0.0,0.0,0.0,0.0,0.0,0.0,0.0,0.0,0.0,0.0,0.0,0.0,0.0,0.0,0.0,0.0,0.0,0.0,0.0,0.0,0.0,0.0,0.0,0.0,0.0,0.0,0.0,0.0,0.0,0.0,0.0,0.0,0.0,0.0,0.0,0.0,0.0,0.0,0.0,0.0,0.0,0.0,0.0,0.0,0.0,0.0,0.0,0.0,0.0,0.0,0.0,0.0,0.0,0.0,0.0,0.0,0.0,0.0,0.0,0.0,0.0,0.0,0.0,0.0,0.0,0.0,0.0,0.0,0.0,0.0,0.0,0.0,0.0,0.0,0.0,0.0,0.0,0.0,0.0,0.0,0.0,0.0,0.0,0.0,0.0,0.0,0.0,0.0,0.0,0.0,0.0,0.0,0.0,0.0,0.0,0.0,0.0,0.0,0.0,0.0,0.0,0.0,0.0,0.0,0.0,0.0,0.0,0.0,0.0,0.0,0.0,0.0,0.0,0.0,0.0,0.0,0.0,0.0,0.0,0.0,0.0,0.0,0.0,0.0,0.0,0.0,0.0,0.0,0.0,0.0,0.0,0.0,0.0,0.0,0.0,0.0,0.0,0.0,0.0,0.0,0.0,0.0,0.0,0.0,0.0,0.0,0.0,0.0,0.0,0.0,0.0,0.0,0.0,0.0,0.0,0.0,0.0,0.0,0.0,0.0,0.0,0.0,0.0,0.0,0.0,0.0,0.0,0.0,0.0,0.0,0.0,0.0,0.0,0.0,0.0,0.0,0.0,0.0,0.0,0.0,0.0,0.0,0.0,0.0,0.0,0.0,0.0,0.0,0.0,0.0,0.0,0.0,0.0,0.0,0.0,0.0,0.0,0.0,0.0,0.0,0.0,0.0,0.0,0.0,0.0,0.0,0.0,0.0,0.0,0.0,0.0,0.0,0.0,0.0,0.0,0.0,0.0,0.0,0.0,0.0,0.0,0.0,0.0,0.0,0.0,0.0,0.0,0.0,0.0,0.0,0.0,0.0,0.0,0.0,0.0,0.0,0.0,0.0,0.0,0.0,0.0,0.0,0.0,0.0,0.0,0.0,0.0,0.0,0.0,0.0,0.0,0.0,0.0,0.0,0.0,0.0,0.0,0.0,0.0,0.0,0.0,0.0,0.0,0.0,0.0,0.0,0.0,0.0,0.0,0.0,0.0,0.0,0.0,0.0,0.0,0.0,0.0,0.0,0.0,0.0,0.0,0.0,0.0,0.0,0.0,0.0,0.0,0.0,0.0,0.0,0.0,0.0,0.0,0.0,0.0,0.0,0.0,0.0,0.0,0.0,0.0,0.0,0.0,0.0,0.0,0.0,0.0,0.0,0.0,0.0,0.0,0.0,0.0,0.0,0.0,0.0,0.0,0.0,0.0,0.0,0.0,0.0,0.0,0.0,0.0,0.0,0.0,0.0,0.0,0.0,0.0,0.0,0.0,0.0,0.0,0.0,0.0,0.0,0.0,0.0,0.0,0.0,0.0,0.0,0.0,0.0,0.0,0.0,0.0,0.0,0.0,0.0,0.0,0.0,0.0,0.0,0.0,0.0,0.0,0.0,0.0,0.0,0.0,0.0,0.0,0.0,0.0,0.0,0.0,0.0,0.0,0.0,0.0,0.0,0.0,0.0,0.0,0.0,0.0,0.0,0.0,0.0,0.0,0.0,0.0,0.0,0.0,0.0,0.0,0.0,0.0,0.0,0.0,0.0,0.0,0.0,0.0,0.0,0.0,0.0,0.0,0.0,0.0,0.0,0.0,0.0,0.0,0.0,0.0,0.0,0.0,0.0,0.0,0.0,0.0,0.0,0.0,0.0,0.0,0.0,0.0,0.0,0.0,0.0,0.0,0.0,0.0,0.0,0.0,0.0,0.0,0.0,0.0,0.0,0.0,0.0,0.0,0.0,0.0,0.0,0.0,0.0,0.0,0.0,0.0,0.0,0.0,0.0,0.0,0.0,0.0,0.0,0.0,0.0,0.0,0.0,0.0,0.0,0.0,0.0,0.0,0.0,0.0,0.0,0.0,0.0,0.0,0.0,0.0,0.0,0.0,0.0,0.0,0.0,0.0,0.0,0.0,0.0,0.0,0.0,0.0,0.0,0.0,0.0,0.0,0.0,0.0,0.0,0.0,0.0,0.0,0.0,0.0,0.0,0.0,0.0,0.0,0.0,0.0,0.0,0.0,0.0,0.0,0.0,0.0,0.0,0.0,0.0,0.0,0.0,0.0,0.0,0.0,0.0,0.0,0.0,0.0,0.0,0.0,0.0,0.0,0.0,0.0,0.0,0.0,0.0,0.0,0.0,0.0,0.0,0.0,0.0,0.0,0.0,0.0,0.0,0.0,0.0,0.0,0.0,0.0,0.0,0.0,0.0,0.0,0.0,0.0,0.0,0.0,0.0,0.0,0.0,0.0,0.0,0.0,0.0,0.0,0.0,0.0,0.0,0.0,0.0,0.0,0.0,0.0,0.0,0.0,0.0,0.0,0.0,0.0,0.0,0.0,0.0,0.0,0.0,0.0,0.0,0.0,0.0,0.0,0.0,0.0,0.0,0.0,0.0,0.0,0.0,0.0,0.0,0.0,0.0,0.0,0.0,0.0,0.0,0.0,0.0,0.0,0.0,0.0,0.0,0.0,0.0,0.0,0.0,0.0,0.0,0.0,0.0,0.0,0.0,0.0,0.0,0.0,0.0,0.0,0.0,0.0,0.0,0.0,0.0,0.0,0.0,0.0,0.0,0.0,0.0,0.0,0.0,0.0,0.0,0.0,0.0,0.0,0.0,0.0,0.0,0.0,0.0,0.0,0.0,0.0,0.0,0.0,0.0,0.0,0.0,0.0,0.0,0.0,0.0,0.0,0.0,0.0,0.0,0.0,0.0,0.0,0.0,0.0,0.0,0.0,0.0,0.0,0.0,0.0,0.0,0.0,0.0,0.0,0.0,0.0,0.0,0.0,0.0,0.0,0.0,0.0,0.0,0.0,0.0,0.0,0.0,0.0,0.0,0.0,0.0,0.0,0.0,0.0,0.0,0.0,0.0,0.0,0.0,0.0,0.0,0.0,0.0,0.0,0.0,0.0,0.0,0.0,0.0,0.0,0.0,0.0,0.0,0.0,0.0,0.0,0.0,0.0,0.0,0.0,0.0,0.0,0.0,0.0,0.0,0.0,0.0,0.0,0.0,0.0,0.0,0.0,0.0,0.0,0.0,0.0,0.0,0.0,0.0,0.0,0.0,0.0,0.0,0.0,0.0,0.0,0.0,0.0,0.0,0.0,0.0,0.0,0.0,0.0,0.0,0.0,0.0,0.0,0.0,0.0,0.0,0.0,0.0,0.0,0.0,0.0,0.0,0.0,0.0,0.0,0.0,0.0,0.0,0.0,0.0,0.0,0.0,0.0,0.0,0.0,0.0,0.0,0.0,0.0,0.0,0.0,0.0,0.0,0.0,0.0,0.0,0.0,0.0,0.0,0.0,0.0,0.0,0.0,0.0,0.0,0.0,0.0,0.0,0.0,0.0,0.0,0.0,0.0,0.0,0.0,0.0,0.0,0.0,0.0,0.0,0.0,0.0,0.0,0.0,0.0,0.0,0.0,0.0,0.0,0.0,0.0,0.0,0.0,0.0,0.0,0.0,0.0,0.0,0.0,0.0,0.0,0.0,0.0,0.0,0.0,0.0,0.0,0.0,0.0,0.0,0.0,0.0,0.0,0.0,0.0,0.0,0.0,0.0,0.0,0.0,0.0,0.0,0.0,0.0,0.0,0.0,0.0,0.0,0.0,0.0,0.0,0.0,0.0,0.0,0.0,0.0,0.0,0.0,0.0,0.0,0.0,0.0,0.0,0.0,0.0,0.0,0.0,0.0,0.0,0.0,0.0,0.0,0.0,0.0,0.0,0.0,0.0,0.0,0.0,0.0,0.0,0.0,0.0,0.0,0.0,0.0,0.0,0.0,0.0,0.0,0.0,0.0,0.0,0.0,0.0,0.0,0.0,-4.4351,0.0,0.0,0.0,0.0,0.0,0.0,0.0,0.0,0.0,0.0,0.0,0.0,0.0,0.0,0.0,0.0,0.0,0.0,0.0,0.0,0.0,0.0,0.0,0.0,0.0,0.0,0.0,0.0,0.0,0.0,0.0,0.0,0.0,0.0,0.0,0.0,0.0,0.0,0.0,0.0,0.0,0.0,0.0,0.0,0.0,0.0,0.0,0.0,0.0,0.0,0.0,0.0,0.0,0.0,0.0,0.0,0.0,0.0,0.0,0.0,0.0,0.0,0.0,0.0,0.0,0.0,0.0,0.0,0.0,0.0,0.0,0.0,0.0,0.0,0.0,0.0,0.0,0.0,0.0,0.0,0.0,0.0,0.0,0.0,0.0,0.0,0.0,0.0,0.0,0.0,0.0,0.0,0.0,0.0,0.0,0.0,0.0,0.0,0.0,0.0,0.0,0.0,0.0,0.0,0.0,0.0,0.0,0.0,0.0,0.0,-4.4806,-4.3615,-4.4391,-4.4458,-4.3661,0.0,0.0,0.0,0.0,0.0,0.0,0.0,0.0,0.0,0.0,0.0,0.0,0.0,0.0,0.0,0.0,0.0,0.0,0.0,0.0,0.0,0.0,0.0,0.0,0.0,0.0,0.0,0.0,0.0,0.0,0.0,0.0,0.0,0.0,0.0,0.0,0.0,0.0,0.0,0.0,0.0,0.0,0.0,0.0,0.0,0.0,0.0,0.0,0.0,0.0,0.0,0.0,0.0,0.0,0.0,0.0,0.0,0.0,0.0,0.0,0.0,0.0,0.0,0.0,0.0,0.0,0.0,0.0,0.0,0.0,0.0,0.0,0.0,0.0,0.0,0.0,0.0,0.0,0.0,0.0,0.0,0.0,0.0,0.0,0.0,0.0,0.0,0.0,0.0,0.0,0.0,0.0,0.0,0.0,0.0,0.0,0.0,0.0,0.0,0.0,0.0,0.0,0.0,0.0,0.0,0.0,0.0,0.0,0.0,0.0,0.0,0.0,-4.445,-4.4575,-4.4068,0.0,0.0,0.0,0.0,0.0,0.0,0.0,0.0,0.0,0.0,0.0,0.0,0.0,0.0,0.0,0.0,0.0,0.0,0.0,0.0,0.0,0.0,0.0,0.0,0.0,0.0,0.0,0.0,0.0,0.0,0.0,0.0,0.0,0.0,0.0,0.0,0.0,0.0,0.0,0.0,0.0,0.0,0.0,0.0,0.0,0.0,0.0,0.0,0.0,0.0,0.0,0.0,0.0,0.0,0.0,0.0,0.0,0.0,0.0,0.0,0.0,0.0,0.0,0.0,0.0,0.0,0.0,0.0,0.0,0.0,0.0,0.0,0.0,0.0,0.0,0.0,0.0,0.0,0.0,0.0,0.0,0.0,0.0,0.0,0.0,0.0,0.0,0.0,0.0,0.0,0.0,0.0,0.0,0.0,0.0,0.0,0.0,0.0,0.0,0.0,0.0,0.0,0.0,0.0,0.0,0.0,0.0,0.0,0.0,0.0,-4.4029,-4.612,-4.6306,0.0,-4.6925,0.0,0.0,0.0,0.0,0.0,0.0,0.0,0.0,0.0,0.0,0.0,0.0,0.0,0.0,0.0,0.0,0.0,0.0,0.0,0.0,0.0,0.0,0.0,0.0,0.0,0.0,0.0,0.0,0.0,0.0,0.0,0.0,0.0,0.0,0.0,0.0,0.0,0.0,0.0,0.0,0.0,0.0,0.0,0.0,0.0,0.0,0.0,0.0,0.0,0.0,0.0,0.0,0.0,0.0,0.0,0.0,0.0,0.0,0.0,0.0,0.0,0.0,0.0,0.0,0.0,0.0,0.0,0.0,0.0,0.0,0.0,0.0,0.0,0.0,0.0,0.0,0.0,0.0,0.0,0.0,0.0,0.0,0.0,0.0,0.0,0.0,0.0,0.0,0.0,0.0,0.0,0.0,0.0,0.0,0.0,0.0,0.0,0.0,0.0,0.0,0.0,0.0,0.0,0.0,0.0,0.0,0.0,0.0,0.0,0.0,-4.3829,-4.581,-4.6336,-4.6069,0.0,0.0,0.0,0.0,0.0,0.0,0.0,0.0,0.0,0.0,0.0,0.0,0.0,0.0,0.0,0.0,0.0,0.0,0.0,0.0,0.0,0.0,0.0,0.0,0.0,0.0,0.0,0.0,0.0,0.0,0.0,0.0,0.0,0.0,0.0,0.0,0.0,0.0,0.0,0.0,0.0,0.0,0.0,0.0,0.0,0.0,0.0,0.0,0.0,0.0,0.0,0.0,0.0,0.0,0.0,0.0,0.0,0.0,0.0,0.0,0.0,0.0,0.0,0.0,0.0,0.0,0.0,0.0,0.0,0.0,0.0,0.0,0.0,0.0,0.0,0.0,0.0,0.0,0.0,0.0,0.0,0.0,0.0,0.0,0.0,0.0,0.0,0.0,0.0,0.0,0.0,0.0,0.0,0.0,0.0,0.0,0.0,0.0,0.0,0.0,0.0,0.0,0.0,0.0,0.0,0.0,0.0,0.0,0.0,0.0,-4.3474,-4.379,-4.5533,-4.5088,-4.452,-4.3988,0.0,0.0,0.0,0.0,0.0,0.0,0.0,0.0,0.0,0.0,0.0,0.0,0.0,0.0,0.0,0.0,0.0,0.0,0.0,0.0,0.0,0.0,0.0,0.0,0.0,0.0,0.0,0.0,0.0,0.0,0.0,0.0,0.0,0.0,0.0,0.0,0.0,0.0,0.0,0.0,0.0,0.0,0.0,0.0,0.0,0.0,0.0,0.0,0.0,0.0,0.0,0.0,0.0,0.0,0.0,0.0,0.0,0.0,0.0,0.0,0.0,0.0,0.0,0.0,0.0,0.0,0.0,0.0,0.0,0.0,0.0,0.0,0.0,0.0,0.0,0.0,0.0,0.0,0.0,0.0,0.0,0.0,0.0,0.0,0.0,0.0,0.0,0.0,0.0,0.0,0.0,0.0,0.0,0.0,0.0,0.0,0.0,0.0,0.0,0.0,0.0,0.0,0.0,0.0,0.0,0.0,0.0,0.0,-4.8365,-4.4841,-4.3969,-4.6194,-4.2428,-4.1999,0.0,0.0,0.0,0.0,0.0,0.0,0.0,0.0,0.0,0.0,0.0,0.0,0.0,0.0,0.0,0.0,0.0,0.0,0.0,0.0,0.0,0.0,0.0,0.0,0.0,0.0,0.0,0.0,0.0,0.0,0.0,0.0,0.0,0.0,0.0,0.0,0.0,0.0,0.0,0.0,0.0,0.0,0.0,0.0,0.0,0.0,0.0,0.0,0.0,0.0,0.0,0.0,0.0,0.0,0.0,0.0,0.0,0.0,0.0,0.0,0.0,0.0,0.0,0.0,0.0,0.0,0.0,0.0,0.0,0.0,0.0,0.0,0.0,0.0,0.0,0.0,0.0,0.0,0.0,0.0,0.0,0.0,0.0,0.0,0.0,0.0,0.0,0.0,0.0,0.0,0.0,0.0,0.0,0.0,0.0,0.0,0.0,0.0,0.0,0.0,0.0,0.0,0.0,0.0,0.0,0.0,0.0,0.0,0.0,-4.3397,-4.3501,-4.373,-4.4083,-4.3433,-4.3464,0.0,0.0,0.0,0.0,0.0,0.0,0.0,0.0,0.0,0.0,0.0,0.0,0.0,0.0,0.0,0.0,0.0,0.0,0.0,0.0,0.0,0.0,0.0,0.0,0.0,0.0,0.0,0.0,0.0,0.0,0.0,0.0,0.0,0.0,0.0,0.0,0.0,0.0,0.0,0.0,0.0,0.0,0.0,0.0,0.0,0.0,0.0,0.0,0.0,0.0,0.0,0.0,0.0,0.0,0.0,0.0,0.0,0.0,0.0,0.0,0.0,0.0,0.0,0.0,0.0,0.0,0.0,0.0,0.0,0.0,0.0,0.0,0.0,0.0,0.0,0.0,0.0,0.0,0.0,0.0,0.0,0.0,0.0,0.0,0.0,0.0,0.0,0.0,0.0,0.0,0.0,0.0,0.0,0.0,0.0,0.0,0.0,0.0,0.0,0.0,0.0,0.0,0.0,0.0,0.0,0.0,0.0,0.0,0.0,-4.1972,0.0,-4.4725,-4.3663,-4.3821,-4.3473,0.0,0.0,0.0,0.0,0.0,0.0,0.0,0.0,0.0,0.0,0.0,0.0,0.0,0.0,0.0,0.0,0.0,0.0,0.0,0.0,0.0,0.0,0.0,0.0,0.0,0.0,0.0,0.0,0.0,0.0,0.0,0.0,0.0,0.0,0.0,0.0,0.0,0.0,0.0,0.0,0.0,0.0,0.0,0.0,0.0,0.0,0.0,0.0,0.0,0.0,0.0,0.0,0.0,0.0,0.0,0.0,0.0,0.0,0.0,0.0,0.0,0.0,0.0,0.0,0.0,0.0,0.0,0.0,0.0,0.0,0.0,0.0,0.0,0.0,0.0,0.0,0.0,0.0,0.0,0.0,0.0,0.0,0.0,0.0,0.0,0.0,0.0,0.0,0.0,0.0,0.0,0.0,0.0,0.0,0.0,0.0,0.0,0.0,0.0,0.0,0.0,0.0,0.0,0.0,0.0,0.0,0.0,0.0,-4.1915,-4.5039,-4.6793,-4.6821,-4.5324,-4.3175,-4.1649,0.0,0.0,0.0,0.0,0.0,0.0,0.0,0.0,0.0,0.0,0.0,0.0,0.0,0.0,0.0,0.0,0.0,0.0,0.0,0.0,0.0,0.0,0.0,0.0,0.0,0.0,0.0,0.0,0.0,0.0,0.0,0.0,0.0,0.0,0.0,0.0,0.0,0.0,0.0,0.0,0.0,0.0,0.0,0.0,0.0,0.0,0.0,0.0,0.0,0.0,0.0,0.0,0.0,0.0,0.0,0.0,0.0,0.0,0.0,0.0,0.0,0.0,0.0,0.0,0.0,0.0,0.0,0.0,0.0,0.0,0.0,0.0,0.0,0.0,0.0,0.0,0.0,0.0,0.0,0.0,0.0,0.0,0.0,0.0,0.0,0.0,0.0,0.0,0.0,0.0,0.0,0.0,0.0,0.0,0.0,0.0,0.0,0.0,0.0,0.0,0.0,0.0,0.0,0.0,0.0,0.0,0.0,0.0,0.0,-4.1915,-4.4065,-4.5668,-4.6417,-4.2498,-4.137,0.0,0.0,0.0,0.0,0.0,0.0,0.0,0.0,0.0,0.0,0.0,0.0,0.0,0.0,0.0,0.0,0.0,0.0,0.0,0.0,0.0,0.0,0.0,0.0,0.0,0.0,0.0,0.0,0.0,0.0,0.0,0.0,0.0,0.0,0.0,0.0,0.0,0.0,0.0,0.0,0.0,0.0,0.0,0.0,0.0,0.0,0.0,0.0,0.0,0.0,0.0,0.0,0.0,0.0,0.0,0.0,0.0,0.0,0.0,0.0,0.0,0.0,0.0,0.0,0.0,0.0,0.0,0.0,0.0,0.0,0.0,0.0,0.0,0.0,0.0,0.0,0.0,0.0,0.0,0.0,0.0,0.0,0.0,0.0,0.0,0.0,0.0,0.0,0.0,0.0,0.0,0.0,0.0,0.0,0.0,0.0,0.0,0.0,0.0,0.0,0.0,0.0,0.0,0.0,0.0,0.0,0.0,0.0,0.0,-4.2345,-4.477,-4.6376,-4.6809,-4.3168,-4.1558,-4.2385,0.0,0.0,0.0,0.0,0.0,0.0,0.0,0.0,0.0,0.0,0.0,0.0,0.0,0.0,0.0,0.0,0.0,0.0,0.0,0.0,0.0,0.0,0.0,0.0,0.0,0.0,0.0,0.0,0.0,0.0,0.0,0.0,0.0,0.0,0.0,0.0,0.0,0.0,0.0,0.0,0.0,0.0,0.0,0.0,0.0,0.0,0.0,0.0,0.0,0.0,0.0,0.0,0.0,0.0,0.0,0.0,0.0,0.0,0.0,0.0,0.0,0.0,0.0,0.0,0.0,0.0,0.0,0.0,0.0,0.0,0.0,0.0,0.0,0.0,0.0,0.0,0.0,0.0,0.0,0.0,0.0,0.0,0.0,0.0,0.0,0.0,0.0,0.0,0.0,0.0,0.0,0.0,0.0,0.0,0.0,0.0,0.0,0.0,0.0,0.0,0.0,0.0,0.0,0.0,0.0,0.0,0.0,0.0,-4.5494,-4.8422,-4.8872,-4.6639,-4.4852,-4.2151,0.0,0.0,0.0,0.0,0.0,0.0,0.0,0.0,0.0,0.0,0.0,0.0,0.0,0.0,0.0,0.0,0.0,0.0,0.0,0.0,0.0,0.0,0.0,0.0,0.0,0.0,0.0,0.0,0.0,0.0,0.0,0.0,0.0,0.0,0.0,0.0,0.0,0.0,0.0,0.0,0.0,0.0,0.0,0.0,0.0,0.0,0.0,0.0,0.0,0.0,0.0,0.0,0.0,0.0,0.0,0.0,0.0,0.0,0.0,0.0,0.0,0.0,0.0,0.0,0.0,0.0,0.0,0.0,0.0,0.0,0.0,0.0,0.0,0.0,0.0,0.0,0.0,0.0,0.0,0.0,0.0,0.0,0.0,0.0,0.0,0.0,0.0,0.0,0.0,0.0,0.0,0.0,0.0,0.0,0.0,0.0,0.0,0.0,0.0,0.0,0.0,0.0,0.0,0.0,0.0,0.0,0.0,0.0,0.0,-4.7409,-5.05,-5.1544,-5.0202,-4.5853,-4.3038,0.0,0.0,0.0,0.0,0.0,0.0,0.0,0.0,0.0,0.0,0.0,0.0,0.0,0.0,0.0,0.0,0.0,0.0,0.0,0.0,0.0,0.0,0.0,0.0,0.0,0.0,0.0,0.0,0.0,0.0,0.0,0.0,0.0,0.0,0.0,0.0,0.0,0.0,0.0,0.0,0.0,0.0,0.0,0.0,0.0,0.0,0.0,0.0,0.0,0.0,0.0,0.0,0.0,0.0,0.0,0.0,0.0,0.0,0.0,0.0,0.0,0.0,0.0,0.0,0.0,0.0,0.0,0.0,0.0,0.0,0.0,0.0,0.0,0.0,0.0,0.0,0.0,0.0,0.0,0.0,0.0,0.0,0.0,0.0,0.0,0.0,0.0,0.0,0.0,0.0,0.0,0.0,0.0,0.0,0.0,0.0,0.0,0.0,0.0,0.0,0.0,0.0,0.0,0.0,0.0,0.0,0.0,0.0,-4.6799,-4.9313,-5.29,-5.4272,-5.3118,-4.8795,-4.5015,0.0,0.0,0.0,0.0,0.0,0.0,0.0,0.0,0.0,0.0,0.0,0.0,0.0,0.0,0.0,0.0,0.0,0.0,0.0,0.0,0.0,0.0,0.0,0.0,0.0,0.0,0.0,0.0,0.0,0.0,0.0,0.0,0.0,0.0,0.0,0.0,0.0,0.0,0.0,0.0,0.0,0.0,0.0,0.0,0.0,0.0,0.0,0.0,0.0,0.0,0.0,0.0,0.0,0.0,0.0,0.0,0.0,0.0,0.0,0.0,0.0,0.0,0.0,0.0,0.0,0.0,0.0,0.0,0.0,0.0,0.0,0.0,0.0,0.0,0.0,0.0,0.0,0.0,0.0,0.0,0.0,0.0,0.0,0.0,0.0,0.0,0.0,0.0,0.0,0.0,0.0,0.0,0.0,0.0,0.0,0.0,0.0,0.0,0.0,0.0,0.0,0.0,0.0,0.0,0.0,0.0,0.0,0.0,-4.865,-5.086,-5.4934,-5.6372,-5.4947,-5.2056,-4.7242,0.0,0.0,0.0,0.0,0.0,0.0,0.0,0.0,0.0,0.0,0.0,0.0,0.0,0.0,0.0,0.0,0.0,0.0,0.0,0.0,0.0,0.0,0.0,0.0,0.0,0.0,0.0,0.0,0.0,0.0,0.0,0.0,0.0,0.0,0.0,0.0,0.0,0.0,0.0,0.0,0.0,0.0,0.0,0.0,0.0,0.0,0.0,0.0,0.0,0.0,0.0,0.0,0.0,0.0,0.0,0.0,0.0,0.0,0.0,0.0,0.0,0.0,0.0,0.0,0.0,0.0,0.0,0.0,0.0,0.0,0.0,0.0,0.0,0.0,0.0,0.0,0.0,0.0,0.0,0.0,0.0,0.0,0.0,0.0,0.0,0.0,0.0,0.0,0.0,0.0,0.0,0.0,0.0,0.0,0.0,0.0,0.0,0.0,0.0,0.0,0.0,0.0,0.0,0.0,0.0,0.0,0.0,0.0,-4.7402,-5.0176,-5.3608,-5.5132,-5.4515,-5.0509,-4.6291,0.0,0.0,0.0,0.0,0.0,0.0,0.0,0.0,0.0,0.0,0.0,0.0,0.0,0.0,0.0,0.0,0.0,0.0,0.0,0.0,0.0,0.0,0.0,0.0,0.0,0.0,0.0,0.0,0.0,0.0,0.0,0.0,0.0,0.0,0.0,0.0,0.0,0.0,0.0,0.0,0.0,0.0,0.0,0.0,0.0,0.0,0.0,0.0,-3.3628,0.0,0.0,0.0,0.0,0.0,0.0,0.0,0.0,0.0,0.0,0.0,0.0,0.0,0.0,0.0,0.0,0.0,0.0,0.0,0.0,0.0,0.0,0.0,0.0,0.0,0.0,0.0,0.0,0.0,0.0,0.0,0.0,0.0,0.0,0.0,0.0,0.0,0.0,0.0,0.0,0.0,0.0,0.0,0.0,0.0,0.0,0.0,0.0,0.0,0.0,0.0,0.0,0.0,0.0,0.0,0.0,0.0,0.0,0.0,-4.7473,-5.1312,-5.3702,-5.4728,-5.4277,-5.0247,-4.6354,0.0,0.0,0.0,0.0,0.0,0.0,0.0,0.0,0.0,0.0,0.0,0.0,0.0,0.0,0.0,0.0,0.0,0.0,0.0,0.0,0.0,0.0,0.0,0.0,0.0,0.0,0.0,0.0,0.0,0.0,0.0,0.0,0.0,0.0,0.0,0.0,0.0,0.0,0.0,0.0,0.0,0.0,0.0,0.0,0.0,0.0,0.0,0.0,0.0,0.0,0.0,0.0,0.0,0.0,0.0,0.0,0.0,0.0,0.0,0.0,0.0,0.0,0.0,0.0,0.0,0.0,0.0,0.0,0.0,0.0,0.0,0.0,0.0,0.0,0.0,0.0,0.0,0.0,0.0,0.0,0.0,0.0,0.0,0.0,0.0,0.0,0.0,0.0,0.0,0.0,0.0,0.0,0.0,0.0,0.0,0.0,0.0,0.0,0.0,0.0,0.0,0.0,0.0,0.0,0.0,0.0,0.0,-4.4608,-4.7819,-5.2532,-5.3981,-5.4445,-5.3999,-5.0196,-4.6599,-4.3442,0.0,0.0,0.0,0.0,0.0,0.0,0.0,0.0,0.0,0.0,0.0,0.0,0.0,0.0,0.0,0.0,0.0,0.0,0.0,0.0,0.0,0.0,0.0,0.0,0.0,0.0,0.0,0.0,0.0,0.0,0.0,0.0,0.0,0.0,0.0,0.0,0.0,0.0,-3.3393,-3.3393,0.0,0.0,0.0,0.0,0.0,0.0,0.0,0.0,-3.4425,0.0,0.0,0.0,0.0,0.0,0.0,0.0,0.0,0.0,0.0,0.0,0.0,0.0,0.0,0.0,0.0,0.0,0.0,0.0,0.0,0.0,0.0,0.0,0.0,0.0,0.0,0.0,0.0,0.0,0.0,0.0,0.0,0.0,0.0,0.0,0.0,0.0,0.0,0.0,0.0,0.0,0.0,0.0,0.0,0.0,0.0,0.0,0.0,0.0,0.0,0.0,0.0,0.0,0.0,0.0,0.0,-4.3322,-4.4339,-4.7033,-5.1452,-5.2815,-5.3122,-5.2325,-4.9095,-4.5792,-4.2598,0.0,0.0,0.0,0.0,0.0,0.0,0.0,0.0,0.0,0.0,0.0,0.0,0.0,0.0,0.0,0.0,0.0,0.0,0.0,0.0,0.0,0.0,0.0,0.0,0.0,0.0,0.0,0.0,0.0,0.0,0.0,0.0,0.0,0.0,0.0,0.0,0.0,0.0,0.0,-3.3393,-3.3393,0.0,0.0,0.0,0.0,0.0,0.0,0.0,0.0,-3.3592,0.0,0.0,0.0,0.0,0.0,0.0,0.0,0.0,0.0,0.0,0.0,0.0,0.0,0.0,0.0,0.0,0.0,0.0,0.0,0.0,0.0,0.0,0.0,0.0,0.0,0.0,0.0,0.0,0.0,0.0,0.0,0.0,0.0,0.0,0.0,0.0,0.0,0.0,0.0,0.0,0.0,0.0,0.0,0.0,0.0,0.0,0.0,0.0,0.0,0.0,0.0,0.0,0.0,0.0,0.0,-4.3303,-4.4716,-4.726,-5.1157,-5.2126,-5.1995,-5.0749,-4.7572,-4.4526,0.0,0.0,0.0,0.0,0.0,0.0,0.0,0.0,0.0,0.0,0.0,0.0,0.0,0.0,0.0,0.0,0.0,0.0,0.0,0.0,0.0,0.0,0.0,0.0,0.0,0.0,0.0,0.0,0.0,0.0,0.0,0.0,0.0,0.0,0.0,0.0,0.0,0.0,0.0,0.0,-3.3393,-3.3393,-3.3393,0.0,0.0,0.0,0.0,0.0,0.0,-3.3271,-3.3271,0.0,0.0,0.0,0.0,0.0,0.0,0.0,0.0,0.0,0.0,0.0,0.0,0.0,0.0,0.0,0.0,0.0,0.0,0.0,0.0,0.0,0.0,0.0,0.0,0.0,0.0,0.0,0.0,0.0,0.0,0.0,0.0,0.0,0.0,0.0,0.0,0.0,0.0,0.0,0.0,0.0,0.0,0.0,0.0,0.0,0.0,0.0,0.0,0.0,0.0,0.0,0.0,0.0,0.0,0.0,-4.3014,-4.4649,-4.7132,-5.0528,-5.1386,-5.082,-4.8894,-4.5993,-4.3259,0.0,0.0,0.0,0.0,0.0,0.0,0.0,0.0,0.0,0.0,0.0,0.0,0.0,0.0,0.0,0.0,0.0,0.0,0.0,0.0,0.0,0.0,0.0,0.0,0.0,0.0,0.0,0.0,0.0,0.0,0.0,0.0,0.0,0.0,0.0,0.0,0.0,0.0,0.0,0.0,0.0,-3.3773,-3.3465,-3.3538,0.0,0.0,0.0,0.0,-3.3205,-3.362,0.0,0.0,0.0,0.0,0.0,0.0,0.0,0.0,0.0,0.0,0.0,0.0,0.0,0.0,0.0,0.0,0.0,0.0,0.0,0.0,0.0,0.0,0.0,0.0,0.0,0.0,0.0,0.0,0.0,0.0,0.0,0.0,0.0,0.0,0.0,0.0,0.0,0.0,0.0,0.0,0.0,0.0,0.0,0.0,0.0,0.0,0.0,0.0,0.0,0.0,0.0,0.0,0.0,0.0,0.0,0.0,-4.186,-4.3169,-4.535,-4.851,-5.0143,-4.9481,-4.6416,-4.4562,-4.2158,0.0,0.0,0.0,0.0,0.0,0.0,0.0,0.0,0.0,0.0,0.0,0.0,0.0,0.0,0.0,0.0,0.0,0.0,0.0,0.0,0.0,0.0,0.0,0.0,0.0,0.0,0.0,0.0,0.0,0.0,0.0,0.0,0.0,0.0,0.0,0.0,0.0,0.0,0.0,0.0,0.0,-3.4989,-3.3592,-3.4009,-3.4226,0.0,0.0,-3.4464,-3.4416,-3.5264,0.0,0.0,0.0,0.0,0.0,0.0,0.0,0.0,0.0,0.0,0.0,0.0,0.0,0.0,0.0,0.0,0.0,0.0,0.0,0.0,0.0,0.0,0.0,0.0,0.0,0.0,0.0,0.0,0.0,0.0,0.0,0.0,0.0,0.0,0.0,0.0,0.0,0.0,0.0,0.0,0.0,0.0,0.0,0.0,0.0,0.0,0.0,0.0,0.0,0.0,0.0,0.0,0.0,0.0,0.0,-3.8215,-4.1989,-4.3654,-4.5591,-4.7828,-4.8605,-4.7554,-4.4616,-4.2084,-3.99,0.0,0.0,0.0,0.0,0.0,0.0,0.0,0.0,0.0,0.0,0.0,0.0,0.0,0.0,0.0,0.0,0.0,0.0,0.0,0.0,0.0,0.0,0.0,0.0,0.0,0.0,0.0,0.0,0.0,0.0,0.0,0.0,0.0,0.0,0.0,0.0,0.0,0.0,0.0,0.0,0.0,0.0,-3.3556,-3.4461,0.0,0.0,0.0,-3.5638,-3.4758,0.0,0.0,0.0,0.0,0.0,0.0,0.0,0.0,0.0,0.0,0.0,0.0,0.0,0.0,0.0,0.0,0.0,0.0,0.0,0.0,0.0,0.0,0.0,0.0,0.0,0.0,0.0,0.0,0.0,0.0,0.0,0.0,0.0,0.0,0.0,0.0,0.0,0.0,0.0,0.0,0.0,0.0,0.0,0.0,0.0,0.0,0.0,0.0,0.0,0.0,0.0,0.0,0.0,0.0,0.0,0.0,0.0,-4.1619,-4.3596,-4.5167,-4.644,-4.6822,-4.5618,-4.2767,-3.9892,0.0,0.0,0.0,0.0,0.0,0.0,0.0,0.0,0.0,0.0,0.0,0.0,0.0,0.0,0.0,0.0,0.0,0.0,0.0,0.0,0.0,0.0,0.0,0.0,0.0,0.0,0.0,-2.86,0.0,0.0,0.0,0.0,0.0,0.0,0.0,0.0,0.0,0.0,0.0,0.0,0.0,0.0,-3.515,-3.4154,-3.5369,-3.6077,0.0,0.0,-3.6303,-3.4833,-3.5099,-3.4776,0.0,0.0,0.0,0.0,0.0,0.0,0.0,0.0,0.0,0.0,0.0,0.0,0.0,0.0,0.0,0.0,0.0,0.0,0.0,0.0,0.0,0.0,0.0,0.0,0.0,0.0,0.0,0.0,0.0,0.0,0.0,0.0,0.0,0.0,0.0,0.0,0.0,0.0,0.0,0.0,0.0,0.0,0.0,0.0,0.0,0.0,0.0,0.0,0.0,0.0,0.0,0.0,0.0,0.0,0.0,-3.9928,-4.188,-4.3096,-4.3446,-4.4687,-4.3804,-4.0618,-3.8615,-3.7217,0.0,0.0,0.0,0.0,0.0,0.0,0.0,0.0,0.0,0.0,0.0,0.0,0.0,0.0,0.0,0.0,0.0,0.0,0.0,0.0,0.0,0.0,0.0,0.0,0.0,0.0,0.0,0.0,0.0,0.0,0.0,0.0,0.0,0.0,0.0,0.0,0.0,0.0,0.0,0.0,0.0,-3.7377,-3.5858,-3.7015,-3.7586,0.0,0.0,-3.5936,-3.4778,-3.5518,-3.5465,-3.3214,0.0,0.0,0.0,0.0,0.0,0.0,0.0,0.0,0.0,0.0,0.0,0.0,0.0,0.0,0.0,0.0,0.0,0.0,0.0,0.0,0.0,0.0,0.0,0.0,0.0,0.0,0.0,0.0,0.0,0.0,0.0,0.0,0.0,0.0,0.0,0.0,0.0,0.0,0.0,0.0,0.0,0.0,0.0,0.0,0.0,0.0,0.0,0.0,0.0,0.0,0.0,0.0,0.0,-3.7916,-4.0821,-4.2259,-4.3369,-4.4089,-4.4045,-4.2809,-4.0346,-3.7985,-3.6629,0.0,0.0,0.0,0.0,0.0,0.0,0.0,0.0,0.0,0.0,0.0,0.0,0.0,0.0,0.0,0.0,0.0,0.0,0.0,0.0,0.0,0.0,0.0,0.0,0.0,0.0,0.0,0.0,-2.86,-2.8799,-2.9282,0.0,0.0,0.0,0.0,0.0,0.0,0.0,0.0,0.0,0.0,-3.6391,-3.5494,-3.6752,0.0,0.0,-3.6779,-3.6997,-3.5829,-3.5613,-3.5087,-3.3461,-3.2564,0.0,0.0,0.0,0.0,0.0,0.0,0.0,0.0,0.0,0.0,0.0,0.0,0.0,0.0,0.0,0.0,0.0,0.0,0.0,0.0,0.0,0.0,0.0,0.0,0.0,0.0,0.0,0.0,0.0,0.0,0.0,0.0,0.0,0.0,0.0,0.0,0.0,0.0,0.0,0.0,0.0,0.0,0.0,0.0,0.0,0.0,0.0,0.0,0.0,0.0,0.0,0.0,-3.7831,-4.0329,-4.1751,-4.2731,-4.3341,-4.2837,-4.1736,-3.9951,-3.7405,-3.6021,0.0,0.0,0.0,0.0,0.0,0.0,0.0,0.0,0.0,0.0,0.0,0.0,0.0,0.0,0.0,0.0,0.0,0.0,0.0,0.0,0.0,0.0,0.0,0.0,0.0,0.0,0.0,0.0,-2.8842,-2.9282,-3.0074,0.0,0.0,0.0,0.0,0.0,0.0,0.0,0.0,0.0,0.0,-3.5831,-3.5524,-3.6559,-3.7013,-3.6027,-3.6444,-3.6548,-3.5593,-3.4981,-3.4161,-3.2673,0.0,0.0,0.0,0.0,0.0,0.0,0.0,0.0,0.0,0.0,0.0,0.0,0.0,0.0,0.0,0.0,0.0,0.0,0.0,0.0,0.0,0.0,0.0,0.0,0.0,0.0,0.0,0.0,0.0,0.0,0.0,0.0,0.0,0.0,0.0,0.0,0.0,0.0,0.0,0.0,0.0,0.0,0.0,0.0,0.0,0.0,0.0,0.0,0.0,0.0,0.0,0.0,0.0,-3.7019,-3.7809,-3.9826,-4.057,-4.0138,-4.0764,-4.0532,-3.9161,-3.6736,-3.5392,-3.531,0.0,0.0,0.0,0.0,0.0,0.0,0.0,0.0,0.0,0.0,0.0,0.0,0.0,0.0,0.0,0.0,0.0,0.0,0.0,0.0,0.0,0.0,0.0,0.0,0.0,0.0,-2.8791,-2.9352,-3.0092,0.0,0.0,0.0,0.0,0.0,0.0,0.0,0.0,0.0,0.0,-3.5584,-3.631,-3.631,-3.6713,-3.6735,-3.6291,-3.5034,-3.3957,-3.3575,-3.3478,-3.2696,0.0,0.0,0.0,0.0,0.0,0.0,0.0,0.0,0.0,0.0,0.0,0.0,0.0,0.0,0.0,0.0,0.0,0.0,0.0,0.0,0.0,0.0,0.0,0.0,0.0,0.0,0.0,0.0,-4.5484,0.0,0.0,0.0,0.0,0.0,0.0,0.0,0.0,0.0,0.0,0.0,-4.1523,-4.182,0.0,0.0,0.0,0.0,0.0,0.0,0.0,0.0,0.0,0.0,0.0,0.0,-3.7295,-3.8324,-3.9878,-4.0702,-4.0688,-4.0964,-4.0621,-3.9628,-3.7563,-3.5921,-3.4794,0.0,0.0,0.0,0.0,0.0,0.0,0.0,0.0,0.0,0.0,0.0,0.0,0.0,0.0,0.0,0.0,0.0,0.0,0.0,0.0,0.0,0.0,0.0,0.0,0.0,-2.9147,0.0,0.0,0.0,0.0,0.0,0.0,0.0,0.0,0.0,0.0,0.0,-3.4204,-3.4201,-3.5002,-3.5385,-3.4876,-3.4896,-3.4869,0.0,0.0,0.0,0.0,0.0,0.0,0.0,0.0,0.0,0.0,0.0,0.0,0.0,0.0,-3.2205,-3.0734,-3.0057,-2.9738,-2.9738,0.0,0.0,0.0,0.0,0.0,0.0,0.0,0.0,0.0,0.0,0.0,0.0,0.0,0.0,0.0,0.0,-4.4863,0.0,0.0,0.0,0.0,0.0,0.0,0.0,0.0,-4.1504,-4.1648,-4.1972,-4.2545,-4.2488,0.0,-4.0845,-3.9737,0.0,0.0,0.0,0.0,0.0,0.0,0.0,0.0,-3.7374,-3.8296,-3.9606,-4.0407,-4.065,-4.049,-4.003,-3.9309,-3.7313,-3.545,-3.3831,-3.2749,-3.2096,0.0,0.0,0.0,0.0,0.0,0.0,0.0,0.0,0.0,0.0,0.0,0.0,0.0,0.0,0.0,0.0,0.0,0.0,0.0,0.0,0.0,0.0,0.0,-2.9105,0.0,0.0,0.0,0.0,0.0,0.0,0.0,0.0,0.0,-3.3755,-3.3903,-3.4177,-3.4738,-3.457,-3.4302,-3.4019,0.0,0.0,0.0,0.0,0.0,0.0,0.0,-3.3034,-3.3017,-3.2831,-3.2747,-3.2983,-3.3,-3.3102,-3.3334,0.0,0.0,-3.1072,-3.0482,-3.0076,-2.9822,-2.9754,-2.9924,-3.0395,-3.0277,-3.0089,0.0,0.0,0.0,0.0,0.0,0.0,0.0,0.0,-4.5633,-4.5605,0.0,-4.5378,0.0,0.0,0.0,0.0,0.0,0.0,0.0,0.0,-4.1609,-4.2011,-4.2813,-4.2889,-4.2889,-4.2889,-4.2775,-4.1915,-4.0263,-3.7005,0.0,0.0,0.0,0.0,0.0,0.0,-3.7168,-3.7782,-3.895,-3.9647,-3.9903,-3.9328,-3.8745,-3.8103,-3.596,-3.4065,-3.2578,-3.2408,-3.1551,-2.9823,-3.099,0.0,0.0,0.0,0.0,0.0,0.0,0.0,0.0,0.0,0.0,0.0,0.0,0.0,0.0,0.0,0.0,0.0,0.0,0.0,0.0,-2.9253,0.0,0.0,0.0,0.0,0.0,0.0,0.0,0.0,0.0,0.0,-3.4256,-3.3609,-3.3706,-3.59,0.0,0.0,0.0,0.0,-3.2564,-3.3305,-3.2818,-3.2852,-3.4218,-3.4409,-3.3897,-3.2581,0.0,0.0,-3.2513,-3.2361,-3.2615,-3.3288,-3.2357,-3.1478,-3.2158,-3.209,-3.1819,-3.114,-3.097,-3.1123,-3.1106,-3.0581,-3.0173,-4.8915,0.0,0.0,0.0,0.0,-4.6259,-4.6182,-4.5652,-4.6259,-4.5818,-4.4638,-4.3931,0.0,0.0,0.0,0.0,0.0,0.0,-4.1609,-4.2431,-4.3023,-4.3414,-4.3682,-4.4303,-4.4571,-4.4532,-4.3386,-4.2545,-4.1972,-3.926,-3.738,-3.6384,0.0,0.0,0.0,0.0,-3.7566,-3.8343,-3.9291,-3.9837,-3.9884,-3.9309,-3.8365,-3.7015,-3.5205,-3.4001,-3.3552,-3.2343,-3.1684,-3.1617,-3.1439,0.0,0.0,0.0,0.0,0.0,0.0,0.0,0.0,0.0,0.0,0.0,0.0,0.0,0.0,0.0,0.0,0.0,0.0,0.0,-2.8983,-2.9844,-3.0334,0.0,0.0,0.0,0.0,0.0,0.0,0.0,0.0,0.0,-3.2983,-3.3872,-3.4481,0.0,0.0,-3.365,-3.3567,-3.2849,-3.2564,-3.3288,0.0,0.0,0.0,-3.3254,-3.297,-3.3051,-3.3271,-3.3491,-3.3833,-3.344,-3.3322,-3.4032,-3.3406,-3.2679,-3.2293,-3.141,-3.0548,-2.9856,-3.004,-3.0395,-3.0429,-3.0632,-3.0754,-5.1525,-4.9216,-4.8107,-4.7284,-4.6725,-4.718,-4.7086,-4.6605,-4.6797,-4.6299,-4.5272,-4.4371,-4.3481,-4.2611,-4.1714,0.0,0.0,0.0,-4.2469,-4.331,-4.3777,-4.4178,-4.4532,-4.5067,-4.5277,-4.525,-4.3921,-4.3281,-4.3242,-4.1055,-3.9317,-3.8028,0.0,0.0,-3.7493,-3.7708,-3.8112,-3.8754,-3.9518,-3.9946,-4.0048,-3.8718,-3.7215,-3.5553,-3.4178,-3.3337,-3.2993,-3.2,-3.1421,-3.1412,-3.1242,-3.089,0.0,0.0,0.0,0.0,0.0,0.0,0.0,0.0,0.0,0.0,0.0,-2.7079,-2.8191,0.0,0.0,0.0,-2.8589,-2.8749,-2.8632,-2.9533,0.0,0.0,0.0,0.0,0.0,0.0,0.0,-2.8777,-3.0225,-3.1353,-3.1516,-3.3089,-3.4158,-3.4012,-3.3353,-3.2918,-3.2957,0.0,-3.2124,-3.2869,-3.2949,-3.3051,-3.3339,-3.3034,-3.2882,-3.3322,-3.3389,-3.3541,-3.3947,-3.3694,-3.3575,-3.3897,-3.3711,-3.3169,-3.2429,-3.1565,-3.0734,-3.0042,-3.0226,-3.0514,-3.0531,-3.0533,-3.0439,-5.4281,-5.2508,-4.9917,-4.8663,-4.8413,-4.827,-4.8182,-4.8047,-4.7317,-4.6904,-4.6731,-4.5893,-4.5021,-4.4132,-4.3216,0.0,0.0,-4.2889,-4.3319,-4.4102,-4.4083,-4.4532,-4.5288,-4.5277,-4.5277,-4.5288,-4.4475,-4.4102,-4.4025,-4.2488,-4.1323,-4.0549,-3.8858,-3.8343,-3.8936,-3.8735,-3.8773,-3.9117,-3.9649,-3.9991,-4.0053,-3.7742,-3.5698,-3.4052,-3.3081,-3.226,-3.156,-3.1427,-3.094,-3.0005,-3.0625,-3.0605,-2.9738,0.0,0.0,0.0,0.0,0.0,0.0,0.0,0.0,0.0,0.0,0.0,0.0,0.0,0.0,0.0,-2.887,0.0,-2.8724,-2.865,0.0,0.0,0.0,-2.9694,-2.9712,-2.9404,-2.8824,-2.7815,0.0,0.0,0.0,0.0,-3.2869,-3.3524,-3.223,-3.1478,-3.2256,-3.1752,-3.1481,-3.2242,-3.2293,-3.2547,-3.3136,-3.322,-3.3102,-3.2966,-3.3186,-3.3186,-3.3254,-3.3203,-3.322,-3.3305,-3.3271,-3.3,-3.2327,-3.209,-3.1989,-3.1241,-3.114,-3.1173,-3.1123,-3.0381,-2.9656,-5.504,-5.446,-5.2403,-5.0739,-4.9444,-4.9284,-4.8868,-4.8253,-4.7938,-4.7087,-4.5782,-4.4975,-4.4066,-4.3158,-4.29,-4.3148,-4.3701,-4.372,-4.4169,-4.4953,-4.4991,-4.5086,-4.5277,-4.5277,-4.5277,-4.5288,-4.5086,-4.4991,-4.4934,-4.3921,-4.33,-4.3032,-4.1437,-4.0062,-3.9049,-3.8918,-3.928,-3.9976,-4.012,-3.9595,-3.8343,-3.713,-3.5698,-3.4052,-3.2573,-3.1687,-3.1503,-3.0854,-3.0381,-3.0154,-3.0318,-3.0304,-3.0083,-3.0094,0.0,0.0,0.0,0.0,0.0,0.0,0.0,0.0,0.0,-2.8572,-2.8968,0.0,-2.8674,0.0,-2.8846,-2.8785,-2.8785,-2.8724,0.0,0.0,-2.8927,-2.8889,-2.8871,-2.8582,-2.8205,-2.7763,-2.8559,-2.8956,-2.8421,-2.9504,-3.0281,-3.0214,-3.0813,-3.1664,-3.2865,-3.2002,-3.1444,-3.209,-3.2192,-3.2361,-3.2496,-3.2544,-3.2192,-3.1072,-3.1376,-3.1901,-3.2462,-3.207,-3.1884,-3.2395,-3.2087,-3.1681,-3.1495,-3.1461,-3.1427,-3.1224,-3.119,-3.119,-3.1173,-3.0521,-2.9766,-5.5884,-5.5706,-5.3903,-5.2581,-5.1604,-5.0641,-4.9737,-4.8929,-4.8427,-4.743,-4.6106,-4.5222,-4.4508,-4.3963,-4.3952,-4.419,-4.4571,-4.459,-4.4838,-4.5288,-4.5277,-4.5277,-4.5277,-4.5277,-4.5277,-4.5277,-4.5277,-4.5277,-4.5239,-4.4437,-4.4006,-4.3968,-4.2717,-4.1609,-4.0692,-3.9957,-4.0005,-4.0807,-4.0473,-3.9652,-3.8304,-3.712,-3.6061,-3.5095,-3.2764,-3.1656,-3.2012,-3.0835,-3.0204,-3.0204,-3.0204,-3.0204,-3.0204,-3.0106,-2.9945,0.0,0.0,0.0,0.0,0.0,0.0,0.0,0.0,0.0,0.0,0.0,-2.9424,0.0,-2.9387,0.0,-2.8779,-2.8706,-2.8682,-2.8662,-2.8625,-2.86,-2.86,-2.8192,-2.7855,-2.773,-2.8122,-2.8251,-2.7894,-2.8662,-2.921,-2.9028,-2.9704,-3.0516,-3.119,-3.0683,-3.0381,-3.077,-3.0838,-3.0973,-3.1261,-3.1328,-3.1193,-3.0751,-3.092,-3.1343,-3.1735,-3.1478,-3.1343,-3.1684,-3.1481,-3.119,-3.119,-3.119,-3.1106,-3.0835,-3.097,-3.1055,-3.0768,-2.9991,-2.9084,-5.6528,-5.6274,-5.4674,-5.3932,-5.3672,-5.1715,-5.0537,-4.9893,-4.8786,-4.7746,-4.6754,-4.5881,-4.5467,-4.5418,-4.5408,-4.5359,-4.5277,-4.5277,-4.5277,-4.5277,-4.5277,-4.5277,-4.5277,-4.5277,-4.5277,-4.5277,-4.5277,-4.5277,-4.5269,-4.4532,-4.4159,-4.4121,-4.3338,-4.2966,-4.2889,-4.1304,-4.0788,-4.1485,-4.0711,-3.9862,-3.8992,-3.736,-3.6405,-3.608,-3.3127,-3.1763,-3.2317,-3.0987,-3.0204,-3.0204,-3.0204,-3.0178,-3.0157,-3.0164,-2.9977,0.0,-2.957,0.0,0.0,0.0,0.0,0.0,0.0,0.0,0.0,-2.9581,-2.9942,-2.9989,-3.007,-2.9789,-2.9082,-2.9028,-2.899,-2.8933,-2.892,-2.8902,-2.8895,-2.8358,-2.7997,-2.7999,-2.796,-2.7925,-2.7841,-2.8433,-2.884,-2.879,-2.8705,-2.8807,-2.8873,-2.9044,-2.9162,-2.9111,-2.9145,-2.9617,-2.9803,-3.0006,-3.0345,-3.0768,-3.0804,-3.0973,-3.1038,-3.0937,-3.0886,-3.0886,-3.0835,-3.0835,-3.0903,-3.0869,-3.0685,-3.0091,-3.0395,-3.0598,-3.0055,-2.9276,-2.8222,-5.6196,-5.5435,-5.442,-5.36,-5.28,-5.1023,-5.0514,-5.0815,-4.9059,-4.7384,-4.5868,-4.5617,-4.5467,-4.541,-4.5409,-4.5359,-4.5297,-4.5277,-4.5277,-4.5277,-4.5277,-4.5277,-4.5277,-4.5277,-4.5277,-4.5277,-4.5277,-4.5277,-4.5277,-4.5144,-4.5048,-4.5029,-4.4188,-4.3758,0.0,0.0,0.0,0.0,-4.0711,-3.9871,-3.8992,-3.736,-3.584,-3.4483,-3.2497,0.0,-3.0682,-3.0357,-3.0204,-3.0204,-3.0204,0.0,0.0,0.0,0.0,0.0,0.0,0.0,0.0,0.0,0.0,0.0,-2.8987,-2.8987,-2.9005,-2.9028,-2.9314,-2.994,-3.0007,-3.0208,-3.0693,-3.0768,-3.0755,-3.0643,-3.0625,-3.0612,-3.0532,-2.9941,-2.9578,-2.9562,-2.9111,-2.8518,-2.7925,-2.7959,-2.8027,-2.7993,-2.752,-2.7402,-2.7994,-2.8552,-2.9178,-2.9736,-2.9668,-2.9381,-2.8382,-2.9277,-2.9803,-2.9602,-2.9416,-2.9687,-3.0142,-2.9803,-2.945,-2.9484,-2.9399,-2.945,-2.945,-2.9416,-2.945,-2.923,-2.9348,-2.9382,-2.9228,-2.9039,-2.8538,-5.6098,0.0,-5.4361,-5.3502,0.0,-5.1297,-5.0696,-5.0527,-4.8672,-4.701,-4.5648,-4.5558,-4.5457,-4.5419,-4.5419,-4.538,-4.5338,-4.5348,-4.5328,-4.5288,-4.5277,-4.5277,-4.5277,-4.5277,-4.5277,-4.5277,-4.5277,-4.5277,-4.5277,-4.5277,-4.5277,-4.5277,-4.4857,-4.4437,-4.3949,-4.2335,-4.1313,-4.0922,-4.0492,-4.0091,-3.9603,-3.7952,-3.691,-3.6394,0.0,0.0,0.0,0.0,0.0,0.0,0.0,0.0,0.0,0.0,0.0,-2.9316,-2.9304,-2.9217,-2.9028,-2.8987,-2.8987,-2.9005,-2.9384,-2.9769,-3.0155,-3.0131,-3.0405,-3.1192,-3.1283,-3.1271,-3.1232,-3.1289,-3.1232,-3.1119,-3.1106,-3.1079,-3.0971,-3.0567,-3.0187,-2.993,-2.9228,-2.8459,-2.7875,-2.7789,-2.7621,-2.735,-2.7621,-2.7774,-2.7773,-2.7807,-2.8028,-2.8366,-2.8433,-2.828,-2.7976,-2.8365,-2.9076,-2.8959,-2.8993,-2.9145,-2.9482,-2.9247,-2.8993,-2.8993,-2.8993,-2.8993,-2.8993,-2.8993,-2.8874,-2.8552,-2.8721,-2.8671,-2.8112,-2.8146,-2.8008,-5.6001,-5.5005,-5.4303,-5.3424,-5.2411,-5.1531,-5.0573,-4.9556,0.0,0.0,0.0,-4.5582,-4.5466,-4.5419,-4.5419,-4.541,-4.5408,-4.5408,-4.5359,-4.5277,-4.5277,-4.5277,-4.5277,-4.5277,-4.5277,-4.5277,-4.5277,-4.5277,-4.5277,-4.5277,-4.5277,-4.5277,-4.5277,-4.48,-4.3739,-4.2125,-4.0979,-4.0339,-4.032,-4.032,-4.0263,-3.8591,-3.796,-3.8553,-3.4915,-3.3146,-3.3517,-3.1541,-3.0357,-3.0204,-3.0204,-3.0087,-2.9864,-2.9847,-2.9672,-2.9291,-2.923,-2.9181,-2.8998,-2.8987,-2.906,-2.9207,-2.9941,-3.0742,-3.1549,-3.1476,-3.1708,-3.2515,-3.2588,-3.2324,-3.1746,-3.1741,-3.167,-3.1538,-3.1524,-3.1515,-3.1419,-3.111,-3.0836,-3.0381,-2.9549,-2.8664,-2.8334,-2.8145,-2.7807,-2.7402,-2.801,-2.8501,-2.7773,-2.7452,-2.7351,-2.7215,-2.7469,-2.7435,-2.7655,-2.7858,-2.8078,-2.8636,-2.8619,-2.8637,-2.8756,-2.8688,-2.8604,-2.8451,-2.8587,-2.8536,-2.8553,-2.8485,-2.8366,-2.7739,-2.8112,-2.818,-2.6962,-2.7097,-2.7215,-5.565,-5.4166,-5.4049,-5.3073,-5.1511,-5.0651,-4.9401,-4.7932,-4.7423,-4.669,-4.5766,-4.5643,-4.5559,-4.5485,-4.5475,-4.5438,-4.5408,-4.5408,-4.5378,0.0,-4.5277,-4.5277,-4.5277,-4.5277,-4.5277,-4.5277,-4.5277,-4.5277,-4.5277,-4.5277,-4.5277,-4.5277,-4.5277,-4.4513,-4.2966,-4.1294,-4.0416,-4.032,-4.032,-4.032,-4.0282,-3.8591,-3.7426,-3.6806,-3.4885,-3.3165,-3.1885,-3.1503,-3.0968,-3.0268,-3.0204,-3.0034,-2.9653,-2.9644,-2.9465,-2.9089,-2.9051,-2.9021,-2.8987,-2.8987,-2.9299,-2.9989,-3.076,-3.1568,-3.2307,-3.1743,-3.1644,-3.2418,-3.2559,-3.2733,-3.3177,-3.3255,-3.3205,-3.312,-3.3146,-3.3117,-3.2991,-3.2652,-3.227,-3.1874,-3.0994,-3.0125,-2.9645,-2.9179,-2.879,-2.8604,-2.8264,-2.7722,-2.73,-2.7909,-2.8281,-2.7943,-2.8247,-2.8366,-2.7858,-2.779,-2.7807,-2.7942,-2.7486,-2.7368,-2.7909,-2.7571,-2.7232,-2.708,-2.7216,-2.7148,-2.7131,-2.7012,-2.708,-2.6945,-2.7131,-2.6843,-2.6082,-2.6471,-2.6793,-5.5591,-5.4127,-5.4498,-5.3424,-5.1297,-4.9969,-4.8974,-4.8168,-4.7072,-4.6338,-4.5872,-4.5764,-4.5651,-4.5568,-4.554,-4.5505,-4.5409,-4.5409,-4.5341,-4.5307,-4.5277,-4.5277,-4.5277,-4.5277,-4.5277,-4.5277,-4.5277,-4.5277,-4.5277,-4.5277,-4.5277,-4.5269,-4.4838,-4.4208,-4.3395,-4.1781,-4.096,-4.0941,-4.0511,-4.032,-4.0263,-3.8591,-3.754,-3.7158,-3.5114,-3.3662,-3.2879,-3.2401,-3.1763,-3.093,-3.0911,-3.0502,-2.9673,-2.9598,-2.9415,-2.9033,-2.8987,-2.8987,-2.8987,-2.9409,-2.9996,-3.0797,-3.1586,-3.2394,-3.3183,-3.2483,-3.2342,-3.3111,-3.3216,-3.3331,-3.3675,-3.3739,-3.3712,-3.3633,-3.3619,-3.3577,-3.3506,-3.3371,-3.2949,-3.2179,-3.1452,-3.0681,-2.9865,-2.9663,-2.9416,-2.9042,-2.8315,-2.7536,-2.6826,-2.7266,-2.7656,-2.73,-2.7503,-2.7554,-2.7283,-2.7215,-2.7215,-2.7215,-2.6928,-2.686,-2.7165,-2.686,-2.6742,-2.6708,-2.6708,-2.6708,-2.6708,-2.6708,-2.6708,-2.6708,-2.6708,-2.6505,-2.6319,-2.6488,-2.6657,-5.5689,-5.4361,-5.5025,-5.3912,-5.155,-4.9638,-4.8798,-4.8621,-4.6905,-4.6084,-4.5949,-4.5861,-4.5719,-4.5603,-4.5594,-4.5541,-4.5429,-4.541,-4.538,-4.5328,-4.5307,-4.5277,-4.5277,-4.5277,-4.5277,-4.5277,-4.5277,-4.5277,-4.5277,-4.5277,-4.5277,-4.5201,-4.4437,-4.4006,-4.3987,-4.2335,-4.159,-4.1724,-4.0826,-4.032,-4.0263,-3.8782,-3.7903,-3.7559,-3.5668,-3.4353,-3.392,-3.3255,-3.253,-3.176,-3.1653,-3.1097,-2.9992,-2.9842,-2.957,-2.9081,-2.8987,-2.9097,-2.9317,-3.0191,-3.1017,-3.1623,-3.2412,-3.3146,-3.366,-3.3238,-3.3115,-3.3697,-3.377,-3.3788,-3.3793,-3.3762,-3.3753,-3.3698,-3.3684,-3.3643,-3.3605,-3.3605,-3.3273,-3.2301,-3.1729,-3.1028,-3.03,-3.0119,-2.9951,-2.935,-2.8433,-2.7587,-2.708,-2.6826,-2.6708,-2.6708,-2.6708,-2.6759,-2.6708,-2.6725,-2.6742,-2.6708,-2.6708,-2.6725,-2.6759,-2.6725,-2.6708,-2.6708,-2.6708,-2.6708,-2.6708,-2.6708,-2.6708,-2.6708,-2.6708,-2.6691,-2.6657,-2.6657,-2.6708,-5.604,-5.524,-5.5261,-5.4266,-5.2333,-4.9891,-4.8818,-4.8584,-4.7018,-4.6209,-4.6072,-4.5885,-4.5727,-4.5612,-4.5594,-4.554,-4.5466,-4.5429,-4.54,-4.5379,-4.5328,-4.5277,-4.5307,-4.5288,-4.5277,-4.5288,-4.5307,-4.5307,-4.5307,-4.5288,-4.5277,-4.5182,-4.4407,-4.4045,-4.3834,-4.2374,-4.1915,-4.2622,-4.1113,-4.032,-4.0244,-3.9374,-3.8514,-3.7693,-3.6776,-3.5431,-3.3844,-3.3571,-3.3144,-3.2397,-3.21,-3.1617,-3.0856,-3.0545,-2.9995,-2.9102,-2.9023,-2.9299,-3.0087,-3.15,-3.2344,-3.2528,-3.3201,-3.3678,-3.3788,-3.3733,-3.3678,-3.3807,-3.3807,-3.3807,-3.3807,-3.3753,-3.3694,-3.3602,-3.3584,-3.3605,-3.3564,-3.3605,-3.3437,-3.3054,-3.2262,-3.1689,-3.1429,-3.0974,-3.0413,-2.9863,-2.8756,-2.7807,-2.7452,-2.7029,-2.6708,-2.6708,-2.6708,-2.6708,-2.6708,-2.6708,-2.6708,-2.6708,-2.6708,-2.6708,-2.6708,-2.6708,-2.6708,-2.6708,-2.6708,-2.6708,-2.6708,-2.6708,-2.6708,-2.6708,-2.6708,-2.6708,-2.6708,-2.6708,-2.6708,-5.6098,-5.532,-5.53,-5.4285,-5.2509,-5.0438,-4.9267,-4.8681,-4.7569,-4.6704,-4.6111,-4.5938,-4.5796,-4.5723,-4.5646,-4.5568,-4.5504,-4.5476,-4.5438,-4.5409,-4.537,-4.5361,-4.5361,-4.5361,-4.5361,-4.5361,-4.5369,-4.5348,-4.5348,-4.5317,-4.5277,-4.5269,-4.4914,-4.4762,-4.4685,-4.3577,-4.3166,-4.3452,-4.2374,-4.1552,-4.0903,-3.968,-3.8839,-3.8381,-3.7215,-3.6188,-3.5356,-3.4852,-3.4186,-3.3407,-3.3099,-3.2543,-3.1664,-3.0916,-3.0268,-2.9774,-2.9702,-2.9831,-3.0179,-3.1702,-3.2601,-3.2601,-3.3335,-3.3807,-3.3807,-3.3807,-3.3807,-3.3807,-3.3807,-3.3807,-3.3788,-3.378,-3.3583,-3.3166,-3.3012,-3.3016,-3.3016,-3.3016,-3.2962,-3.282,-3.273,-3.2421,-3.1994,-3.1567,-3.087,-3.0,-2.8951,-2.83,-2.7385,-2.6877,-2.6742,-2.6708,-2.6708,-2.6708,-2.6708,-2.6708,-2.6708,-2.6708,-2.6708,-2.6708,-2.6708,-2.6708,-2.6708,-2.6708,-2.6708,-2.6708,-2.6708,-2.6708,-2.6708,-2.6708,-2.6708,-2.6708,-2.6708,-2.6708,-2.6708,-5.602,-5.563,-5.5162,-5.4088,-5.2528,-5.0575,-4.9384,-4.8701,-4.7705,-4.6828,-4.6183,-4.6009,-4.5903,-4.5809,-4.5676,-4.5577,-4.5522,-4.5504,-4.5476,-4.5429,-4.541,-4.541,-4.541,-4.541,-4.541,-4.5419,-4.54,-4.5399,-4.5398,-4.5328,-4.5277,-4.5277,-4.5277,-4.5277,-4.5201,-4.4437,-4.4121,-4.4246,-4.3367,-4.2488,-4.1743,-4.0444,-3.947,-3.8935,-3.7589,-3.6712,-3.6373,-3.5564,-3.4823,-3.4162,-3.3951,-3.3382,-3.2379,-3.1387,-3.0557,-3.0025,-3.0301,-3.054,-3.054,-3.2027,-3.2931,-3.2968,-3.3495,-3.3807,-3.3807,-3.3807,-3.3807,-3.3807,-3.3807,-3.3807,-3.3807,-3.3807,-3.3458,-3.2729,-3.2601,-3.2601,-3.2619,-3.2601,-3.2711,-3.2905,-3.3194,-3.3092,-3.2448,-3.2094,-3.1551,-3.0629,-2.9765,-2.8938,-2.7691,-2.7198,-2.6825,-2.6725,-2.6708,-2.6708,-2.6708,-2.6708,-2.6708,-2.6708,-2.6708,-2.6708,-2.6708,-2.6708,-2.6708,-2.6708,-2.6708,-2.6708,-2.6708,-2.6708,-2.6708,-2.6708,-2.6708,-2.6708,-2.6708,-2.6708,-2.6708,-5.5825,-5.6235,-5.4732,-5.3522,-5.2489,-5.0028,-4.8876,-4.8681,-4.7139,-4.6357,-4.6271,-4.6141,-4.6028,-4.5897,-4.57,-4.5594,-4.5605,-4.5522,-4.5504,-4.5495,-4.5429,-4.541,-4.541,-4.541,-4.541,-4.541,-4.5419,-4.5409,-4.5379,-4.5328,-4.5277,-4.5277,-4.5277,-4.5277,-4.5182,-4.4494,-4.4418,-4.4895,-4.3711,-4.2794,-4.2603,-4.18,-4.0578,-3.9164,-3.8113,-3.7164,-3.6245,-3.5363,-3.4793,-3.4505,-3.4448,-3.3992,-3.3022,-3.2188,-3.098,-2.9529,-3.054,-3.136,-3.1544,-3.2797,-3.3678,-3.3715,-3.3733,-3.3807,-3.3807,-3.3807,-3.3807,-3.3807,-3.3807,-3.3807,-3.3715,-3.3752,-3.3421,-3.2638,-3.2583,-3.2601,-3.2601,-3.2601,-3.2981,-3.3482,-3.3639,-3.3472,-3.3082,-3.2729,-3.2397,-3.1838,-3.0907,-2.9814,-2.9176,-2.8059,-2.7275,-2.6909,-2.6792,-2.6708,-2.6691,-2.6708,-2.6708,-2.6708,-2.6708,-2.6708,-2.6708,-2.6708,-2.6708,-2.6708,-2.6708,-2.6708,-2.6708,-2.6708,-2.6708,-2.6708,-2.6708,-2.6708,-2.6708,-2.6708,-2.6708,-5.565,-5.483,-5.3659,-5.2683,-5.1726,-5.0243,-4.9306,-4.8701,-4.7627,-4.6807,-4.6333,-4.617,-4.6064,-4.6009,-4.5815,-4.5684,-4.5603,-4.5568,-4.5568,-4.5568,-4.5531,-4.5522,-4.5522,-4.5522,-4.5504,-4.5476,-4.54,-4.538,-4.5338,-4.5326,-4.5277,-4.5277,-4.5277,-4.5277,-4.5239,-4.4991,-4.501,-4.5211,-4.4657,-4.3902,-4.2889,-4.2488,-4.1533,-3.989,-3.8438,-3.7514,-3.7146,-3.5822,-3.4982,-3.4763,-3.4753,-3.4511,-3.396,-3.3093,-3.1728,-3.0172,-3.1274,-3.2173,-3.2284,-3.3183,-3.3807,-3.3807,-3.3807,-3.3807,-3.3807,-3.3807,-3.3807,-3.3807,-3.3807,-3.3642,-3.3256,-3.3476,-3.3256,-3.2173,-3.2271,-3.2528,-3.2601,-3.2601,-3.2894,-3.3587,-3.3762,-3.3666,-3.3469,-3.3169,-3.2724,-3.2068,-3.1326,-3.0658,-2.9919,-2.8947,-2.8159,-2.7784,-2.7362,-2.6956,-2.6708,-2.6691,-2.6708,-2.6708,-2.6708,-2.6708,-2.6708,-2.6708,-2.6708,-2.6708,-2.6708,-2.6708,-2.6708,-2.6708,-2.6708,-2.6708,-2.6708,-2.6708,-2.6708,-2.6708,-2.6708,-5.5005,-5.3268,-5.2839,-5.2195,-5.1297,-5.0163,-4.9343,-4.8681,-4.7647,-4.6846,-4.6353,-4.6209,-4.6141,-4.6087,-4.5949,-4.5796,-4.5687,-4.562,-4.5594,-4.5594,-4.5594,-4.5594,-4.5594,-4.5594,-4.5596,-4.5541,-4.5476,-4.541,-4.537,-4.5339,-4.5329,-4.5328,-4.5329,-4.5329,-4.5338,-4.5329,-4.5339,-4.5339,-4.5329,-4.4622,-4.3359,-4.2938,-4.2145,-4.0692,-3.903,-3.796,-3.7693,-3.6347,-3.5373,-3.4983,-3.4973,-3.4766,-3.4239,-3.3471,-3.2337,-3.1082,-3.1881,-3.2601,-3.2693,-3.3348,-3.3807,-3.3807,-3.3807,-3.3807,-3.3807,-3.3807,-3.3807,-3.3807,-3.3807,-3.3476,-3.2913,-3.3091,-3.2742,-3.1421,-3.1494,-3.1812,-3.183,-3.2032,-3.2674,-3.3518,-3.3762,-3.3739,-3.3703,-3.3484,-3.3074,-3.2418,-3.1956,-3.1357,-3.0692,-2.994,-2.9162,-2.864,-2.8127,-2.7618,-2.73,-2.7148,-2.6891,-2.6825,-2.6758,-2.6742,-2.6708,-2.6708,-2.6708,-2.6708,-2.6708,-2.6708,-2.6708,-2.6708,-2.6708,-2.6708,-2.6708,-2.6708,-2.6708,-2.6708,-2.6708,-5.3815,-5.1863,-5.2331,-5.2097,-5.1102,-4.9579,-4.8818,-4.8447,-4.7042,-4.6378,-4.63,-4.6298,-4.6233,-4.6112,-4.6084,-4.5993,-4.5801,-4.5684,-4.5612,-4.5594,-4.5594,-4.5594,-4.5594,-4.5594,-4.5586,-4.5577,-4.5522,-4.5495,-4.5457,-4.541,-4.539,-4.5409,-4.539,-4.5409,-4.5389,-4.539,-4.54,-4.541,-4.5381,-4.4901,-4.4097,-4.3206,-4.2326,-4.1294,-3.9794,-3.8591,-3.7731,-3.6891,-3.5926,-3.5069,-3.5062,-3.4706,-3.3885,-3.3377,-3.269,-3.2038,-3.2355,-3.2608,-3.2729,-3.3385,-3.3807,-3.3807,-3.3807,-3.3807,-3.3807,-3.3807,-3.377,-3.366,-3.3642,-3.3366,-3.2601,-3.2436,-3.1959,-3.0595,-3.0613,-3.0632,-3.0705,-3.1072,-3.2027,-3.3426,-3.3748,-3.3698,-3.3684,-3.3629,-3.3472,-3.3255,-3.278,-3.2144,-3.1578,-3.0841,-3.0033,-2.919,-2.8576,-2.8077,-2.7864,-2.7657,-2.7274,-2.6955,-2.6858,-2.6808,-2.6742,-2.6708,-2.6708,-2.6708,-2.6708,-2.6708,-2.6708,-2.6708,-2.6708,-2.6708,-2.6708,-2.6708,-2.6708,-2.6708,-2.6708,-5.3561,-5.2292,-5.1921,-5.1297,-5.0397,-4.9286,-4.8505,-4.7879,-4.6749,-4.6302,-4.6302,-4.6302,-4.6292,-4.6236,-4.6141,-4.602,-4.5883,-4.5768,-4.5692,-4.5631,-4.5614,-4.5594,-4.5594,-4.5594,-4.5558,-4.5522,-4.5457,-4.5429,-4.5429,-4.5419,-4.541,-4.541,-4.5419,-4.5419,-4.5419,-4.5419,-4.541,-4.54,-4.5409,-4.471,-4.3369,-4.2948,-4.2126,-4.0788,-4.0138,-3.9221,-3.7789,-3.6929,-3.6013,-3.4984,-3.5089,-3.4734,-3.3978,-3.4083,-3.3776,-3.288,-3.3302,-3.3616,-3.3485,-3.3623,-3.377,-3.3807,-3.3807,-3.3807,-3.3807,-3.3807,-3.3568,-3.3115,-3.2949,-3.2467,-3.1292,-3.0931,-3.0944,-3.1011,-3.1048,-3.1127,-3.1623,-3.2449,-3.3183,-3.3623,-3.3775,-3.378,-3.3766,-3.3739,-3.3684,-3.3615,-3.3318,-3.2914,-3.2166,-3.1401,-3.0424,-2.9433,-2.8913,-2.8418,-2.806,-2.7858,-2.7669,-2.7334,-2.718,-2.694,-2.6841,-2.6775,-2.6758,-2.6708,-2.6708,-2.6708,-2.6708,-2.6708,-2.6708,-2.6708,-2.6708,-2.6708,-2.6708,-2.6708,-2.6708,-5.2995,-5.2156,-5.1277,-5.0612,-4.9967,-4.8876,-4.8094,-4.749,-4.6671,-4.6302,-4.6302,-4.6302,-4.6302,-4.6277,-4.6211,-4.6084,-4.5905,-4.584,-4.5926,-4.5967,-4.5691,-4.5614,-4.5594,-4.5594,-4.5596,-4.5531,-4.5495,-4.5466,-4.5485,-4.5476,-4.5476,-4.5457,-4.5457,-4.5467,-4.5438,-4.5448,-4.5476,-4.5438,-4.5141,-4.4442,-4.3417,-4.268,-4.1839,-4.0826,-4.0157,-3.9107,-3.7769,-3.6939,-3.6048,-3.5245,-3.5132,-3.4865,-3.4352,-3.4557,-3.4386,-3.3837,-3.3796,-3.3959,-3.3815,-3.3476,-3.3513,-3.3678,-3.3532,-3.3532,-3.3715,-3.3807,-3.3532,-3.3164,-3.2784,-3.2197,-3.1311,-3.0485,-3.0503,-3.087,-3.0577,-3.1035,-3.1953,-3.2871,-3.3458,-3.3642,-3.378,-3.3748,-3.3766,-3.3707,-3.3712,-3.3657,-3.3615,-3.3299,-3.2515,-3.1883,-3.0862,-2.9944,-2.9327,-2.8788,-2.819,-2.8041,-2.8,-2.7786,-2.758,-2.7274,-2.7053,-2.6989,-2.6956,-2.6758,-2.6708,-2.6708,-2.6708,-2.6708,-2.6708,-2.6708,-2.6708,-2.6708,-2.6708,-2.6708,-2.6708,-5.2195,-5.1336,-5.0475,-5.0085,-4.9772,-4.8328,-4.7586,-4.7352,-4.6671,-4.6302,-4.6302,-4.6302,-4.6302,-4.63,-4.6249,-4.6128,-4.5944,-4.5886,-4.6111,-4.629,-4.599,-4.5652,-4.5797,-4.5691,-4.5682,-4.5778,-4.5663,-4.5586,-4.5577,-4.5577,-4.5568,-4.5532,-4.5559,-4.5568,-4.5513,-4.5568,-4.5586,-4.5472,-4.4783,-4.4258,-4.3905,-4.2498,-4.1513,-4.1256,-3.9986,-3.8801,-3.7778,-3.6814,-3.5984,-3.5316,-3.5182,-3.5163,-3.5058,-3.4774,-3.4542,-3.4363,-3.4062,-3.3821,-3.3582,-3.3096,-3.2894,-3.3293,-3.2908,-3.2816,-3.3311,-3.3348,-3.3238,-3.3036,-3.2564,-3.2234,-3.1757,-3.0858,-3.0173,-3.0044,-2.9904,-3.0283,-3.1256,-3.2247,-3.3128,-3.3647,-3.3753,-3.3712,-3.3726,-3.3671,-3.3643,-3.3629,-3.3615,-3.3236,-3.2643,-3.2051,-3.147,-3.0726,-2.9952,-2.9465,-2.9004,-2.8828,-2.8734,-2.8206,-2.8003,-2.7733,-2.7307,-2.7181,-2.7101,-2.6907,-2.6708,-2.6708,-2.6708,-2.6708,-2.6708,-2.6708,-2.6708,-2.6708,-2.6708,-2.6708,-2.6708,-5.2195,-5.1316,-5.0475,-4.9733,-4.9052,-4.7996,-4.7217,-4.6651,-4.6436,-4.6302,-4.6302,-4.6302,-4.6302,-4.6278,-4.6187,-4.6076,-4.5915,-4.5853,-4.5829,-4.589,-4.5748,-4.6009,-4.6278,-4.5893,-4.5951,-4.6374,-4.5902,-4.5594,-4.5594,-4.5594,-4.5605,-4.5577,-4.5586,-4.5586,-4.5577,-4.5586,-4.5594,-4.547,-4.4734,-4.3921,-4.3185,-4.2191,-4.1274,-4.0614,-4.0138,-3.9163,-3.7813,-3.6315,-3.5488,-3.5239,-3.5182,-3.5182,-3.5166,-3.4917,-3.4694,-3.4508,-3.4237,-3.3702,-3.3088,-3.2711,-3.2467,-3.2045,-3.1892,-3.1806,-3.1971,-3.2058,-3.1751,-3.1311,-3.0907,-3.065,-3.0087,-2.9629,-2.9372,-2.9445,-2.9996,-3.076,-3.147,-3.2632,-3.3587,-3.377,-3.3793,-3.378,-3.3766,-3.3698,-3.3684,-3.3652,-3.3515,-3.3232,-3.2414,-3.2228,-3.1664,-3.1313,-3.0722,-3.0308,-2.995,-2.975,-2.9403,-2.8734,-2.8445,-2.8286,-2.778,-2.7353,-2.7244,-2.7085,-2.6775,-2.6708,-2.6708,-2.6708,-2.6708,-2.6708,-2.6708,-2.6708,-2.6708,-2.6708,-2.6708,-5.1648,-5.0828,-5.0319,-4.9401,-4.831,-4.7781,-4.71,-4.6417,-4.6302,-4.6302,-4.6302,-4.6302,-4.6302,-4.6278,-4.6216,-4.6087,-4.5924,-4.5871,-4.6165,-4.6786,-4.7105,-4.7144,-4.6894,-4.6317,-4.6432,-4.6721,-4.6009,-4.5633,-4.5594,-4.5594,-4.5594,-4.5594,-4.5594,-4.5594,-4.5594,-4.5594,-4.5594,-4.5374,-4.4455,-4.345,-4.2905,-4.172,-4.0946,-4.0314,-4.0001,-3.9006,-3.7357,-3.5946,-3.5245,-3.5209,-3.5182,-3.5182,-3.5174,-3.5019,-3.4841,-3.4634,-3.439,-3.3789,-3.3,-3.2453,-3.193,-3.1532,-3.1231,-3.1121,-3.136,-3.1397,-3.1103,-3.0901,-3.043,-2.9989,-2.9574,-2.9225,-2.9023,-2.9152,-3.0155,-3.0999,-3.1342,-3.2816,-3.366,-3.3807,-3.3807,-3.3807,-3.3788,-3.355,-3.3348,-3.317,-3.2795,-3.225,-3.1596,-3.1783,-3.178,-3.1287,-3.1128,-3.0761,-3.0498,-3.0334,-3.0041,-2.9408,-2.9005,-2.8837,-2.8158,-2.76,-2.7407,-2.7234,-2.6925,-2.6708,-2.6708,-2.6708,-2.6708,-2.6708,-2.6708,-2.6708,-2.6708,-2.6708,-2.6708,-5.0945,-5.0221,-5.0046,-4.9089,-4.7859,-4.753,-4.6963,-4.6397,-4.6302,-4.6302,-4.6302,-4.6302,-4.6417,-4.6417,-4.6342,-4.6252,-4.6235,-4.6211,-4.6883,-4.7782,-4.8509,-4.8509,-4.749,-4.7163,-4.7086,-4.7009,-4.6144,-4.5748,-4.5652,-4.5594,-4.5594,-4.5594,-4.5594,-4.5594,-4.5594,-4.5594,-4.5594,-4.5278,-4.3964,-4.3323,-4.2883,-4.1611,-4.0645,-4.0588,-3.9399,-3.8432,-3.7036,-3.5883,-3.5269,-3.5182,-3.5182,-3.5182,-3.5166,-3.5,-3.4898,-3.4746,-3.4344,-3.3724,-3.3058,-3.2008,-3.1339,-3.1188,-3.0549,-3.0421,-3.0892,-3.0984,-3.0905,-3.0847,-3.0466,-2.9989,-2.9824,-2.9335,-2.906,-2.917,-2.9812,-3.065,-3.1452,-3.2742,-3.3678,-3.3715,-3.3715,-3.3807,-3.3605,-3.3164,-3.2619,-3.2852,-3.2399,-3.1757,-3.1378,-3.1481,-3.1309,-3.0869,-3.0892,-3.1133,-3.0961,-3.0844,-3.0519,-3.0098,-2.9725,-2.934,-2.851,-2.7978,-2.7679,-2.7417,-2.7257,-2.6976,-2.6708,-2.6708,-2.6725,-2.6708,-2.6708,-2.6708,-2.6708,-2.6708,-2.6708,-5.1277,-5.1004,-4.9657,-4.8876,-4.8349,-4.7159,-4.6495,-4.6339,-4.6302,-4.6319,-4.6319,-4.6319,-4.671,-4.7274,-4.6696,-4.675,-4.7614,-4.7223,-4.7291,-4.8094,-4.9009,-4.924,-4.8682,-4.824,-4.7875,-4.7605,-4.699,-4.6259,-4.5778,-4.5594,-4.5594,-4.5594,-4.5594,-4.5594,-4.5594,-4.5594,-4.5594,-4.5306,-4.3942,-4.3475,-4.3419,-4.1769,-4.0792,-4.1031,-3.9333,-3.8131,-3.7384,-3.6077,-3.5307,-3.5218,-3.5182,-3.5182,-3.5149,-3.5009,-3.4936,-3.4728,-3.4011,-3.3197,-3.2393,-3.1563,-3.0671,-3.0233,-3.0025,-2.9782,-2.9903,-2.9935,-2.9909,-2.9876,-2.9555,-2.9405,-2.9352,-2.9133,-2.9083,-2.9352,-3.0203,-3.1103,-3.1525,-3.2302,-3.2931,-3.3078,-3.3476,-3.3807,-3.3752,-3.2999,-3.2583,-3.2491,-3.199,-3.1397,-3.1256,-3.1225,-3.1268,-3.109,-3.1242,-3.1508,-3.1269,-3.1175,-3.1013,-3.0828,-3.0526,-3.0305,-2.9454,-2.8613,-2.8396,-2.8049,-2.7684,-2.7324,-2.6891,-2.6758,-2.6792,-2.6758,-2.6708,-2.6708,-2.6708,-2.6708,-2.6708,-5.116,-5.0748,-5.0223,-4.954,-4.872,-4.7861,-4.7256,-4.6866,-4.6456,-4.6534,-4.6846,-4.6905,-4.7373,-4.8094,-4.764,-4.7905,-4.8409,-4.8412,-4.8395,-4.8912,-4.9586,-4.999,-4.9952,-4.9471,-4.9009,-4.8163,-4.7259,-4.6451,-4.5806,-4.5614,-4.5594,-4.5594,-4.5594,-4.5594,-4.5594,-4.5594,-4.5594,-4.5383,-4.4374,-4.3895,-4.3859,-4.2302,-4.0938,-4.0918,-3.9442,-3.8346,-3.775,-3.6591,-3.5744,-3.5348,-3.5218,-3.5182,-3.5182,-3.5117,-3.5046,-3.4886,-3.4046,-3.3167,-3.2381,-3.1403,-3.0499,-2.98,-2.9662,-2.9608,-2.9589,-2.9475,-2.9504,-2.9542,-2.9453,-2.9259,-2.916,-2.9149,-2.9259,-2.9783,-3.0354,-3.1005,-3.1605,-3.2501,-3.3164,-3.3206,-3.3587,-3.3495,-3.3201,-3.2614,-3.1843,-3.1421,-3.1201,-3.0668,-3.1109,-3.1188,-3.1885,-3.194,-3.1959,-3.1897,-3.1594,-3.1482,-3.1485,-3.1427,-3.141,-3.1306,-3.0971,-3.008,-2.9237,-2.8645,-2.7957,-2.7494,-2.7117,-2.6989,-2.6858,-2.6741,-2.6708,-2.6725,-2.6708,-2.6708,-2.6708,-5.1082,-5.0358,-5.1102,-5.0477,-4.9111,-4.8662,-4.8135,-4.7508,-4.6827,-4.6963,-4.7528,-4.7684,-4.8213,-4.8818,-4.8738,-4.8772,-4.906,-4.9522,-4.973,-4.9765,-5.0286,-5.0538,-5.0539,-5.0337,-4.9586,-4.8182,-4.75,-4.6701,-4.6047,-4.5652,-4.5594,-4.5594,-4.5594,-4.5594,-4.5594,-4.5594,-4.5594,-4.546,-4.4682,-4.4374,-4.4201,-4.2769,-4.1404,-4.0538,-3.9677,-3.8839,-3.8097,-3.7118,-3.6181,-3.5541,-3.531,-3.5209,-3.5182,-3.5182,-3.5182,-3.5163,-3.421,-3.3384,-3.2599,-3.161,-3.0692,-3.0043,-2.9803,-2.9725,-2.9697,-2.9689,-2.9689,-2.9698,-2.9644,-2.9523,-2.9345,-2.9272,-2.967,-3.025,-3.0388,-3.0944,-3.1918,-3.3124,-3.3696,-3.3495,-3.355,-3.3532,-3.2816,-3.21,-3.1182,-3.0411,-3.021,-3.0155,-3.0577,-3.087,-3.1311,-3.1317,-3.0999,-3.0858,-3.0607,-3.0587,-3.0737,-3.1005,-3.1313,-3.1305,-3.1286,-3.0223,-2.9043,-2.8707,-2.8148,-2.7694,-2.7413,-2.7322,-2.7149,-2.6891,-2.6791,-2.6841,-2.6791,-2.6725,-2.6708,-5.198,-5.1199,-5.1336,-5.0809,-4.9733,-4.8426,-4.782,-4.7606,-4.743,-4.745,-4.7742,-4.831,-4.907,-4.956,-4.9091,-4.9162,-4.9788,-5.0337,-5.0635,-5.0542,-5.0792,-5.0799,-5.0721,-5.0519,-4.9711,-4.8509,-4.7836,-4.7355,-4.6509,-4.599,-4.5729,-4.5633,-4.5594,-4.5594,-4.5594,-4.5594,-4.5594,-4.5518,-4.4855,-4.4739,-4.4643,-4.3239,-4.1566,-4.0719,-3.9935,-3.9323,-3.8704,-3.7486,-3.6519,-3.6334,-3.5635,-3.5286,-3.519,-3.519,-3.519,-3.4983,-3.4271,-3.3385,-3.2687,-3.1833,-3.1001,-3.039,-3.0079,-3.0072,-3.0042,-2.9964,-2.9959,-3.0083,-3.001,-2.9764,-2.9345,-2.9617,-2.972,-3.0309,-3.1154,-3.1864,-3.2757,-3.3543,-3.3894,-3.3322,-3.3453,-3.3461,-3.2586,-3.1746,-3.0962,-3.0265,-2.9886,-2.9757,-2.9922,-2.9941,-2.9971,-2.9794,-2.9427,-2.939,-2.9305,-2.9375,-2.9515,-2.9783,-2.9996,-2.9977,-2.9806,-2.93,-2.8677,-2.8612,-2.8371,-2.7993,-2.7768,-2.7639,-2.74,-2.7117,-2.7053,-2.7021,-2.6841,-2.6708,-2.6708,-5.1102,-5.0729,-5.0709,-5.0494,-4.9928,-4.8777,-4.8213,-4.8152,-4.7801,-4.8094,-4.8796,-4.9323,-4.9948,-5.0477,-5.0399,-5.0352,-5.0603,-5.0888,-5.105,-5.0966,-5.0913,-5.0882,-5.0687,-5.0345,-4.9962,-4.924,-4.8606,-4.7451,-4.6355,-4.6336,-4.597,-4.5652,-4.5594,-4.5594,-4.5594,-4.5594,-4.5594,-4.5479,-4.521,-4.5133,-4.546,-4.3778,-4.2566,-4.1346,-4.0704,-4.0122,-3.9127,-3.855,-3.7436,-3.6711,-3.617,-3.5714,-3.5399,-3.525,-3.5215,-3.4999,-3.4101,-3.3234,-3.2546,-3.163,-3.0605,-3.0319,-3.0242,-3.0204,-3.0197,-3.0147,-3.0334,-3.0669,-3.0829,-3.0799,-3.0951,-3.0828,-3.1259,-3.1863,-3.2366,-3.2876,-3.3575,-3.4128,-3.388,-3.3413,-3.3715,-3.3494,-3.2311,-3.1525,-3.0778,-3.0191,-2.9666,-2.95,-2.9427,-2.9537,-2.9567,-2.9622,-2.9482,-2.917,-2.9152,-2.913,-2.9089,-2.9168,-2.9234,-2.9198,-2.9156,-2.901,-2.8949,-2.8899,-2.8582,-2.8233,-2.8047,-2.7897,-2.7607,-2.7369,-2.7276,-2.7133,-2.6858,-2.6708,-2.6725,-5.0163,-4.985,-5.0026,-5.0104,-4.9967,-4.915,-4.8896,-4.8896,-4.8426,-4.8855,-4.9987,-5.0299,-5.0729,-5.1219,-5.1351,-5.1294,-5.1245,-5.1245,-5.1159,-5.1067,-5.1004,-5.097,-5.067,-5.0287,-4.994,-4.9833,-4.9115,-4.7567,-4.6721,-4.6624,-4.6317,-4.5817,-4.5594,-4.5594,-4.5594,-4.5594,-4.5594,-4.5594,-4.5594,-4.5575,-4.521,-4.4633,-4.3508,-4.2,-4.1745,-4.0949,-3.97,-3.9122,-3.8254,-3.7287,-3.66,-3.6171,-3.548,-3.5316,-3.5266,-3.5004,-3.3899,-3.331,-3.2699,-3.2076,-3.1377,-3.1045,-3.0796,-3.0758,-3.0796,-3.1011,-3.1057,-3.1534,-3.1699,-3.1802,-3.2027,-3.2312,-3.2674,-3.3157,-3.3324,-3.3623,-3.426,-3.4653,-3.4695,-3.4439,-3.4365,-3.3436,-3.2173,-3.1156,-3.0387,-2.9812,-2.9317,-2.9409,-2.939,-2.9794,-2.9934,-3.0081,-2.9953,-2.9445,-2.9317,-2.9354,-2.9318,-2.93,-2.9318,-2.9313,-2.9283,-2.9216,-2.9125,-2.8956,-2.8815,-2.8487,-2.8321,-2.8183,-2.7992,-2.7783,-2.7535,-2.7258,-2.7037,-2.6874,-2.6858,-5.036,-4.9013,-4.9772,-5.0104,-4.9987,-4.9208,-4.9267,-4.985,-4.9714,-4.987,-5.0241,-5.0848,-5.1258,-5.1375,-5.1394,-5.139,-5.1384,-5.1357,-5.1232,-5.1031,-5.1074,-5.1039,-5.0939,-5.0862,-5.0233,-4.9996,-4.9427,-4.875,-4.7785,-4.7199,-4.6509,-4.5864,-4.5652,-4.5594,-4.5594,-4.5594,-4.5594,-4.5594,-4.5594,-4.5267,-4.4701,-4.4451,-4.3489,-4.2404,-4.1808,-4.1415,-4.0358,-3.9653,-3.8658,-3.7786,-3.6949,-3.6217,-3.548,-3.5308,-3.53,-3.5258,-3.4971,-3.4579,-3.3861,-3.3192,-3.2707,-3.2183,-3.2164,-3.2336,-3.2145,-3.2126,-3.2203,-3.247,-3.2565,-3.2626,-3.2721,-3.2574,-3.2817,-3.3299,-3.3772,-3.4112,-3.4661,-3.4942,-3.4996,-3.4578,-3.4218,-3.3138,-3.1908,-3.0929,-3.0026,-2.9464,-2.9078,-2.9189,-2.9317,-2.9629,-2.9776,-2.9806,-2.9806,-2.9354,-2.9225,-2.9299,-2.9335,-2.9335,-2.9324,-2.9324,-2.9239,-2.9142,-2.9021,-2.887,-2.8785,-2.8761,-2.8639,-2.8507,-2.8386,-2.8156,-2.7851,-2.7547,-2.7244,-2.7116,-2.7019,-4.993,-4.8837,-4.9208,-4.9655,-5.0026,-4.9675,-4.9733,-5.0046,-5.0104,-5.0377,-5.0828,-5.118,-5.1394,-5.1394,-5.1394,-5.1394,-5.1394,-5.1394,-5.1054,-5.0865,-5.0952,-5.0929,-5.0447,-5.0355,-5.0119,-5.0151,-4.9489,-4.9114,-4.8488,-4.7615,-4.6644,-4.6345,-4.5845,-4.5594,-4.5594,-4.5594,-4.5594,-4.5594,-4.5575,-4.5402,-4.5133,-4.494,-4.4432,-4.322,-4.2739,-4.2047,-4.1143,-3.9885,-3.8889,-3.8004,-3.7117,-3.6303,-3.5636,-3.5391,-3.5357,-3.5357,-3.5293,-3.4814,-3.4064,-3.3601,-3.3223,-3.2909,-3.2737,-3.2623,-3.268,-3.2776,-3.3024,-3.3414,-3.3433,-3.3546,-3.384,-3.3976,-3.4105,-3.4307,-3.4317,-3.4461,-3.4831,-3.505,-3.5107,-3.4595,-3.396,-3.2825,-3.1767,-3.0895,-3.0032,-2.9402,-2.9104,-2.9118,-2.9131,-2.9189,-2.9244,-2.917,-2.917,-2.9078,-2.906,-2.9097,-2.9133,-2.9133,-2.9133,-2.9122,-2.9055,-2.8959,-2.8917,-2.8917,-2.8905,-2.8893,-2.8893,-2.8755,-2.8563,-2.836,-2.817,-2.7798,-2.7442,-2.7357,-2.718,-4.9714,-4.9111,-4.8896,-4.9284,-5.0085,-5.0104,-5.0221,-5.0436,-5.0455,-5.0789,-5.1238,-5.1394,-5.1394,-5.1394,-5.1394,-5.1394,-5.1394,-5.1394,-5.1023,-5.0813,-5.0851,-5.0869,-5.0626,-5.0378,-5.0417,-5.0698,-4.9223,-4.8862,-4.86,-4.7743,-4.6661,-4.6868,-4.5997,-4.5661,-4.5594,-4.5594,-4.5594,-4.5594,-4.5594,-4.5556,-4.5518,-4.5537,-4.5037,-4.4259,-4.3508,-4.2701,-4.172,-4.0469,-3.9258,-3.8046,-3.7481,-3.6666,-3.5717,-3.5427,-3.542,-3.5412,-3.5357,-3.509,-3.4504,-3.4006,-3.3421,-3.331,-3.331,-3.3559,-3.3482,-3.3349,-3.3482,-3.4254,-3.4273,-3.4617,-3.4991,-3.5078,-3.4977,-3.495,-3.5043,-3.5043,-3.5028,-3.5151,-3.495,-3.4305,-3.3569,-3.2608,-3.1628,-3.0843,-3.0093,-2.9391,-2.9138,-2.9104,-2.9137,-2.9152,-2.912,-2.915,-2.9065,-2.9053,-2.9023,-2.9023,-2.9005,-2.8987,-2.8987,-2.8987,-2.8975,-2.8975,-2.8964,-2.8975,-2.8987,-2.8975,-2.894,-2.8834,-2.8737,-2.8563,-2.8355,-2.7969,-2.7677,-2.7504,-2.6966,-5.0085,-4.9948,-4.9169,-4.9364,-5.0163,-5.0104,-5.0573,-5.118,-5.1238,-5.1238,-5.1258,-5.1394,-5.1375,-5.1316,-5.1258,-5.1297,-5.1394,-5.1394,-5.116,-5.1139,-5.1332,-5.1206,-5.0974,-5.0803,-5.0689,-5.0131,-4.924,-4.8837,-4.8341,-4.7575,-4.6907,-4.6851,-4.6395,-4.5866,-4.562,-4.5643,-4.562,-4.5603,-4.5594,-4.5594,-4.5594,-4.5537,-4.519,-4.4412,-4.3566,-4.2701,-4.1854,-4.0816,-3.9554,-3.8123,-3.7661,-3.6911,-3.5769,-3.5512,-3.5467,-3.546,-3.542,-3.523,-3.4944,-3.4879,-3.4993,-3.4988,-3.4857,-3.4647,-3.4571,-3.4838,-3.5057,-3.4942,-3.4866,-3.498,-3.5144,-3.5182,-3.5182,-3.5182,-3.5144,-3.5013,-3.499,-3.5113,-3.4835,-3.4069,-3.325,-3.2381,-3.1522,-3.0758,-3.019,-2.95,-2.9412,-2.9382,-2.953,-2.9532,-2.9418,-2.9343,-2.9209,-2.915,-2.9078,-2.906,-2.9005,-2.8987,-2.8987,-2.8987,-2.8987,-2.8987,-2.8987,-2.8987,-2.8987,-2.8987,-2.8975,-2.8881,-2.8798,-2.8761,-2.8565,-2.8234,-2.7446,-2.6861,-2.6179,-5.0906,-5.0867,-5.0535,-5.0594,-5.0906,-5.0906,-5.1102,-5.1355,-5.1394,-5.1063,-5.069,-5.1121,-5.1102,-5.0748,-5.0651,-5.0926,-5.1238,-5.0789,-5.0709,-5.0828,-5.1023,-5.1043,-5.0954,-5.1065,-5.1093,-5.0597,-4.991,-4.9845,-5.0141,-4.8242,-4.8344,-4.8238,-4.7223,-4.6364,-4.5996,-4.5769,-4.5692,-4.562,-4.5603,-4.5594,-4.5594,-4.5594,-4.5441,-4.5105,-4.4259,-4.3451,-4.2547,-4.12,-3.9681,-3.8354,-3.7565,-3.6596,-3.575,-3.5538,-3.55,-3.55,-3.546,-3.542,-3.5357,-3.5324,-3.5269,-3.5218,-3.5163,-3.5182,-3.519,-3.5182,-3.5182,-3.5163,-3.5182,-3.5182,-3.5182,-3.5182,-3.5182,-3.5182,-3.5106,-3.4961,-3.4904,-3.4991,-3.4456,-3.3589,-3.3027,-3.2397,-3.1524,-3.0662,-3.0156,-2.9653,-2.9664,-2.9692,-2.9783,-2.9907,-2.9774,-2.9706,-2.9621,-2.9532,-2.948,-2.9287,-2.9017,-2.8998,-2.901,-2.8987,-2.8987,-2.8987,-2.8987,-2.8987,-2.8987,-2.8987,-2.8964,-2.8923,-2.8876,-2.8834,-2.8743,-2.8572,-2.7602,-2.6384,-2.5637,-5.1394,-5.1394,-5.1394,-5.1394,-5.1394,-5.1394,-5.1394,-5.1394,-5.1394,-5.1082,-5.0514,-5.0906,-5.0709,-5.0221,-5.0143,-5.0377,-5.0709,-5.0455,-5.0397,-5.067,-5.1063,-5.0984,-5.0887,-5.0924,-5.1154,-5.0965,-5.0494,-5.0295,-4.9723,-4.9112,-4.8785,-4.8548,-4.8265,-4.7265,-4.6435,-4.5962,-4.5794,-4.5715,-4.5676,-4.566,-4.566,-4.562,-4.5594,-4.5325,-4.4412,-4.3624,-4.2547,-4.117,-3.945,-3.82,-3.7231,-3.6385,-3.5808,-3.55,-3.55,-3.55,-3.5481,-3.5467,-3.5398,-3.5327,-3.5285,-3.5234,-3.5234,-3.5226,-3.5209,-3.5182,-3.5182,-3.5182,-3.5182,-3.5182,-3.5182,-3.5182,-3.5182,-3.5182,-3.5182,-3.5057,-3.4808,-3.4713,-3.3883,-3.3054,-3.2546,-3.2012,-3.1508,-3.0722,-3.0559,-3.007,-2.9823,-2.9864,-2.9953,-3.0067,-3.0148,-3.0107,-3.0114,-3.0057,-2.9987,-2.9536,-2.916,-2.9104,-2.9093,-2.8998,-2.8987,-2.8998,-2.8998,-2.8987,-2.8987,-2.8987,-2.8964,-2.8959,-2.8917,-2.8893,-2.8457,-2.7791,-2.7319,-2.6134,-2.5488,-5.1394,-5.1394,-5.1394,-5.1394,-5.1394,-5.1394,-5.1394,-5.1375,-5.1297,-5.1121,-5.077,-5.0379,-5.0046,-4.9909,-4.9792,-5.0085,-5.028,-5.0221,-5.0475,-5.1121,-5.1277,-5.1316,-5.1316,-5.1297,-5.1141,-5.0338,-5.0202,-4.9714,-4.8426,-4.8886,-4.8691,-4.8437,-4.8457,-4.8009,-4.713,-4.6313,-4.5933,-4.5892,-4.5835,-4.5794,-4.5778,-4.5692,-4.5646,-4.531,-4.4286,-4.3489,-4.2701,-4.0977,-3.9323,-3.8104,-3.7353,-3.65,-3.5654,-3.5635,-3.5615,-3.5519,-3.55,-3.5467,-3.5386,-3.533,-3.5312,-3.5293,-3.5266,-3.5258,-3.5226,-3.5209,-3.5198,-3.5215,-3.5218,-3.5209,-3.5209,-3.5182,-3.5182,-3.5182,-3.5182,-3.4999,-3.4713,-3.4713,-3.3998,-3.3158,-3.2164,-3.1389,-3.1102,-3.0815,-3.0846,-3.0563,-3.0121,-3.0046,-3.0221,-3.0416,-3.0601,-3.0735,-3.0734,-3.0346,-3.0172,-2.9653,-2.9312,-2.9249,-2.9206,-2.9171,-2.9082,-2.906,-2.9048,-2.901,-2.8987,-2.8987,-2.8987,-2.8987,-2.8854,-2.8526,-2.7255,-2.6552,-2.6236,-2.5883,-2.5153,-5.1394,-5.1394,-5.1394,-5.1394,-5.1394,-5.1394,-5.1394,-5.1297,-5.0768,-4.9928,-4.913,-4.9013,-4.8876,-4.874,-4.9111,-4.956,-5.0026,-5.0124,-5.0573,-5.1316,-5.1394,-5.1394,-5.1394,-5.1355,-5.1219,-5.1043,-5.0867,-5.0709,-5.0321,-4.9792,-4.9538,-4.9382,-4.8619,-4.8237,-4.7334,-4.6519,-4.5996,-4.591,-4.5881,-4.5858,-4.5846,-4.5768,-4.5704,-4.5638,-4.4471,-4.3643,-4.3066,-4.1073,-3.9515,-3.8354,-3.768,-3.6892,-3.5981,-3.5865,-3.5981,-3.5673,-3.55,-3.5493,-3.546,-3.5446,-3.5391,-3.5354,-3.5304,-3.5304,-3.527,-3.527,-3.527,-3.5254,-3.5258,-3.5269,-3.5269,-3.5218,-3.5209,-3.5182,-3.5087,-3.4751,-3.456,-3.4808,-3.4541,-3.3559,-3.2585,-3.2432,-3.2172,-3.1656,-3.1522,-3.1255,-3.086,-3.0719,-3.0818,-3.1058,-3.1284,-3.1443,-3.1401,-3.0856,-3.0368,-2.9833,-2.9523,-2.9484,-2.9445,-2.9395,-2.9314,-2.9195,-2.9115,-2.9078,-2.9033,-2.8987,-2.8932,-2.8822,-2.8583,-2.801,-2.6666,-2.6056,-2.6125,-2.5563,-2.4657,-5.1394,-5.1394,-5.1394,-5.1394,-5.1394,-5.1394,-5.1258,-5.0789,-4.9753,-4.8718,-4.8252,-4.8349,-4.8152,-4.7996,-4.8447,-4.8974,-4.9675,-5.0007,-5.0573,-5.1297,-5.1394,-5.1394,-5.1394,-5.1375,-5.1355,-5.1375,-5.1336,-5.1199,-5.0612,-5.0299,-4.9636,-4.8972,-4.8679,-4.7806,-4.7117,-4.6635,-4.645,-4.6224,-4.5987,-4.5889,-4.5863,-4.5809,-4.5712,-4.546,-4.4807,-4.4047,-4.3104,-4.1708,-4.0015,-3.9008,-3.8161,-3.7392,-3.6538,-3.6231,-3.6288,-3.575,-3.55,-3.55,-3.55,-3.55,-3.5446,-3.5398,-3.5357,-3.5342,-3.5315,-3.53,-3.53,-3.5293,-3.5304,-3.5316,-3.53,-3.525,-3.5245,-3.5226,-3.5095,-3.4759,-3.477,-3.5018,-3.4827,-3.3864,-3.3394,-3.3329,-3.3196,-3.2756,-3.2317,-3.1973,-3.163,-3.1446,-3.1178,-3.1221,-3.1283,-3.1362,-3.1355,-3.0764,-3.0318,-3.0014,-2.9763,-2.9707,-2.9653,-2.9598,-2.9465,-2.9324,-2.9228,-2.9134,-2.9067,-2.8962,-2.8803,-2.862,-2.8033,-2.7152,-2.5957,-2.5696,-2.5983,-2.5356,-2.4439,-5.1336,-5.1336,-5.1336,-5.1297,-5.1258,-5.1023,-5.0653,-4.9889,-4.8367,-4.8035,-4.8564,-4.7723,-4.7469,-4.7705,-4.8388,-4.8837,-4.9189,-4.9852,-5.0653,-5.1199,-5.1394,-5.1394,-5.1336,-5.1277,-5.1121,-5.1219,-5.118,-5.0789,-5.0182,-4.987,-4.9089,-4.8152,-4.7918,-4.727,-4.6915,-4.6952,-4.685,-4.6393,-4.6072,-4.6005,-4.5993,-4.5776,-4.5723,-4.5418,-4.4826,-4.4344,-4.3412,-4.2035,-4.0843,-3.9842,-3.8957,-3.7777,-3.7019,-3.6712,-3.6192,-3.575,-3.55,-3.55,-3.55,-3.55,-3.55,-3.546,-3.542,-3.5372,-3.5357,-3.5357,-3.5357,-3.535,-3.5342,-3.5315,-3.53,-3.5289,-3.5296,-3.5261,-3.5226,-3.5122,-3.5114,-3.5048,-3.4808,-3.435,-3.3987,-3.3796,-3.3624,-3.3291,-3.247,-3.205,-3.158,-3.1102,-3.0835,-3.0567,-3.0598,-3.0572,-3.0555,-3.0405,-3.0117,-3.0029,-2.9986,-2.9913,-2.9803,-2.9734,-2.9608,-2.9494,-2.9385,-2.927,-2.9112,-2.8984,-2.887,-2.8124,-2.7115,-2.6216,-2.5611,-2.5142,-2.5358,-2.5204,-2.4543,-5.0106,-4.9618,-5.0223,-5.0106,-4.9501,-4.8933,-4.8543,-4.823,-4.7723,-4.749,-4.6983,-4.6788,-4.6768,-4.6788,-4.8135,-4.8642,-4.9325,-5.0184,-5.0945,-5.1297,-5.1199,-5.1336,-5.116,-5.0809,-5.0592,-5.0475,-5.0416,-5.0299,-4.9987,-4.9597,-4.8718,-4.7781,-4.7489,-4.6963,-4.6866,-4.7137,-4.6827,-4.6507,-4.6198,-4.6141,-4.6084,-4.5903,-4.5821,-4.5544,-4.4928,-4.4534,-4.3904,-4.2598,-4.1436,-4.0446,-3.9554,-3.8354,-3.6827,-3.6673,-3.6346,-3.5635,-3.55,-3.55,-3.55,-3.55,-3.55,-3.55,-3.5467,-3.5486,-3.5453,-3.5439,-3.5439,-3.5412,-3.5379,-3.5372,-3.533,-3.532,-3.5319,-3.5277,-3.5234,-3.519,-3.5182,-3.5125,-3.4904,-3.477,-3.4426,-3.3995,-3.3834,-3.3089,-3.2317,-3.1916,-3.1458,-3.0949,-3.0593,-3.0319,-3.0204,-3.0204,-3.0204,-3.0204,-3.0204,-3.0132,-3.0132,-3.0106,-3.0003,-2.9905,-2.983,-2.9707,-2.958,-2.9395,-2.9214,-2.9089,-2.8968,-2.8033,-2.6906,-2.6429,-2.5831,-2.5181,-2.4685,-2.4649,-2.4575,-4.9267,-4.8857,-4.8993,-4.8601,-4.7861,-4.7666,-4.7451,-4.7159,-4.71,-4.6749,-4.6341,-4.6321,-4.6302,-4.6534,-4.7647,-4.831,-4.8408,-4.9442,-5.0184,-5.0223,-5.075,-5.0496,-5.026,-5.0182,-4.9967,-4.9753,-4.9577,-4.954,-4.9403,-4.8759,-4.7881,-4.71,-4.71,-4.6807,-4.6593,-4.671,-4.671,-4.645,-4.6243,-4.6238,-4.6141,-4.6013,-4.593,-4.5781,-4.5117,-4.4972,-4.4742,-4.3388,-4.2463,-4.1458,-4.0583,-3.8977,-3.7353,-3.6692,-3.6154,-3.5519,-3.55,-3.55,-3.55,-3.55,-3.55,-3.55,-3.55,-3.55,-3.55,-3.5474,-3.5474,-3.5467,-3.5434,-3.542,-3.5372,-3.5335,-3.5324,-3.5304,-3.5261,-3.519,-3.5182,-3.5182,-3.5114,-3.5037,-3.4674,-3.4186,-3.3586,-3.2802,-3.2107,-3.1649,-3.1171,-3.0663,-3.0414,-3.028,-3.0204,-3.0204,-3.0204,-3.0204,-3.0204,-3.0204,-3.019,-3.0183,-3.0161,-3.0076,-3.0019,-2.9888,-2.9707,-2.9504,-2.9262,-2.9185,-2.9119,-2.7949,-2.6906,-2.6458,-2.5825,-2.4915,-2.4475,-2.4465,-2.4392,-4.8662,-4.8486,-4.7803,-4.7061,-4.6397,-4.7061,-4.6983,-4.6261,-4.6319,-4.6302,-4.6282,-4.6184,-4.6085,-4.6202,-4.7061,-4.7469,-4.7842,-4.8642,-4.9267,-4.8857,-4.9657,-4.9694,-4.9501,-4.9423,-4.913,-4.8837,-4.874,-4.8818,-4.8642,-4.8154,-4.7412,-4.6397,-4.6397,-4.6261,-4.6105,-4.6124,-4.6085,-4.6003,-4.5926,-4.5925,-4.6073,-4.6009,-4.5915,-4.592,-4.5816,-4.5781,-4.559,-4.4936,-4.406,-4.284,-4.1324,-3.9492,-3.7646,-3.6445,-3.5746,-3.554,-3.5515,-3.5501,-3.5494,-3.55,-3.55,-3.55,-3.55,-3.55,-3.55,-3.55,-3.55,-3.55,-3.5467,-3.546,-3.5412,-3.5364,-3.5354,-3.5316,-3.5285,-3.5242,-3.5226,-3.5218,-3.5163,-3.4999,-3.456,-3.409,-3.3784,-3.3032,-3.2126,-3.1515,-3.1121,-3.0643,-3.03,-3.0261,-3.0261,-3.0242,-3.0204,-3.0204,-3.0204,-3.0204,-3.0204,-3.0204,-3.0204,-3.0197,-3.0121,-2.9996,-2.982,-2.9644,-2.9465,-2.9375,-2.9099,-2.7941,-2.6999,-2.6514,-2.5758,-2.4632,-2.4246,-2.4319,-2.43,-4.749,-4.6885,-4.669,-4.6124,-4.548,-4.6241,-4.6124,-4.5402,-4.6046,-4.6302,-4.6184,-4.5675,-4.5304,-4.546,-4.6222,-4.6593,-4.6807,-4.7647,-4.8603,-4.8642,-4.8954,-4.8896,-4.8642,-4.8466,-4.8193,-4.7996,-4.7957,-4.8096,-4.8115,-4.7762,-4.745,-4.712,-4.6573,-4.5851,-4.548,-4.546,-4.546,-4.5634,-4.5605,-4.5848,-4.6172,-4.6135,-4.6072,-4.6033,-4.5996,-4.5935,-4.5657,-4.5107,-4.3799,-4.2385,-4.0673,-3.8598,-3.6308,-3.5838,-3.5585,-3.5528,-3.5572,-3.5547,-3.5534,-3.5515,-3.5515,-3.5508,-3.5501,-3.5488,-3.55,-3.55,-3.5488,-3.5488,-3.5481,-3.5474,-3.5441,-3.5412,-3.5364,-3.5335,-3.5312,-3.5308,-3.5285,-3.5226,-3.519,-3.4846,-3.4407,-3.4071,-3.3804,-3.3165,-3.2267,-3.1771,-3.1522,-3.1102,-3.0567,-3.0364,-3.0357,-3.0338,-3.0223,-3.0204,-3.0204,-3.0204,-3.0204,-3.0204,-3.0204,-3.0204,-3.0204,-3.0064,-2.9921,-2.983,-2.9708,-2.9523,-2.9017,-2.7997,-2.7167,-2.6553,-2.5699,-2.457,-2.4257,-2.4284,-2.4255,-4.6749,-4.6319,-4.6302,-4.5812,-4.5246,-4.5929,-4.6007,-4.5734,-4.6085,-4.6302,-4.6262,-4.5773,-4.5187,-4.4719,-4.5324,-4.5402,-4.55,-4.6475,-4.6749,-4.7081,-4.7939,-4.79,-4.7725,-4.7608,-4.7373,-4.7178,-4.7042,-4.7139,-4.7159,-4.6749,-4.6319,-4.6358,-4.5656,-4.5187,-4.4894,-4.5012,-4.5207,-4.5597,-4.548,-4.5812,-4.628,-4.6238,-4.6181,-4.6147,-4.6131,-4.6064,-4.5932,-4.5394,-4.41,-4.1978,-3.9794,-3.8204,-3.6542,-3.5955,-3.5669,-3.5623,-3.562,-3.5611,-3.5577,-3.5568,-3.5581,-3.5575,-3.5593,-3.5602,-3.5593,-3.5588,-3.5547,-3.5534,-3.5494,-3.5474,-3.5449,-3.5409,-3.5374,-3.5345,-3.5374,-3.5395,-3.532,-3.5253,-3.5209,-3.5068,-3.4598,-3.4071,-3.3719,-3.3223,-3.2451,-3.2183,-3.1923,-3.1809,-3.1255,-3.0536,-3.051,-3.0414,-3.03,-3.0223,-3.0204,-3.0204,-3.0204,-3.0204,-3.0204,-3.0204,-3.0197,-3.0121,-3.0026,-2.9964,-2.9804,-2.9485,-2.8858,-2.8068,-2.7073,-2.6298,-2.5452,-2.4513,-2.4393,-2.4303,-2.4275,-4.6202,-4.6282,-4.6302,-4.5792,-4.5187,-4.5929,-4.6184,-4.6105,-4.6243,-4.6204,-4.6105,-4.6184,-4.5228,-4.4465,-4.4367,-4.4036,-4.4328,-4.5578,-4.5519,-4.5734,-4.6827,-4.7002,-4.7061,-4.6983,-4.6671,-4.6261,-4.5929,-4.548,-4.5129,-4.4992,-4.4953,-4.4719,-4.4484,-4.4211,-4.468,-4.5051,-4.5246,-4.5617,-4.5792,-4.6066,-4.6223,-4.6302,-4.6277,-4.6278,-4.6282,-4.6243,-4.6132,-4.5509,-4.4325,-4.1958,-3.9139,-3.7701,-3.6756,-3.6145,-3.5829,-3.57,-3.5713,-3.5713,-3.5676,-3.5678,-3.5687,-3.57,-3.5717,-3.5698,-3.5693,-3.5674,-3.5634,-3.5599,-3.5547,-3.5515,-3.5489,-3.547,-3.5438,-3.5386,-3.5451,-3.547,-3.5355,-3.5273,-3.5231,-3.5215,-3.4813,-3.4247,-3.3888,-3.3364,-3.3051,-3.2783,-3.2516,-3.2374,-3.205,-3.1236,-3.0758,-3.0567,-3.0338,-3.028,-3.0223,-3.0204,-3.0204,-3.0204,-3.0204,-3.0204,-3.0197,-3.0142,-3.0128,-3.0135,-2.9935,-2.9679,-2.9139,-2.8414,-2.7355,-2.6344,-2.5737,-2.5094,-2.4545,-2.4444,-2.4356,-4.5675,-4.6302,-4.6302,-4.5792,-4.5207,-4.5929,-4.5909,-4.5441,-4.6027,-4.5929,-4.5656,-4.5909,-4.5343,-4.3725,-4.3803,-4.3626,-4.3509,-4.4797,-4.5265,-4.5382,-4.6105,-4.628,-4.628,-4.6144,-4.5909,-4.5343,-4.468,-4.4153,-4.3957,-4.3938,-4.3938,-4.3879,-4.466,-4.4406,-4.3997,-4.4484,-4.5168,-4.5519,-4.5636,-4.5753,-4.6204,-4.6282,-4.6302,-4.6302,-4.6302,-4.5851,-4.532,-4.4516,-4.3109,-4.1085,-3.8931,-3.7653,-3.704,-3.657,-3.6103,-3.5933,-3.5927,-3.5804,-3.5774,-3.576,-3.576,-3.5737,-3.5737,-3.5753,-3.5749,-3.5745,-3.5704,-3.5704,-3.5684,-3.567,-3.5655,-3.5655,-3.5616,-3.5581,-3.5586,-3.551,-3.5406,-3.5357,-3.5311,-3.5296,-3.5193,-3.4948,-3.4875,-3.4477,-3.4236,-3.3884,-3.3379,-3.3131,-3.2263,-3.1625,-3.0983,-3.0753,-3.0473,-3.028,-3.0204,-3.0204,-3.0204,-3.0204,-3.0204,-3.0204,-3.0204,-3.0204,-3.0204,-3.0197,-3.0178,-3.0013,-2.9386,-2.8548,-2.7872,-2.6941,-2.6408,-2.5796,-2.5069,-2.4578,-2.4469]},{"header":{"parameterUnit":"m.s-1","parameterCategory":1,"la1":31.0,"la2":29.5877,"lo1":-88.7671,"lo2":-86.6584,"dy":0.0162,"dx":0.0185,"nx":115,"ny":88,"refTime":"2023-07-17T06:00:00:Z","depth":0,"parameterNumber":3,"parameterNumberName":"V-component_of_WINDS"},"data":[0.0,0.0,0.0,0.0,0.0,0.0,0.0,0.0,0.0,0.0,0.0,0.0,0.0,0.0,0.0,0.0,0.0,0.0,0.0,0.0,0.0,0.0,0.0,0.0,0.0,0.0,0.0,0.0,0.0,0.0,0.0,0.0,0.0,0.0,0.0,0.0,0.0,0.0,0.0,0.0,0.0,0.0,0.0,0.0,0.0,0.0,0.0,0.0,0.0,0.0,0.0,0.0,0.0,0.0,0.0,0.0,0.0,0.0,0.0,0.0,0.0,0.0,0.0,0.0,0.0,0.0,0.0,0.0,0.0,0.0,0.0,0.0,0.0,0.0,0.0,0.0,0.0,0.0,0.0,0.0,0.0,0.0,0.0,0.0,0.0,0.0,0.0,0.0,0.0,0.0,0.0,0.0,0.0,0.0,0.0,0.0,0.0,0.0,0.0,0.0,0.0,0.0,0.0,0.0,0.0,0.0,0.0,0.0,0.0,0.0,0.0,0.0,0.0,0.0,0.0,0.0,0.0,0.0,0.0,0.0,0.0,0.0,0.0,0.0,0.0,0.0,0.0,0.0,0.0,0.0,0.0,0.0,0.0,0.0,0.0,0.0,0.0,0.0,0.0,0.0,0.0,0.0,0.0,0.0,0.0,0.0,0.0,0.0,0.0,0.0,0.0,0.0,0.0,0.0,0.0,0.0,0.0,0.0,0.0,0.0,0.0,0.0,0.0,0.0,0.0,0.0,0.0,0.0,0.0,0.0,0.0,0.0,0.0,0.0,0.0,0.0,0.0,0.0,0.0,0.0,0.0,0.0,0.0,0.0,0.0,0.0,0.0,0.0,0.0,0.0,0.0,0.0,0.0,0.0,0.0,0.0,0.0,0.0,0.0,0.0,0.0,0.0,0.0,0.0,0.0,0.0,0.0,0.0,0.0,0.0,0.0,0.0,0.0,0.0,0.0,0.0,0.0,0.0,0.0,0.0,0.0,0.0,0.0,0.0,0.0,0.0,0.0,0.0,0.0,0.0,0.0,0.0,0.0,0.0,0.0,0.0,0.0,0.0,0.0,0.0,0.0,0.0,0.0,0.0,0.0,0.0,0.0,0.0,0.0,0.0,0.0,0.0,0.0,0.0,0.0,0.0,0.0,0.0,0.0,0.0,0.0,0.0,0.0,0.0,0.0,0.0,0.0,0.0,0.0,0.0,0.0,0.0,0.0,0.0,0.0,0.0,0.0,0.0,0.0,0.0,0.0,0.0,0.0,0.0,0.0,0.0,0.0,0.0,0.0,0.0,0.0,0.0,0.0,0.0,0.0,0.0,0.0,0.0,0.0,0.0,0.0,0.0,0.0,0.0,0.0,0.0,0.0,0.0,0.0,0.0,0.0,0.0,0.0,0.0,0.0,0.0,0.0,0.0,0.0,0.0,0.0,0.0,0.0,0.0,0.0,0.0,0.0,0.0,0.0,0.0,0.0,0.0,0.0,0.0,0.0,0.0,0.0,0.0,0.0,0.0,0.0,0.0,0.0,0.0,0.0,0.0,0.0,0.0,0.0,0.0,0.0,0.0,0.0,0.0,0.0,0.0,0.0,0.0,0.0,0.0,0.0,0.0,0.0,0.0,0.0,0.0,0.0,0.0,0.0,0.0,0.0,0.0,0.0,0.0,0.0,0.0,0.0,0.0,0.0,0.0,0.0,0.0,0.0,0.0,0.0,0.0,0.0,0.0,0.0,0.0,0.0,0.0,0.0,0.0,0.0,0.0,0.0,0.0,0.0,0.0,0.0,0.0,0.0,0.0,0.0,0.0,0.0,0.0,0.0,0.0,0.0,0.0,0.0,0.0,0.0,0.0,0.0,0.0,0.0,0.0,0.0,0.0,0.0,0.0,0.0,0.0,0.0,0.0,0.0,0.0,0.0,0.0,0.0,0.0,0.0,0.0,0.0,0.0,0.0,0.0,0.0,0.0,0.0,0.0,0.0,0.0,0.0,0.0,0.0,0.0,0.0,0.0,0.0,0.0,0.0,0.0,0.0,0.0,0.0,0.0,0.0,0.0,0.0,0.0,0.0,0.0,0.0,0.0,0.0,0.0,0.0,0.0,0.0,0.0,0.0,0.0,0.0,0.0,0.0,0.0,0.0,0.0,0.0,0.0,0.0,0.0,0.0,0.0,0.0,0.0,0.0,0.0,0.0,0.0,0.0,0.0,0.0,0.0,0.0,0.0,0.0,0.0,0.0,0.0,0.0,0.0,0.0,0.0,0.0,0.0,0.0,0.0,0.0,0.0,0.0,0.0,0.0,0.0,0.0,0.0,0.0,0.0,0.0,0.0,0.0,0.0,0.0,0.0,0.0,0.0,0.0,0.0,0.0,0.0,0.0,0.0,0.0,0.0,0.0,0.0,0.0,0.0,0.0,0.0,0.0,0.0,0.0,0.0,0.0,0.0,0.0,0.0,0.0,0.0,0.0,0.0,0.0,0.0,0.0,0.0,0.0,0.0,0.0,0.0,0.0,0.0,0.0,0.0,0.0,0.0,0.0,0.0,0.0,0.0,0.0,0.0,0.0,0.0,0.0,0.0,0.0,0.0,0.0,0.0,0.0,0.0,0.0,0.0,0.0,0.0,0.0,0.0,0.0,0.0,0.0,0.0,0.0,0.0,0.0,0.0,0.0,0.0,0.0,0.0,0.0,0.0,0.0,0.0,0.0,0.0,0.0,0.0,0.0,0.0,0.0,0.0,0.0,0.0,0.0,0.0,0.0,0.0,0.0,0.0,0.0,0.0,0.0,0.0,0.0,0.0,0.0,0.0,0.0,0.0,0.0,0.0,0.0,0.0,0.0,0.0,0.0,0.0,0.0,0.0,0.0,0.0,0.0,0.0,0.0,0.0,0.0,0.0,0.0,0.0,0.0,0.0,0.0,0.0,0.0,0.0,0.0,0.0,0.0,0.0,0.0,0.0,0.0,0.0,0.0,0.0,0.0,0.0,0.0,0.0,0.0,0.0,0.0,0.0,0.0,0.0,0.0,0.0,0.0,0.0,0.0,0.0,0.0,0.0,0.0,0.0,0.0,0.0,0.0,0.0,0.0,0.0,0.0,0.0,0.0,0.0,0.0,0.0,0.0,0.0,0.0,0.0,0.0,0.0,0.0,0.0,0.0,0.0,0.0,0.0,0.0,0.0,0.0,0.0,0.0,0.0,0.0,0.0,0.0,0.0,0.0,0.0,0.0,0.0,0.0,0.0,0.0,0.0,0.0,0.0,0.0,0.0,0.0,0.0,0.0,0.0,0.0,0.0,0.0,0.0,0.0,0.0,0.0,0.0,0.0,0.0,0.0,0.0,0.0,0.0,0.0,0.0,0.0,0.0,0.0,0.0,0.0,0.0,0.0,0.0,0.0,0.0,0.0,0.0,0.0,0.0,0.0,0.0,0.0,0.0,0.0,0.0,0.0,0.0,0.0,0.0,0.0,0.0,0.0,0.0,0.0,0.0,0.0,0.0,0.0,0.0,0.0,0.0,0.0,0.0,0.0,0.0,0.0,0.0,0.0,0.0,0.0,0.0,0.0,0.0,0.0,0.0,0.0,0.0,0.0,0.0,0.0,0.0,0.0,0.0,0.0,0.0,0.0,0.0,0.0,0.0,0.0,0.0,0.0,0.0,0.0,0.0,0.0,0.0,0.0,0.0,0.0,0.0,0.0,0.0,0.0,0.0,0.0,0.0,0.0,0.0,0.0,0.0,0.0,0.0,0.0,0.0,0.0,0.0,0.0,0.0,0.0,0.0,0.0,0.0,0.0,0.0,0.0,0.0,0.0,0.0,0.0,0.0,0.0,0.0,0.0,0.0,0.0,0.0,0.0,0.0,0.0,0.0,0.0,0.0,0.0,0.0,0.0,0.0,0.0,0.0,0.0,0.0,0.0,0.0,0.0,0.0,0.0,0.0,0.0,0.0,0.0,0.0,0.0,0.0,0.0,0.0,0.0,0.0,0.0,0.0,0.0,0.0,0.0,0.0,0.0,0.0,0.0,0.0,0.0,0.0,0.0,0.0,0.0,0.0,0.0,0.0,0.0,0.0,0.0,0.0,0.0,0.0,0.0,0.0,0.0,0.0,0.0,0.0,0.0,0.0,0.0,0.0,0.0,0.0,0.0,0.0,0.0,0.0,0.0,0.0,0.0,0.0,0.0,0.0,0.0,0.0,0.0,0.0,0.0,0.0,0.0,0.0,0.0,0.0,0.0,0.0,0.0,0.0,0.0,0.0,0.0,0.0,0.0,0.0,0.0,0.0,-0.817,0.0,0.0,0.0,0.0,0.0,0.0,0.0,0.0,0.0,0.0,0.0,0.0,0.0,0.0,0.0,0.0,0.0,0.0,0.0,0.0,0.0,0.0,0.0,0.0,0.0,0.0,0.0,0.0,0.0,0.0,0.0,0.0,0.0,0.0,0.0,0.0,0.0,0.0,0.0,0.0,0.0,0.0,0.0,0.0,0.0,0.0,0.0,0.0,0.0,0.0,0.0,0.0,0.0,0.0,0.0,0.0,0.0,0.0,0.0,0.0,0.0,0.0,0.0,0.0,0.0,0.0,0.0,0.0,0.0,0.0,0.0,0.0,0.0,0.0,0.0,0.0,0.0,0.0,0.0,0.0,0.0,0.0,0.0,0.0,0.0,0.0,0.0,0.0,0.0,0.0,0.0,0.0,0.0,0.0,0.0,0.0,0.0,0.0,0.0,0.0,0.0,0.0,0.0,0.0,0.0,0.0,0.0,0.0,0.0,0.0,-0.8608,-0.8281,-0.8277,-0.824,-0.8141,0.0,0.0,0.0,0.0,0.0,0.0,0.0,0.0,0.0,0.0,0.0,0.0,0.0,0.0,0.0,0.0,0.0,0.0,0.0,0.0,0.0,0.0,0.0,0.0,0.0,0.0,0.0,0.0,0.0,0.0,0.0,0.0,0.0,0.0,0.0,0.0,0.0,0.0,0.0,0.0,0.0,0.0,0.0,0.0,0.0,0.0,0.0,0.0,0.0,0.0,0.0,0.0,0.0,0.0,0.0,0.0,0.0,0.0,0.0,0.0,0.0,0.0,0.0,0.0,0.0,0.0,0.0,0.0,0.0,0.0,0.0,0.0,0.0,0.0,0.0,0.0,0.0,0.0,0.0,0.0,0.0,0.0,0.0,0.0,0.0,0.0,0.0,0.0,0.0,0.0,0.0,0.0,0.0,0.0,0.0,0.0,0.0,0.0,0.0,0.0,0.0,0.0,0.0,0.0,0.0,0.0,0.0,0.0,0.0,0.0,0.0,0.0,-0.8489,-0.8564,-0.8816,0.0,0.0,0.0,0.0,0.0,0.0,0.0,0.0,0.0,0.0,0.0,0.0,0.0,0.0,0.0,0.0,0.0,0.0,0.0,0.0,0.0,0.0,0.0,0.0,0.0,0.0,0.0,0.0,0.0,0.0,0.0,0.0,0.0,0.0,0.0,0.0,0.0,0.0,0.0,0.0,0.0,0.0,0.0,0.0,0.0,0.0,0.0,0.0,0.0,0.0,0.0,0.0,0.0,0.0,0.0,0.0,0.0,0.0,0.0,0.0,0.0,0.0,0.0,0.0,0.0,0.0,0.0,0.0,0.0,0.0,0.0,0.0,0.0,0.0,0.0,0.0,0.0,0.0,0.0,0.0,0.0,0.0,0.0,0.0,0.0,0.0,0.0,0.0,0.0,0.0,0.0,0.0,0.0,0.0,0.0,0.0,0.0,0.0,0.0,0.0,0.0,0.0,0.0,0.0,0.0,0.0,0.0,0.0,0.0,0.0,-0.9008,-0.9698,-0.9474,0.0,-1.0941,0.0,0.0,0.0,0.0,0.0,0.0,0.0,0.0,0.0,0.0,0.0,0.0,0.0,0.0,0.0,0.0,0.0,0.0,0.0,0.0,0.0,0.0,0.0,0.0,0.0,0.0,0.0,0.0,0.0,0.0,0.0,0.0,0.0,0.0,0.0,0.0,0.0,0.0,0.0,0.0,0.0,0.0,0.0,0.0,0.0,0.0,0.0,0.0,0.0,0.0,0.0,0.0,0.0,0.0,0.0,0.0,0.0,0.0,0.0,0.0,0.0,0.0,0.0,0.0,0.0,0.0,0.0,0.0,0.0,0.0,0.0,0.0,0.0,0.0,0.0,0.0,0.0,0.0,0.0,0.0,0.0,0.0,0.0,0.0,0.0,0.0,0.0,0.0,0.0,0.0,0.0,0.0,0.0,0.0,0.0,0.0,0.0,0.0,0.0,0.0,0.0,0.0,0.0,0.0,0.0,0.0,0.0,0.0,0.0,0.0,-0.8718,-0.9268,-0.9427,-1.0213,0.0,0.0,0.0,0.0,0.0,0.0,0.0,0.0,0.0,0.0,0.0,0.0,0.0,0.0,0.0,0.0,0.0,0.0,0.0,0.0,0.0,0.0,0.0,0.0,0.0,0.0,0.0,0.0,0.0,0.0,0.0,0.0,0.0,0.0,0.0,0.0,0.0,0.0,0.0,0.0,0.0,0.0,0.0,0.0,0.0,0.0,0.0,0.0,0.0,0.0,0.0,0.0,0.0,0.0,0.0,0.0,0.0,0.0,0.0,0.0,0.0,0.0,0.0,0.0,0.0,0.0,0.0,0.0,0.0,0.0,0.0,0.0,0.0,0.0,0.0,0.0,0.0,0.0,0.0,0.0,0.0,0.0,0.0,0.0,0.0,0.0,0.0,0.0,0.0,0.0,0.0,0.0,0.0,0.0,0.0,0.0,0.0,0.0,0.0,0.0,0.0,0.0,0.0,0.0,0.0,0.0,0.0,0.0,0.0,0.0,-0.8598,-0.871,-0.916,-0.9481,-1.033,-1.1889,0.0,0.0,0.0,0.0,0.0,0.0,0.0,0.0,0.0,0.0,0.0,0.0,0.0,0.0,0.0,0.0,0.0,0.0,0.0,0.0,0.0,0.0,0.0,0.0,0.0,0.0,0.0,0.0,0.0,0.0,0.0,0.0,0.0,0.0,0.0,0.0,0.0,0.0,0.0,0.0,0.0,0.0,0.0,0.0,0.0,0.0,0.0,0.0,0.0,0.0,0.0,0.0,0.0,0.0,0.0,0.0,0.0,0.0,0.0,0.0,0.0,0.0,0.0,0.0,0.0,0.0,0.0,0.0,0.0,0.0,0.0,0.0,0.0,0.0,0.0,0.0,0.0,0.0,0.0,0.0,0.0,0.0,0.0,0.0,0.0,0.0,0.0,0.0,0.0,0.0,0.0,0.0,0.0,0.0,0.0,0.0,0.0,0.0,0.0,0.0,0.0,0.0,0.0,0.0,0.0,0.0,0.0,0.0,-0.984,-0.9327,-0.9296,-0.9819,-0.9844,-1.0374,0.0,0.0,0.0,0.0,0.0,0.0,0.0,0.0,0.0,0.0,0.0,0.0,0.0,0.0,0.0,0.0,0.0,0.0,0.0,0.0,0.0,0.0,0.0,0.0,0.0,0.0,0.0,0.0,0.0,0.0,0.0,0.0,0.0,0.0,0.0,0.0,0.0,0.0,0.0,0.0,0.0,0.0,0.0,0.0,0.0,0.0,0.0,0.0,0.0,0.0,0.0,0.0,0.0,0.0,0.0,0.0,0.0,0.0,0.0,0.0,0.0,0.0,0.0,0.0,0.0,0.0,0.0,0.0,0.0,0.0,0.0,0.0,0.0,0.0,0.0,0.0,0.0,0.0,0.0,0.0,0.0,0.0,0.0,0.0,0.0,0.0,0.0,0.0,0.0,0.0,0.0,0.0,0.0,0.0,0.0,0.0,0.0,0.0,0.0,0.0,0.0,0.0,0.0,0.0,0.0,0.0,0.0,0.0,0.0,-0.9076,-0.9246,-0.9295,-0.942,-1.0177,-1.1038,0.0,0.0,0.0,0.0,0.0,0.0,0.0,0.0,0.0,0.0,0.0,0.0,0.0,0.0,0.0,0.0,0.0,0.0,0.0,0.0,0.0,0.0,0.0,0.0,0.0,0.0,0.0,0.0,0.0,0.0,0.0,0.0,0.0,0.0,0.0,0.0,0.0,0.0,0.0,0.0,0.0,0.0,0.0,0.0,0.0,0.0,0.0,0.0,0.0,0.0,0.0,0.0,0.0,0.0,0.0,0.0,0.0,0.0,0.0,0.0,0.0,0.0,0.0,0.0,0.0,0.0,0.0,0.0,0.0,0.0,0.0,0.0,0.0,0.0,0.0,0.0,0.0,0.0,0.0,0.0,0.0,0.0,0.0,0.0,0.0,0.0,0.0,0.0,0.0,0.0,0.0,0.0,0.0,0.0,0.0,0.0,0.0,0.0,0.0,0.0,0.0,0.0,0.0,0.0,0.0,0.0,0.0,0.0,0.0,-0.8922,0.0,-0.9405,-0.9331,-1.0571,-1.1547,0.0,0.0,0.0,0.0,0.0,0.0,0.0,0.0,0.0,0.0,0.0,0.0,0.0,0.0,0.0,0.0,0.0,0.0,0.0,0.0,0.0,0.0,0.0,0.0,0.0,0.0,0.0,0.0,0.0,0.0,0.0,0.0,0.0,0.0,0.0,0.0,0.0,0.0,0.0,0.0,0.0,0.0,0.0,0.0,0.0,0.0,0.0,0.0,0.0,0.0,0.0,0.0,0.0,0.0,0.0,0.0,0.0,0.0,0.0,0.0,0.0,0.0,0.0,0.0,0.0,0.0,0.0,0.0,0.0,0.0,0.0,0.0,0.0,0.0,0.0,0.0,0.0,0.0,0.0,0.0,0.0,0.0,0.0,0.0,0.0,0.0,0.0,0.0,0.0,0.0,0.0,0.0,0.0,0.0,0.0,0.0,0.0,0.0,0.0,0.0,0.0,0.0,0.0,0.0,0.0,0.0,0.0,0.0,-0.8909,-0.9522,-0.9627,-0.9686,-0.9686,-1.1065,-1.1844,0.0,0.0,0.0,0.0,0.0,0.0,0.0,0.0,0.0,0.0,0.0,0.0,0.0,0.0,0.0,0.0,0.0,0.0,0.0,0.0,0.0,0.0,0.0,0.0,0.0,0.0,0.0,0.0,0.0,0.0,0.0,0.0,0.0,0.0,0.0,0.0,0.0,0.0,0.0,0.0,0.0,0.0,0.0,0.0,0.0,0.0,0.0,0.0,0.0,0.0,0.0,0.0,0.0,0.0,0.0,0.0,0.0,0.0,0.0,0.0,0.0,0.0,0.0,0.0,0.0,0.0,0.0,0.0,0.0,0.0,0.0,0.0,0.0,0.0,0.0,0.0,0.0,0.0,0.0,0.0,0.0,0.0,0.0,0.0,0.0,0.0,0.0,0.0,0.0,0.0,0.0,0.0,0.0,0.0,0.0,0.0,0.0,0.0,0.0,0.0,0.0,0.0,0.0,0.0,0.0,0.0,0.0,0.0,0.0,-0.8909,-0.9316,-1.0124,-1.1304,-1.1338,-1.2107,0.0,0.0,0.0,0.0,0.0,0.0,0.0,0.0,0.0,0.0,0.0,0.0,0.0,0.0,0.0,0.0,0.0,0.0,0.0,0.0,0.0,0.0,0.0,0.0,0.0,0.0,0.0,0.0,0.0,0.0,0.0,0.0,0.0,0.0,0.0,0.0,0.0,0.0,0.0,0.0,0.0,0.0,0.0,0.0,0.0,0.0,0.0,0.0,0.0,0.0,0.0,0.0,0.0,0.0,0.0,0.0,0.0,0.0,0.0,0.0,0.0,0.0,0.0,0.0,0.0,0.0,0.0,0.0,0.0,0.0,0.0,0.0,0.0,0.0,0.0,0.0,0.0,0.0,0.0,0.0,0.0,0.0,0.0,0.0,0.0,0.0,0.0,0.0,0.0,0.0,0.0,0.0,0.0,0.0,0.0,0.0,0.0,0.0,0.0,0.0,0.0,0.0,0.0,0.0,0.0,0.0,0.0,0.0,0.0,-0.9049,-1.0028,-1.0973,-1.1834,-1.2073,-1.2706,-1.3721,0.0,0.0,0.0,0.0,0.0,0.0,0.0,0.0,0.0,0.0,0.0,0.0,0.0,0.0,0.0,0.0,0.0,0.0,0.0,0.0,0.0,0.0,0.0,0.0,0.0,0.0,0.0,0.0,0.0,0.0,0.0,0.0,0.0,0.0,0.0,0.0,0.0,0.0,0.0,0.0,0.0,0.0,0.0,0.0,0.0,0.0,0.0,0.0,0.0,0.0,0.0,0.0,0.0,0.0,0.0,0.0,0.0,0.0,0.0,0.0,0.0,0.0,0.0,0.0,0.0,0.0,0.0,0.0,0.0,0.0,0.0,0.0,0.0,0.0,0.0,0.0,0.0,0.0,0.0,0.0,0.0,0.0,0.0,0.0,0.0,0.0,0.0,0.0,0.0,0.0,0.0,0.0,0.0,0.0,0.0,0.0,0.0,0.0,0.0,0.0,0.0,0.0,0.0,0.0,0.0,0.0,0.0,0.0,-0.9826,-1.1737,-1.2355,-1.1628,-1.3073,-1.3493,0.0,0.0,0.0,0.0,0.0,0.0,0.0,0.0,0.0,0.0,0.0,0.0,0.0,0.0,0.0,0.0,0.0,0.0,0.0,0.0,0.0,0.0,0.0,0.0,0.0,0.0,0.0,0.0,0.0,0.0,0.0,0.0,0.0,0.0,0.0,0.0,0.0,0.0,0.0,0.0,0.0,0.0,0.0,0.0,0.0,0.0,0.0,0.0,0.0,0.0,0.0,0.0,0.0,0.0,0.0,0.0,0.0,0.0,0.0,0.0,0.0,0.0,0.0,0.0,0.0,0.0,0.0,0.0,0.0,0.0,0.0,0.0,0.0,0.0,0.0,0.0,0.0,0.0,0.0,0.0,0.0,0.0,0.0,0.0,0.0,0.0,0.0,0.0,0.0,0.0,0.0,0.0,0.0,0.0,0.0,0.0,0.0,0.0,0.0,0.0,0.0,0.0,0.0,0.0,0.0,0.0,0.0,0.0,0.0,-1.2703,-1.4064,-1.4537,-1.404,-1.2986,-1.3209,0.0,0.0,0.0,0.0,0.0,0.0,0.0,0.0,0.0,0.0,0.0,0.0,0.0,0.0,0.0,0.0,0.0,0.0,0.0,0.0,0.0,0.0,0.0,0.0,0.0,0.0,0.0,0.0,0.0,0.0,0.0,0.0,0.0,0.0,0.0,0.0,0.0,0.0,0.0,0.0,0.0,0.0,0.0,0.0,0.0,0.0,0.0,0.0,0.0,0.0,0.0,0.0,0.0,0.0,0.0,0.0,0.0,0.0,0.0,0.0,0.0,0.0,0.0,0.0,0.0,0.0,0.0,0.0,0.0,0.0,0.0,0.0,0.0,0.0,0.0,0.0,0.0,0.0,0.0,0.0,0.0,0.0,0.0,0.0,0.0,0.0,0.0,0.0,0.0,0.0,0.0,0.0,0.0,0.0,0.0,0.0,0.0,0.0,0.0,0.0,0.0,0.0,0.0,0.0,0.0,0.0,0.0,0.0,-1.0966,-1.3444,-1.4546,-1.537,-1.6113,-1.5151,-1.4789,0.0,0.0,0.0,0.0,0.0,0.0,0.0,0.0,0.0,0.0,0.0,0.0,0.0,0.0,0.0,0.0,0.0,0.0,0.0,0.0,0.0,0.0,0.0,0.0,0.0,0.0,0.0,0.0,0.0,0.0,0.0,0.0,0.0,0.0,0.0,0.0,0.0,0.0,0.0,0.0,0.0,0.0,0.0,0.0,0.0,0.0,0.0,0.0,0.0,0.0,0.0,0.0,0.0,0.0,0.0,0.0,0.0,0.0,0.0,0.0,0.0,0.0,0.0,0.0,0.0,0.0,0.0,0.0,0.0,0.0,0.0,0.0,0.0,0.0,0.0,0.0,0.0,0.0,0.0,0.0,0.0,0.0,0.0,0.0,0.0,0.0,0.0,0.0,0.0,0.0,0.0,0.0,0.0,0.0,0.0,0.0,0.0,0.0,0.0,0.0,0.0,0.0,0.0,0.0,0.0,0.0,0.0,0.0,-1.1456,-1.3331,-1.4271,-1.5766,-1.7787,-1.8052,-1.702,0.0,0.0,0.0,0.0,0.0,0.0,0.0,0.0,0.0,0.0,0.0,0.0,0.0,0.0,0.0,0.0,0.0,0.0,0.0,0.0,0.0,0.0,0.0,0.0,0.0,0.0,0.0,0.0,0.0,0.0,0.0,0.0,0.0,0.0,0.0,0.0,0.0,0.0,0.0,0.0,0.0,0.0,0.0,0.0,0.0,0.0,0.0,0.0,0.0,0.0,0.0,0.0,0.0,0.0,0.0,0.0,0.0,0.0,0.0,0.0,0.0,0.0,0.0,0.0,0.0,0.0,0.0,0.0,0.0,0.0,0.0,0.0,0.0,0.0,0.0,0.0,0.0,0.0,0.0,0.0,0.0,0.0,0.0,0.0,0.0,0.0,0.0,0.0,0.0,0.0,0.0,0.0,0.0,0.0,0.0,0.0,0.0,0.0,0.0,0.0,0.0,0.0,0.0,0.0,0.0,0.0,0.0,0.0,-1.3536,-1.558,-1.6646,-1.7847,-1.9305,-1.7084,-1.5657,0.0,0.0,0.0,0.0,0.0,0.0,0.0,0.0,0.0,0.0,0.0,0.0,0.0,0.0,0.0,0.0,0.0,0.0,0.0,0.0,0.0,0.0,0.0,0.0,0.0,0.0,0.0,0.0,0.0,0.0,0.0,0.0,0.0,0.0,0.0,0.0,0.0,0.0,0.0,0.0,0.0,0.0,0.0,0.0,0.0,0.0,0.0,0.0,-1.3587,0.0,0.0,0.0,0.0,0.0,0.0,0.0,0.0,0.0,0.0,0.0,0.0,0.0,0.0,0.0,0.0,0.0,0.0,0.0,0.0,0.0,0.0,0.0,0.0,0.0,0.0,0.0,0.0,0.0,0.0,0.0,0.0,0.0,0.0,0.0,0.0,0.0,0.0,0.0,0.0,0.0,0.0,0.0,0.0,0.0,0.0,0.0,0.0,0.0,0.0,0.0,0.0,0.0,0.0,0.0,0.0,0.0,0.0,0.0,-1.4062,-1.5872,-1.719,-1.8511,-1.9621,-1.7486,-1.6074,0.0,0.0,0.0,0.0,0.0,0.0,0.0,0.0,0.0,0.0,0.0,0.0,0.0,0.0,0.0,0.0,0.0,0.0,0.0,0.0,0.0,0.0,0.0,0.0,0.0,0.0,0.0,0.0,0.0,0.0,0.0,0.0,0.0,0.0,0.0,0.0,0.0,0.0,0.0,0.0,0.0,0.0,0.0,0.0,0.0,0.0,0.0,0.0,0.0,0.0,0.0,0.0,0.0,0.0,0.0,0.0,0.0,0.0,0.0,0.0,0.0,0.0,0.0,0.0,0.0,0.0,0.0,0.0,0.0,0.0,0.0,0.0,0.0,0.0,0.0,0.0,0.0,0.0,0.0,0.0,0.0,0.0,0.0,0.0,0.0,0.0,0.0,0.0,0.0,0.0,0.0,0.0,0.0,0.0,0.0,0.0,0.0,0.0,0.0,0.0,0.0,0.0,0.0,0.0,0.0,0.0,0.0,-1.2214,-1.4335,-1.5686,-1.728,-1.8614,-1.9587,-1.827,-1.6961,-1.5812,0.0,0.0,0.0,0.0,0.0,0.0,0.0,0.0,0.0,0.0,0.0,0.0,0.0,0.0,0.0,0.0,0.0,0.0,0.0,0.0,0.0,0.0,0.0,0.0,0.0,0.0,0.0,0.0,0.0,0.0,0.0,0.0,0.0,0.0,0.0,0.0,0.0,0.0,-1.3492,-1.3492,0.0,0.0,0.0,0.0,0.0,0.0,0.0,0.0,-1.3909,0.0,0.0,0.0,0.0,0.0,0.0,0.0,0.0,0.0,0.0,0.0,0.0,0.0,0.0,0.0,0.0,0.0,0.0,0.0,0.0,0.0,0.0,0.0,0.0,0.0,0.0,0.0,0.0,0.0,0.0,0.0,0.0,0.0,0.0,0.0,0.0,0.0,0.0,0.0,0.0,0.0,0.0,0.0,0.0,0.0,0.0,0.0,0.0,0.0,0.0,0.0,0.0,0.0,0.0,0.0,0.0,-1.0801,-1.4087,-1.6023,-1.6532,-1.825,-1.9138,-1.9045,-1.7869,-1.6723,-1.5504,0.0,0.0,0.0,0.0,0.0,0.0,0.0,0.0,0.0,0.0,0.0,0.0,0.0,0.0,0.0,0.0,0.0,0.0,0.0,0.0,0.0,0.0,0.0,0.0,0.0,0.0,0.0,0.0,0.0,0.0,0.0,0.0,0.0,0.0,0.0,0.0,0.0,0.0,0.0,-1.3492,-1.3492,0.0,0.0,0.0,0.0,0.0,0.0,0.0,0.0,-1.3572,0.0,0.0,0.0,0.0,0.0,0.0,0.0,0.0,0.0,0.0,0.0,0.0,0.0,0.0,0.0,0.0,0.0,0.0,0.0,0.0,0.0,0.0,0.0,0.0,0.0,0.0,0.0,0.0,0.0,0.0,0.0,0.0,0.0,0.0,0.0,0.0,0.0,0.0,0.0,0.0,0.0,0.0,0.0,0.0,0.0,0.0,0.0,0.0,0.0,0.0,0.0,0.0,0.0,0.0,0.0,-1.135,-1.4637,-1.6562,-1.6684,-1.8267,-1.8925,-1.8408,-1.7315,-1.6261,0.0,0.0,0.0,0.0,0.0,0.0,0.0,0.0,0.0,0.0,0.0,0.0,0.0,0.0,0.0,0.0,0.0,0.0,0.0,0.0,0.0,0.0,0.0,0.0,0.0,0.0,0.0,0.0,0.0,0.0,0.0,0.0,0.0,0.0,0.0,0.0,0.0,0.0,0.0,0.0,-1.3492,-1.3492,-1.3492,0.0,0.0,0.0,0.0,0.0,0.0,-1.3739,-1.3739,0.0,0.0,0.0,0.0,0.0,0.0,0.0,0.0,0.0,0.0,0.0,0.0,0.0,0.0,0.0,0.0,0.0,0.0,0.0,0.0,0.0,0.0,0.0,0.0,0.0,0.0,0.0,0.0,0.0,0.0,0.0,0.0,0.0,0.0,0.0,0.0,0.0,0.0,0.0,0.0,0.0,0.0,0.0,0.0,0.0,0.0,0.0,0.0,0.0,0.0,0.0,0.0,0.0,0.0,0.0,-1.1526,-1.4777,-1.6632,-1.6845,-1.8134,-1.8497,-1.7736,-1.674,-1.5745,0.0,0.0,0.0,0.0,0.0,0.0,0.0,0.0,0.0,0.0,0.0,0.0,0.0,0.0,0.0,0.0,0.0,0.0,0.0,0.0,0.0,0.0,0.0,0.0,0.0,0.0,0.0,0.0,0.0,0.0,0.0,0.0,0.0,0.0,0.0,0.0,0.0,0.0,0.0,0.0,0.0,-1.3645,-1.3521,-1.355,0.0,0.0,0.0,0.0,-1.4395,-1.4271,0.0,0.0,0.0,0.0,0.0,0.0,0.0,0.0,0.0,0.0,0.0,0.0,0.0,0.0,0.0,0.0,0.0,0.0,0.0,0.0,0.0,0.0,0.0,0.0,0.0,0.0,0.0,0.0,0.0,0.0,0.0,0.0,0.0,0.0,0.0,0.0,0.0,0.0,0.0,0.0,0.0,0.0,0.0,0.0,0.0,0.0,0.0,0.0,0.0,0.0,0.0,0.0,0.0,0.0,0.0,0.0,-1.2449,-1.4706,-1.6394,-1.7477,-1.8189,-1.8009,-1.6894,-1.6219,-1.5344,0.0,0.0,0.0,0.0,0.0,0.0,0.0,0.0,0.0,0.0,0.0,0.0,0.0,0.0,0.0,0.0,0.0,0.0,0.0,0.0,0.0,0.0,0.0,0.0,0.0,0.0,0.0,0.0,0.0,0.0,0.0,0.0,0.0,0.0,0.0,0.0,0.0,0.0,0.0,0.0,0.0,-1.4181,-1.3572,-1.374,-1.3828,0.0,0.0,-1.3968,-1.4036,-1.5196,0.0,0.0,0.0,0.0,0.0,0.0,0.0,0.0,0.0,0.0,0.0,0.0,0.0,0.0,0.0,0.0,0.0,0.0,0.0,0.0,0.0,0.0,0.0,0.0,0.0,0.0,0.0,0.0,0.0,0.0,0.0,0.0,0.0,0.0,0.0,0.0,0.0,0.0,0.0,0.0,0.0,0.0,0.0,0.0,0.0,0.0,0.0,0.0,0.0,0.0,0.0,0.0,0.0,0.0,0.0,-1.2648,-1.1645,-1.3921,-1.5532,-1.6294,-1.6617,-1.6549,-1.6184,-1.5317,-1.4522,0.0,0.0,0.0,0.0,0.0,0.0,0.0,0.0,0.0,0.0,0.0,0.0,0.0,0.0,0.0,0.0,0.0,0.0,0.0,0.0,0.0,0.0,0.0,0.0,0.0,0.0,0.0,0.0,0.0,0.0,0.0,0.0,0.0,0.0,0.0,0.0,0.0,0.0,0.0,0.0,0.0,0.0,-1.3558,-1.3923,0.0,0.0,0.0,-1.4762,-1.5521,0.0,0.0,0.0,0.0,0.0,0.0,0.0,0.0,0.0,0.0,0.0,0.0,0.0,0.0,0.0,0.0,0.0,0.0,0.0,0.0,0.0,0.0,0.0,0.0,0.0,0.0,0.0,0.0,0.0,0.0,0.0,0.0,0.0,0.0,0.0,0.0,0.0,0.0,0.0,0.0,0.0,0.0,0.0,0.0,0.0,0.0,0.0,0.0,0.0,0.0,0.0,0.0,0.0,0.0,0.0,0.0,0.0,-1.0763,-1.3121,-1.4512,-1.4698,-1.5044,-1.5208,-1.5092,-1.4372,0.0,0.0,0.0,0.0,0.0,0.0,0.0,0.0,0.0,0.0,0.0,0.0,0.0,0.0,0.0,0.0,0.0,0.0,0.0,0.0,0.0,0.0,0.0,0.0,0.0,0.0,0.0,-1.1591,0.0,0.0,0.0,0.0,0.0,0.0,0.0,0.0,0.0,0.0,0.0,0.0,0.0,0.0,-1.4201,-1.3799,-1.4335,-1.4668,0.0,0.0,-1.5597,-1.6708,-1.6694,-1.6915,0.0,0.0,0.0,0.0,0.0,0.0,0.0,0.0,0.0,0.0,0.0,0.0,0.0,0.0,0.0,0.0,0.0,0.0,0.0,0.0,0.0,0.0,0.0,0.0,0.0,0.0,0.0,0.0,0.0,0.0,0.0,0.0,0.0,0.0,0.0,0.0,0.0,0.0,0.0,0.0,0.0,0.0,0.0,0.0,0.0,0.0,0.0,0.0,0.0,0.0,0.0,0.0,0.0,0.0,0.0,-1.0512,-1.2654,-1.3485,-1.2869,-1.409,-1.4285,-1.3345,-1.3532,-1.35,0.0,0.0,0.0,0.0,0.0,0.0,0.0,0.0,0.0,0.0,0.0,0.0,0.0,0.0,0.0,0.0,0.0,0.0,0.0,0.0,0.0,0.0,0.0,0.0,0.0,0.0,0.0,0.0,0.0,0.0,0.0,0.0,0.0,0.0,0.0,0.0,0.0,0.0,0.0,0.0,0.0,-1.5101,-1.4533,-1.4955,-1.552,0.0,0.0,-1.6283,-1.6822,-1.8098,-1.8709,-1.766,0.0,0.0,0.0,0.0,0.0,0.0,0.0,0.0,0.0,0.0,0.0,0.0,0.0,0.0,0.0,0.0,0.0,0.0,0.0,0.0,0.0,0.0,0.0,0.0,0.0,0.0,0.0,0.0,0.0,0.0,0.0,0.0,0.0,0.0,0.0,0.0,0.0,0.0,0.0,0.0,0.0,0.0,0.0,0.0,0.0,0.0,0.0,0.0,0.0,0.0,0.0,0.0,0.0,-1.1457,-0.9424,-1.162,-1.2436,-1.1814,-1.263,-1.3088,-1.3109,-1.3265,-1.3287,0.0,0.0,0.0,0.0,0.0,0.0,0.0,0.0,0.0,0.0,0.0,0.0,0.0,0.0,0.0,0.0,0.0,0.0,0.0,0.0,0.0,0.0,0.0,0.0,0.0,0.0,0.0,0.0,-1.1591,-1.1672,-1.1831,0.0,0.0,0.0,0.0,0.0,0.0,0.0,0.0,0.0,0.0,-1.4934,-1.5204,-1.579,0.0,0.0,-1.7346,-1.7796,-1.8305,-1.8638,-1.8755,-1.8596,-1.8518,0.0,0.0,0.0,0.0,0.0,0.0,0.0,0.0,0.0,0.0,0.0,0.0,0.0,0.0,0.0,0.0,0.0,0.0,0.0,0.0,0.0,0.0,0.0,0.0,0.0,0.0,0.0,0.0,0.0,0.0,0.0,0.0,0.0,0.0,0.0,0.0,0.0,0.0,0.0,0.0,0.0,0.0,0.0,0.0,0.0,0.0,0.0,0.0,0.0,0.0,0.0,0.0,-1.0848,-0.8572,-1.0798,-1.16,-1.0806,-1.1278,-1.1968,-1.2933,-1.2789,-1.2667,0.0,0.0,0.0,0.0,0.0,0.0,0.0,0.0,0.0,0.0,0.0,0.0,0.0,0.0,0.0,0.0,0.0,0.0,0.0,0.0,0.0,0.0,0.0,0.0,0.0,0.0,0.0,0.0,-1.1616,-1.1831,-1.2113,0.0,0.0,0.0,0.0,0.0,0.0,0.0,0.0,0.0,0.0,-1.5209,-1.577,-1.6517,-1.726,-1.7913,-1.817,-1.8572,-1.9175,-1.8993,-1.8742,-1.8721,0.0,0.0,0.0,0.0,0.0,0.0,0.0,0.0,0.0,0.0,0.0,0.0,0.0,0.0,0.0,0.0,0.0,0.0,0.0,0.0,0.0,0.0,0.0,0.0,0.0,0.0,0.0,0.0,0.0,0.0,0.0,0.0,0.0,0.0,0.0,0.0,0.0,0.0,0.0,0.0,0.0,0.0,0.0,0.0,0.0,0.0,0.0,0.0,0.0,0.0,0.0,0.0,0.0,-1.0702,-0.8123,-1.0439,-1.1061,-1.0008,-1.0164,-1.105,-1.2583,-1.1892,-1.1542,-1.1729,0.0,0.0,0.0,0.0,0.0,0.0,0.0,0.0,0.0,0.0,0.0,0.0,0.0,0.0,0.0,0.0,0.0,0.0,0.0,0.0,0.0,0.0,0.0,0.0,0.0,0.0,-1.1377,-1.171,-1.212,0.0,0.0,0.0,0.0,0.0,0.0,0.0,0.0,0.0,0.0,-1.5242,-1.6119,-1.6119,-1.7071,-1.8066,-1.8942,-1.8481,-1.8341,-1.919,-1.928,-1.8877,0.0,0.0,0.0,0.0,0.0,0.0,0.0,0.0,0.0,0.0,0.0,0.0,0.0,0.0,0.0,0.0,0.0,0.0,0.0,0.0,0.0,0.0,0.0,0.0,0.0,0.0,0.0,0.0,-0.8276,0.0,0.0,0.0,0.0,0.0,0.0,0.0,0.0,0.0,0.0,0.0,-0.8779,-0.8889,0.0,0.0,0.0,0.0,0.0,0.0,0.0,0.0,0.0,0.0,0.0,0.0,-1.0518,-0.9289,-1.0778,-1.1097,-1.0145,-1.0166,-1.0411,-1.0804,-1.086,-1.0768,-1.0513,0.0,0.0,0.0,0.0,0.0,0.0,0.0,0.0,0.0,0.0,0.0,0.0,0.0,0.0,0.0,0.0,0.0,0.0,0.0,0.0,0.0,0.0,0.0,0.0,0.0,-1.1592,0.0,0.0,0.0,0.0,0.0,0.0,0.0,0.0,0.0,0.0,0.0,-1.4037,-1.465,-1.5356,-1.6173,-1.7199,-1.7684,-1.8248,0.0,0.0,0.0,0.0,0.0,0.0,0.0,0.0,0.0,0.0,0.0,0.0,0.0,0.0,-1.8594,-1.7744,-1.7353,-1.7126,-1.7126,0.0,0.0,0.0,0.0,0.0,0.0,0.0,0.0,0.0,0.0,0.0,0.0,0.0,0.0,0.0,0.0,-0.8619,0.0,0.0,0.0,0.0,0.0,0.0,0.0,0.0,-0.8775,-0.8852,-0.8922,-0.9043,-0.9031,0.0,-0.8682,-0.8446,0.0,0.0,0.0,0.0,0.0,0.0,0.0,0.0,-1.0233,-0.9238,-1.0659,-1.1064,-1.0135,-0.9721,-0.9795,-1.0257,-1.0085,-0.979,-0.9343,-0.9005,-0.9165,0.0,0.0,0.0,0.0,0.0,0.0,0.0,0.0,0.0,0.0,0.0,0.0,0.0,0.0,0.0,0.0,0.0,0.0,0.0,0.0,0.0,0.0,0.0,-1.1538,0.0,0.0,0.0,0.0,0.0,0.0,0.0,0.0,0.0,-1.3638,-1.4,-1.4507,-1.5375,-1.5937,-1.6684,-1.7851,0.0,0.0,0.0,0.0,0.0,0.0,0.0,-1.9072,-1.9062,-1.8955,-1.8906,-1.9043,-1.9053,-1.9111,-1.9294,0.0,0.0,-1.7939,-1.7555,-1.7321,-1.7174,-1.7135,-1.7233,-1.7549,-1.748,-1.7416,0.0,0.0,0.0,0.0,0.0,0.0,0.0,0.0,-0.7995,-0.8041,0.0,-0.8308,0.0,0.0,0.0,0.0,0.0,0.0,0.0,0.0,-0.8844,-0.893,-0.91,-0.9116,-0.9116,-0.9116,-0.9092,-0.8909,-0.8604,-0.7866,0.0,0.0,0.0,0.0,0.0,0.0,-0.9872,-0.8247,-1.0164,-1.0809,-0.9903,-0.8854,-0.9123,-1.0746,-0.9551,-0.8612,-0.8198,-0.8155,-0.827,-0.8517,-0.966,0.0,0.0,0.0,0.0,0.0,0.0,0.0,0.0,0.0,0.0,0.0,0.0,0.0,0.0,0.0,0.0,0.0,0.0,0.0,0.0,-1.1376,0.0,0.0,0.0,0.0,0.0,0.0,0.0,0.0,0.0,0.0,-1.4014,-1.4396,-1.5051,-1.6125,0.0,0.0,0.0,0.0,-1.8754,-1.9228,-1.89,-1.8919,-1.9756,-1.9816,-1.957,-1.8763,0.0,0.0,-1.8724,-1.8637,-1.8783,-1.9219,-1.8682,-1.8174,-1.852,-1.8481,-1.8325,-1.7978,-1.7881,-1.7969,-1.7959,-1.7656,-1.7465,-0.326,0.0,0.0,0.0,0.0,-0.8157,-0.8143,-0.7998,-0.8157,-0.8182,-0.8122,-0.8291,0.0,0.0,0.0,0.0,0.0,0.0,-0.8844,-0.9019,-0.9145,-0.9277,-0.9335,-0.9417,-0.9474,-0.9466,-0.9222,-0.9043,-0.8922,-0.8345,-0.8073,-0.8149,0.0,0.0,0.0,0.0,-0.9584,-0.9294,-0.9933,-1.0164,-0.9898,-0.885,-0.8417,-0.8716,-0.8047,-0.7616,-0.7477,-0.7244,-0.7497,-0.825,-0.8387,0.0,0.0,0.0,0.0,0.0,0.0,0.0,0.0,0.0,0.0,0.0,0.0,0.0,0.0,0.0,0.0,0.0,0.0,0.0,-1.1527,-1.1794,-1.1987,0.0,0.0,0.0,0.0,0.0,0.0,0.0,0.0,0.0,-1.4944,-1.5303,-1.5942,0.0,0.0,-1.8128,-1.8847,-1.8727,-1.8754,-1.9219,0.0,0.0,0.0,-1.9199,-1.8987,-1.9082,-1.9209,-1.9336,-1.9485,-1.9307,-1.9238,-1.9648,-1.9287,-1.8867,-1.8598,-1.8135,-1.7637,-1.7194,-1.7344,-1.7549,-1.7568,-1.7686,-1.798,-0.2813,-0.4414,-0.5481,-0.654,-0.7505,-0.8107,-0.8303,-0.8218,-0.8252,-0.8268,-0.8238,-0.8174,-0.8255,-0.8331,-0.8534,0.0,0.0,0.0,-0.9027,-0.9206,-0.9355,-0.9441,-0.9466,-0.9579,-0.9624,-0.9567,-0.9336,-0.9249,-0.9241,-0.8727,-0.8357,-0.8126,0.0,0.0,-0.8012,-0.9009,-0.9414,-0.917,-0.967,-0.9728,-0.9384,-0.8539,-0.791,-0.7557,-0.7265,-0.7086,-0.7013,-0.6802,-0.7074,-0.7868,-0.7826,-0.8097,0.0,0.0,0.0,0.0,0.0,0.0,0.0,0.0,0.0,0.0,0.0,-0.9889,-1.0261,0.0,0.0,0.0,-1.076,-1.1216,-1.1459,-1.1783,0.0,0.0,0.0,0.0,0.0,0.0,0.0,-1.3153,-1.3457,-1.433,-1.6058,-1.6363,-1.6845,-1.7989,-1.8062,-1.8247,-1.8932,0.0,-1.85,-1.8929,-1.9023,-1.9082,-1.9248,-1.9072,-1.8984,-1.9238,-1.9277,-1.9365,-1.96,-1.9453,-1.9385,-1.957,-1.9463,-1.915,-1.8676,-1.8178,-1.7744,-1.7301,-1.7451,-1.7617,-1.7627,-1.7895,-1.8245,-0.2429,-0.3384,-0.4477,-0.5598,-0.6643,-0.7861,-0.8387,-0.8364,-0.8343,-0.8323,-0.8292,-0.8092,-0.809,-0.8279,-0.8596,0.0,0.0,-0.9116,-0.9257,-0.9424,-0.942,-0.9466,-0.9575,-0.9624,-0.9624,-0.9575,-0.9453,-0.9424,-0.9408,-0.9031,-0.8783,-0.8665,-0.826,-0.815,-0.8365,-0.9165,-0.9174,-0.8359,-0.929,-0.9371,-0.8559,-0.8065,-0.7629,-0.7199,-0.7069,-0.6894,-0.6708,-0.668,-0.6895,-0.7377,-0.7636,-0.7951,-0.8317,0.0,0.0,0.0,0.0,0.0,0.0,0.0,0.0,0.0,0.0,0.0,0.0,0.0,0.0,0.0,-1.0902,0.0,-1.1279,-1.1466,0.0,0.0,0.0,-1.1959,-1.1967,-1.2557,-1.3098,-1.3454,0.0,0.0,0.0,0.0,-1.7477,-1.7825,-1.7957,-1.8174,-1.8623,-1.8286,-1.813,-1.8568,-1.8598,-1.8744,-1.9131,-1.918,-1.9111,-1.9033,-1.916,-1.916,-1.9199,-1.917,-1.918,-1.9228,-1.9209,-1.9053,-1.8617,-1.8481,-1.8422,-1.8037,-1.7978,-1.7998,-1.7969,-1.8075,-1.8218,-0.2042,-0.2378,-0.3492,-0.4495,-0.547,-0.6762,-0.7194,-0.7211,-0.8076,-0.8409,-0.8382,-0.8234,-0.8316,-0.8585,-0.8874,-0.9122,-0.9339,-0.9343,-0.9388,-0.9555,-0.9563,-0.9583,-0.9624,-0.9624,-0.9624,-0.9575,-0.9583,-0.9563,-0.9551,-0.9336,-0.9253,-0.9196,-0.8808,-0.8515,-0.83,-0.8539,-0.8618,-0.8543,-0.8803,-0.8642,-0.815,-0.7935,-0.7629,-0.7199,-0.6924,-0.6771,-0.6696,-0.6558,-0.6527,-0.6651,-0.6721,-0.6788,-0.6876,-0.7503,0.0,0.0,0.0,0.0,0.0,0.0,0.0,0.0,0.0,-1.047,-1.0579,0.0,-1.0756,0.0,-1.0965,-1.1122,-1.1122,-1.1279,0.0,0.0,-1.1614,-1.1709,-1.1701,-1.2243,-1.2854,-1.3428,-1.3891,-1.4714,-1.6203,-1.6186,-1.627,-1.692,-1.7567,-1.8281,-1.8975,-1.8477,-1.8154,-1.8481,-1.8539,-1.8637,-1.8715,-1.8789,-1.8539,-1.7939,-1.8115,-1.8418,-1.8695,-1.8516,-1.8408,-1.8656,-1.8525,-1.8291,-1.8184,-1.8164,-1.8144,-1.8027,-1.8008,-1.8008,-1.7998,-1.7799,-1.7885,-0.1952,-0.2006,-0.2589,-0.3158,-0.3722,-0.549,-0.6162,-0.617,-0.7237,-0.7671,-0.7664,-0.8076,-0.85,-0.8944,-0.9092,-0.9292,-0.9474,-0.9478,-0.9531,-0.9575,-0.9624,-0.9624,-0.9624,-0.9624,-0.9624,-0.9624,-0.9624,-0.9624,-0.9616,-0.9445,-0.9404,-0.9396,-0.908,-0.8844,-0.8649,-0.8539,-0.8503,-0.8674,-0.8649,-0.8473,-0.8142,-0.789,-0.7706,-0.746,-0.6964,-0.6729,-0.6841,-0.6554,-0.642,-0.642,-0.642,-0.642,-0.642,-0.6778,-0.7293,0.0,0.0,0.0,0.0,0.0,0.0,0.0,0.0,0.0,0.0,0.0,-1.1038,0.0,-1.1134,0.0,-1.1192,-1.1272,-1.1334,-1.1435,-1.1529,-1.1591,-1.1591,-1.2405,-1.31,-1.345,-1.4329,-1.522,-1.5983,-1.6093,-1.6233,-1.6675,-1.7106,-1.7574,-1.8008,-1.7715,-1.7496,-1.772,-1.7759,-1.7837,-1.8003,-1.8042,-1.7964,-1.7754,-1.7852,-1.8096,-1.8276,-1.8174,-1.8096,-1.8247,-1.813,-1.8008,-1.8008,-1.8008,-1.7959,-1.7803,-1.7881,-1.793,-1.7764,-1.7622,-1.7692,-0.1974,-0.1965,-0.1909,-0.1883,-0.205,-0.407,-0.4977,-0.5134,-0.6206,-0.6763,-0.6935,-0.7935,-0.8684,-0.9137,-0.9187,-0.9331,-0.9624,-0.9624,-0.9624,-0.9624,-0.9624,-0.9624,-0.9624,-0.9624,-0.9624,-0.9624,-0.9624,-0.9624,-0.9571,-0.9466,-0.9437,-0.9429,-0.9261,-0.9133,-0.9116,-0.8779,-0.867,-0.8771,-0.8653,-0.8518,-0.8288,-0.7984,-0.778,-0.771,-0.7041,-0.6788,-0.6906,-0.6587,-0.642,-0.642,-0.642,-0.6449,-0.6548,-0.6515,-0.7162,0.0,-0.8619,0.0,0.0,0.0,0.0,0.0,0.0,0.0,0.0,-1.095,-1.1269,-1.1474,-1.1317,-1.1286,-1.1383,-1.1361,-1.1456,-1.1653,-1.1684,-1.1677,-1.1748,-1.2849,-1.3617,-1.3656,-1.5142,-1.6163,-1.6114,-1.6416,-1.6609,-1.658,-1.6531,-1.659,-1.667,-1.6726,-1.6794,-1.6765,-1.6785,-1.71,-1.7207,-1.7324,-1.7519,-1.7764,-1.774,-1.7837,-1.792,-1.7861,-1.7832,-1.7832,-1.7803,-1.7803,-1.7842,-1.7822,-1.7672,-1.7373,-1.7549,-1.7666,-1.7396,-1.7374,-1.738,-0.1962,-0.1936,-0.19,-0.1872,-0.1844,-0.2283,-0.3034,-0.4055,-0.5915,-0.7082,-0.7779,-0.8197,-0.8581,-0.8878,-0.9084,-0.9331,-0.9628,-0.9624,-0.9624,-0.9624,-0.9624,-0.9624,-0.9624,-0.9624,-0.9624,-0.9624,-0.9624,-0.9624,-0.9624,-0.9596,-0.9575,-0.9571,-0.9393,-0.9351,0.0,0.0,0.0,0.0,-0.8653,-0.8475,-0.8288,-0.7984,-0.7618,-0.733,-0.6907,0.0,-0.6522,-0.6453,-0.642,-0.642,-0.642,0.0,0.0,0.0,0.0,0.0,0.0,0.0,0.0,0.0,0.0,0.0,-1.0586,-1.0586,-1.0593,-1.0925,-1.1216,-1.1493,-1.1481,-1.1558,-1.182,-1.1734,-1.1767,-1.2109,-1.2102,-1.2136,-1.2336,-1.3566,-1.4386,-1.4418,-1.5683,-1.6465,-1.6163,-1.6183,-1.6222,-1.6202,-1.5889,-1.582,-1.6162,-1.6484,-1.6846,-1.7168,-1.7129,-1.6963,-1.6427,-1.6946,-1.7207,-1.7048,-1.6941,-1.7096,-1.7402,-1.7207,-1.696,-1.698,-1.6931,-1.696,-1.696,-1.6941,-1.696,-1.6833,-1.6902,-1.6921,-1.6875,-1.685,-1.6894,-0.1959,0.0,-0.1898,-0.1868,0.0,-0.1791,-0.2158,-0.2814,-0.4365,-0.5928,-0.7434,-0.8084,-0.8528,-0.8829,-0.8931,-0.913,-0.943,-0.9381,-0.948,-0.9575,-0.9624,-0.9624,-0.9624,-0.9624,-0.9624,-0.9624,-0.9624,-0.9624,-0.9624,-0.9624,-0.9624,-0.9624,-0.9535,-0.9445,-0.9392,-0.8999,-0.8734,-0.8698,-0.8653,-0.8567,-0.8418,-0.811,-0.7845,-0.7736,0.0,0.0,0.0,0.0,0.0,0.0,0.0,0.0,0.0,0.0,0.0,-0.9384,-0.9486,-0.9811,-1.053,-1.0586,-1.0586,-1.0593,-1.0695,-1.0835,-1.0975,-1.1153,-1.1368,-1.1662,-1.1696,-1.173,-1.1833,-1.1737,-1.1833,-1.218,-1.2214,-1.2282,-1.2552,-1.341,-1.4197,-1.4598,-1.5296,-1.5856,-1.6094,-1.6125,-1.5987,-1.5831,-1.5947,-1.6035,-1.6075,-1.6055,-1.6141,-1.6377,-1.6416,-1.6369,-1.6193,-1.6418,-1.6787,-1.6677,-1.6697,-1.6785,-1.7021,-1.6843,-1.6697,-1.6697,-1.6697,-1.6697,-1.6697,-1.6697,-1.6629,-1.6484,-1.6582,-1.6512,-1.623,-1.625,-1.6293,-0.1956,-0.1921,-0.1896,-0.1866,-0.1773,-0.18,-0.1821,-0.1839,0.0,0.0,0.0,-0.7832,-0.8478,-0.8726,-0.8726,-0.8878,-0.9187,-0.9187,-0.9331,-0.9624,-0.9624,-0.9624,-0.9624,-0.9624,-0.9624,-0.9624,-0.9624,-0.9624,-0.9624,-0.9624,-0.9624,-0.9624,-0.9624,-0.9522,-0.9347,-0.8954,-0.871,-0.862,-0.8616,-0.8616,-0.8604,-0.8203,-0.8069,-0.8195,-0.7461,-0.7045,-0.7086,-0.6704,-0.6453,-0.642,-0.642,-0.6773,-0.7619,-0.7684,-0.8264,-0.9588,-0.9709,-0.9977,-1.0555,-1.0586,-1.0613,-1.0667,-1.0935,-1.1189,-1.1483,-1.1456,-1.1619,-1.1915,-1.1942,-1.1925,-1.1909,-1.1867,-1.1999,-1.2344,-1.2378,-1.2454,-1.2694,-1.3286,-1.4053,-1.4654,-1.5056,-1.5442,-1.6235,-1.629,-1.6095,-1.582,-1.6172,-1.6455,-1.6075,-1.585,-1.5751,-1.5713,-1.5859,-1.584,-1.6007,-1.6124,-1.6211,-1.6533,-1.6523,-1.6492,-1.656,-1.6521,-1.6473,-1.6385,-1.6463,-1.6434,-1.6443,-1.6404,-1.6377,-1.6056,-1.623,-1.6229,-1.5566,-1.5644,-1.5752,-0.1943,-0.1892,-0.1887,-0.1853,-0.1799,-0.1824,-0.1779,-0.1883,-0.3836,-0.532,-0.6534,-0.7587,-0.8187,-0.8482,-0.8428,-0.873,-0.9187,-0.9187,-0.9335,0.0,-0.9624,-0.9624,-0.9624,-0.9624,-0.9624,-0.9624,-0.9624,-0.9624,-0.9624,-0.9624,-0.9624,-0.9624,-0.9624,-0.9462,-0.9133,-0.8824,-0.8637,-0.8616,-0.8616,-0.8616,-0.8608,-0.8203,-0.7955,-0.7865,-0.7415,-0.7049,-0.6777,-0.6696,-0.6583,-0.6399,-0.642,-0.7003,-0.8258,-0.8361,-0.8973,-1.0301,-1.0466,-1.0491,-1.0586,-1.0586,-1.07,-1.0915,-1.1196,-1.149,-1.1799,-1.175,-1.1792,-1.212,-1.2133,-1.2279,-1.2652,-1.2558,-1.258,-1.2963,-1.3057,-1.3129,-1.3287,-1.3902,-1.4579,-1.5289,-1.5835,-1.6229,-1.6815,-1.6804,-1.658,-1.6473,-1.6318,-1.6046,-1.5762,-1.6113,-1.6328,-1.6133,-1.6309,-1.6377,-1.6124,-1.6085,-1.6095,-1.6173,-1.5869,-1.5801,-1.6113,-1.5918,-1.5723,-1.5635,-1.5673,-1.5674,-1.5625,-1.5596,-1.5635,-1.5557,-1.5664,-1.5498,-1.5059,-1.5283,-1.5469,-0.1941,-0.189,-0.1903,-0.1866,-0.1791,-0.1745,-0.171,-0.184,-0.3292,-0.4564,-0.5582,-0.6686,-0.7537,-0.8137,-0.8184,-0.8485,-0.8981,-0.8981,-0.9225,-0.9579,-0.9624,-0.9624,-0.9624,-0.9624,-0.9624,-0.9624,-0.9624,-0.9624,-0.9624,-0.9624,-0.9624,-0.9571,-0.9531,-0.9397,-0.9273,-0.8881,-0.8706,-0.8702,-0.8657,-0.8616,-0.8604,-0.8203,-0.7979,-0.7898,-0.7464,-0.7155,-0.6989,-0.6887,-0.6788,-0.6574,-0.657,-0.7147,-0.8404,-0.8522,-0.9134,-1.046,-1.0586,-1.0586,-1.0586,-1.074,-1.0955,-1.1209,-1.1496,-1.179,-1.2078,-1.1943,-1.1932,-1.2215,-1.2213,-1.2297,-1.2549,-1.2489,-1.2562,-1.2826,-1.2863,-1.2973,-1.3156,-1.3441,-1.3901,-1.4495,-1.5086,-1.5675,-1.63,-1.6783,-1.6941,-1.6768,-1.6348,-1.5938,-1.5488,-1.5742,-1.5927,-1.5762,-1.5879,-1.5908,-1.5752,-1.5713,-1.5713,-1.5713,-1.5547,-1.5508,-1.5684,-1.5508,-1.5439,-1.542,-1.542,-1.542,-1.542,-1.542,-1.542,-1.542,-1.542,-1.5303,-1.5195,-1.5293,-1.5391,-0.1945,-0.1898,-0.1922,-0.1883,-0.18,-0.1733,-0.1704,-0.1751,-0.251,-0.3425,-0.4526,-0.5834,-0.6986,-0.7939,-0.7988,-0.8287,-0.8676,-0.8775,-0.9027,-0.948,-0.9579,-0.9624,-0.9624,-0.9624,-0.9624,-0.9624,-0.9624,-0.9624,-0.9624,-0.9624,-0.9624,-0.9608,-0.9445,-0.9404,-0.94,-0.8999,-0.884,-0.8869,-0.8678,-0.8616,-0.8604,-0.8243,-0.8057,-0.7983,-0.7581,-0.738,-0.7442,-0.7372,-0.7212,-0.7077,-0.7199,-0.7681,-0.8494,-0.8733,-0.9359,-1.0441,-1.0586,-1.0626,-1.0707,-1.0989,-1.1289,-1.151,-1.1797,-1.2064,-1.2251,-1.2098,-1.2094,-1.2265,-1.2291,-1.2298,-1.2342,-1.2372,-1.2452,-1.2599,-1.2636,-1.2746,-1.29,-1.29,-1.3107,-1.3628,-1.421,-1.4841,-1.5689,-1.6567,-1.6989,-1.686,-1.6416,-1.5968,-1.5635,-1.5488,-1.542,-1.542,-1.542,-1.5449,-1.542,-1.543,-1.5439,-1.542,-1.542,-1.543,-1.5449,-1.543,-1.542,-1.542,-1.542,-1.542,-1.542,-1.542,-1.542,-1.542,-1.542,-1.541,-1.5391,-1.5391,-1.542,-0.1957,-0.1929,-0.1869,-0.1836,-0.177,-0.1742,-0.1705,-0.1697,-0.1745,-0.2371,-0.3575,-0.5482,-0.6936,-0.7889,-0.7988,-0.8184,-0.8478,-0.8676,-0.8928,-0.9232,-0.948,-0.9624,-0.9579,-0.9575,-0.9624,-0.9575,-0.9579,-0.9579,-0.9579,-0.9575,-0.9624,-0.9604,-0.949,-0.9412,-0.9367,-0.9007,-0.8909,-0.906,-0.8739,-0.8616,-0.86,-0.8369,-0.8187,-0.8012,-0.7817,-0.7936,-0.8203,-0.8253,-0.8187,-0.8115,-0.8714,-0.8992,-0.8884,-0.9448,-1.0072,-1.0556,-1.06,-1.07,-1.0988,-1.1504,-1.1812,-1.1879,-1.2084,-1.2258,-1.2298,-1.2278,-1.2258,-1.2305,-1.2305,-1.2305,-1.2305,-1.2452,-1.2556,-1.2522,-1.2682,-1.29,-1.2842,-1.29,-1.3171,-1.3903,-1.3819,-1.4441,-1.5841,-1.6339,-1.6599,-1.7025,-1.656,-1.6095,-1.5889,-1.5605,-1.542,-1.542,-1.542,-1.542,-1.542,-1.542,-1.542,-1.542,-1.542,-1.542,-1.542,-1.542,-1.542,-1.542,-1.542,-1.542,-1.542,-1.542,-1.542,-1.542,-1.542,-1.542,-1.542,-1.542,-1.542,-0.1959,-0.1871,-0.1871,-0.1836,-0.1776,-0.1761,-0.172,-0.17,-0.1661,-0.2243,-0.3325,-0.4828,-0.6029,-0.7089,-0.769,-0.8137,-0.8382,-0.8531,-0.873,-0.8981,-0.9076,-0.9126,-0.9126,-0.9126,-0.9126,-0.9126,-0.9282,-0.9381,-0.9381,-0.9529,-0.9624,-0.9571,-0.9547,-0.9514,-0.9498,-0.9263,-0.9224,-0.9286,-0.9007,-0.8832,-0.8694,-0.8434,-0.8256,-0.8158,-0.791,-0.7857,-0.8,-0.7926,-0.7775,-0.7674,-0.8368,-0.8872,-0.9042,-0.9637,-1.0238,-1.0763,-1.0847,-1.0894,-1.1022,-1.1578,-1.1906,-1.1906,-1.2174,-1.2305,-1.2305,-1.2305,-1.2305,-1.2305,-1.2305,-1.2305,-1.2298,-1.2378,-1.2348,-1.2236,-1.226,-1.2303,-1.2303,-1.2303,-1.2447,-1.2763,-1.3307,-1.3846,-1.4665,-1.5696,-1.6285,-1.6459,-1.6296,-1.6216,-1.5811,-1.5518,-1.5439,-1.542,-1.542,-1.542,-1.542,-1.542,-1.542,-1.542,-1.542,-1.542,-1.542,-1.542,-1.542,-1.542,-1.542,-1.542,-1.542,-1.542,-1.542,-1.542,-1.542,-1.542,-1.542,-1.542,-1.542,-0.1956,-0.1943,-0.1926,-0.1889,-0.1777,-0.1766,-0.1725,-0.1701,-0.1666,-0.2096,-0.2825,-0.3874,-0.4977,-0.6082,-0.7388,-0.8088,-0.8283,-0.8382,-0.8531,-0.8676,-0.8775,-0.8775,-0.8775,-0.8775,-0.8775,-0.8829,-0.9031,-0.9133,-0.9236,-0.948,-0.9624,-0.9624,-0.9624,-0.9624,-0.9608,-0.9445,-0.9429,-0.9405,-0.9218,-0.9031,-0.8873,-0.8597,-0.839,-0.8276,-0.8033,-0.7929,-0.8105,-0.7966,-0.788,-0.7965,-0.8504,-0.9062,-0.9591,-0.9896,-1.0299,-1.0817,-1.1029,-1.1116,-1.1116,-1.1657,-1.2027,-1.204,-1.2191,-1.2305,-1.2305,-1.2305,-1.2305,-1.2305,-1.2305,-1.2305,-1.2305,-1.2305,-1.2178,-1.1953,-1.1906,-1.1906,-1.1913,-1.1906,-1.1946,-1.2098,-1.2825,-1.3454,-1.3732,-1.5008,-1.5989,-1.5775,-1.5826,-1.604,-1.5508,-1.531,-1.5177,-1.5352,-1.542,-1.542,-1.542,-1.542,-1.542,-1.542,-1.542,-1.542,-1.542,-1.542,-1.542,-1.542,-1.542,-1.542,-1.542,-1.542,-1.542,-1.542,-1.542,-1.542,-1.542,-1.542,-1.542,-0.1949,-0.1964,-0.1911,-0.1869,-0.1776,-0.1747,-0.1707,-0.17,-0.1646,-0.1669,-0.1869,-0.2873,-0.3875,-0.5027,-0.6983,-0.7988,-0.8041,-0.8283,-0.8382,-0.8432,-0.8676,-0.8775,-0.8775,-0.8775,-0.8775,-0.8775,-0.8829,-0.8981,-0.9232,-0.948,-0.9624,-0.9624,-0.9624,-0.9624,-0.9604,-0.9458,-0.9441,-0.9543,-0.9291,-0.9096,-0.9056,-0.8885,-0.8625,-0.8325,-0.8101,-0.8239,-0.8744,-0.8735,-0.8917,-0.9691,-0.9675,-0.9988,-1.0491,-1.0342,-1.0328,-1.0638,-1.1116,-1.1375,-1.1442,-1.1937,-1.2258,-1.2271,-1.2278,-1.2305,-1.2305,-1.2305,-1.2305,-1.2305,-1.2305,-1.2305,-1.2271,-1.2285,-1.2164,-1.1919,-1.1899,-1.1906,-1.1906,-1.1906,-1.2004,-1.2228,-1.2535,-1.2974,-1.3787,-1.47,-1.5236,-1.5229,-1.4866,-1.4703,-1.5269,-1.4958,-1.4848,-1.5186,-1.5352,-1.5381,-1.541,-1.542,-1.542,-1.542,-1.542,-1.542,-1.542,-1.542,-1.542,-1.542,-1.542,-1.542,-1.542,-1.542,-1.542,-1.542,-1.542,-1.542,-1.542,-1.542,-1.542,-0.1943,-0.1915,-0.1874,-0.184,-0.1806,-0.1755,-0.1722,-0.1701,-0.1663,-0.1635,-0.177,-0.2723,-0.3423,-0.3874,-0.6032,-0.7338,-0.7939,-0.8137,-0.8137,-0.8137,-0.8233,-0.8283,-0.8283,-0.8283,-0.8382,-0.8531,-0.8722,-0.9027,-0.943,-0.9583,-0.9624,-0.9624,-0.9624,-0.9624,-0.9616,-0.9563,-0.9567,-0.9558,-0.9441,-0.9332,-0.9116,-0.9031,-0.8828,-0.8479,-0.817,-0.8102,-0.832,-0.8065,-0.8318,-0.9112,-0.915,-0.9449,-1.01,-1.0395,-1.0616,-1.087,-1.1383,-1.171,-1.175,-1.2078,-1.2305,-1.2305,-1.2305,-1.2305,-1.2305,-1.2305,-1.2305,-1.2305,-1.2305,-1.2245,-1.2104,-1.2184,-1.2104,-1.171,-1.1785,-1.1879,-1.1906,-1.1906,-1.2013,-1.2225,-1.2372,-1.2629,-1.3142,-1.3781,-1.4229,-1.4361,-1.4483,-1.4664,-1.4754,-1.4472,-1.4386,-1.4851,-1.4934,-1.4942,-1.5381,-1.541,-1.542,-1.542,-1.542,-1.542,-1.542,-1.542,-1.542,-1.542,-1.542,-1.542,-1.542,-1.542,-1.542,-1.542,-1.542,-1.542,-1.542,-1.542,-1.542,-0.1921,-0.186,-0.1845,-0.1823,-0.1791,-0.1807,-0.1777,-0.17,-0.1664,-0.1636,-0.1771,-0.2371,-0.2873,-0.3374,-0.4728,-0.6182,-0.7441,-0.7839,-0.7988,-0.7988,-0.7988,-0.7988,-0.7988,-0.7988,-0.8091,-0.8287,-0.8531,-0.8878,-0.9179,-0.9327,-0.9377,-0.948,-0.9377,-0.9377,-0.943,-0.9377,-0.9327,-0.9327,-0.9377,-0.9231,-0.9068,-0.898,-0.8862,-0.8649,-0.8296,-0.8069,-0.8012,-0.7767,-0.7923,-0.856,-0.8437,-0.8628,-0.9335,-1.0233,-1.0702,-1.0816,-1.1486,-1.1906,-1.194,-1.2138,-1.2305,-1.2305,-1.2305,-1.2305,-1.2305,-1.2305,-1.2305,-1.2305,-1.2305,-1.2184,-1.202,-1.2044,-1.1917,-1.1436,-1.1463,-1.1618,-1.1625,-1.1698,-1.1933,-1.2241,-1.2372,-1.2489,-1.2643,-1.3105,-1.3447,-1.3552,-1.3937,-1.4084,-1.4271,-1.4081,-1.3988,-1.4475,-1.4448,-1.4454,-1.4554,-1.4549,-1.5059,-1.5177,-1.5332,-1.5362,-1.542,-1.542,-1.542,-1.542,-1.542,-1.542,-1.542,-1.542,-1.542,-1.542,-1.542,-1.542,-1.542,-1.542,-1.542,-0.1879,-0.1811,-0.1827,-0.1819,-0.1785,-0.1731,-0.1705,-0.1692,-0.1643,-0.162,-0.1617,-0.1667,-0.2271,-0.3022,-0.3425,-0.4479,-0.6284,-0.7338,-0.7889,-0.7988,-0.7988,-0.7988,-0.7988,-0.7988,-0.8038,-0.8088,-0.8283,-0.8432,-0.8528,-0.8775,-0.8977,-0.9084,-0.8977,-0.8981,-0.9183,-0.8977,-0.8825,-0.8878,-0.8924,-0.8931,-0.8972,-0.884,-0.8756,-0.873,-0.8459,-0.8203,-0.802,-0.7841,-0.8047,-0.8541,-0.7974,-0.7774,-0.8527,-0.9728,-1.0503,-1.0487,-1.1259,-1.1828,-1.1953,-1.2151,-1.2305,-1.2305,-1.2305,-1.2305,-1.2305,-1.2305,-1.2291,-1.2251,-1.2245,-1.2144,-1.1906,-1.1846,-1.1672,-1.1136,-1.1142,-1.1149,-1.1176,-1.1309,-1.1657,-1.2208,-1.2409,-1.2599,-1.2636,-1.2783,-1.2974,-1.31,-1.3078,-1.3192,-1.373,-1.3611,-1.3647,-1.3884,-1.3899,-1.3808,-1.3666,-1.3601,-1.4312,-1.4903,-1.5118,-1.5245,-1.5362,-1.542,-1.542,-1.542,-1.542,-1.542,-1.542,-1.542,-1.542,-1.542,-1.542,-1.542,-1.542,-1.542,-1.542,-0.187,-0.1826,-0.1813,-0.1791,-0.1815,-0.1721,-0.1694,-0.1724,-0.1633,-0.1566,-0.1566,-0.1566,-0.1819,-0.2221,-0.2873,-0.3976,-0.5329,-0.6381,-0.7288,-0.7892,-0.7992,-0.7988,-0.7988,-0.7988,-0.8084,-0.8283,-0.8528,-0.8676,-0.8676,-0.8726,-0.8878,-0.8878,-0.8829,-0.8829,-0.8931,-0.8829,-0.8775,-0.8825,-0.8981,-0.8995,-0.8824,-0.8933,-0.8858,-0.867,-0.8532,-0.8337,-0.8032,-0.7849,-0.8108,-0.8641,-0.794,-0.774,-0.8314,-0.8934,-0.9685,-1.0486,-1.1022,-1.1616,-1.2105,-1.2238,-1.2291,-1.2305,-1.2305,-1.2305,-1.2305,-1.2305,-1.2218,-1.2094,-1.2033,-1.1817,-1.139,-1.1296,-1.1263,-1.1249,-1.1262,-1.1329,-1.151,-1.181,-1.2078,-1.2238,-1.2335,-1.2378,-1.2415,-1.2489,-1.2636,-1.282,-1.2831,-1.3007,-1.3037,-1.3047,-1.2953,-1.322,-1.3138,-1.3139,-1.3122,-1.3139,-1.3532,-1.4154,-1.449,-1.4971,-1.5147,-1.5264,-1.5294,-1.542,-1.542,-1.542,-1.542,-1.542,-1.542,-1.542,-1.542,-1.542,-1.542,-1.542,-1.542,-0.1851,-0.1821,-0.1791,-0.1823,-0.1799,-0.1707,-0.1732,-0.1658,-0.163,-0.1566,-0.1566,-0.1566,-0.1566,-0.1717,-0.2321,-0.3425,-0.4774,-0.5527,-0.6659,-0.7899,-0.8005,-0.7992,-0.7988,-0.7988,-0.8091,-0.8233,-0.8432,-0.8478,-0.8482,-0.8531,-0.8531,-0.863,-0.8528,-0.8581,-0.8627,-0.8577,-0.8531,-0.8524,-0.8723,-0.8739,-0.8685,-0.878,-0.8798,-0.8678,-0.8536,-0.8312,-0.8028,-0.7894,-0.795,-0.8137,-0.7748,-0.769,-0.801,-0.8736,-0.9536,-1.0305,-1.1144,-1.1818,-1.2224,-1.2184,-1.2198,-1.2258,-1.2204,-1.2204,-1.2271,-1.2305,-1.2204,-1.2071,-1.1973,-1.1759,-1.1396,-1.1096,-1.1102,-1.1236,-1.1129,-1.1296,-1.163,-1.1964,-1.2178,-1.2245,-1.2378,-1.2409,-1.2415,-1.2519,-1.2562,-1.2709,-1.282,-1.2824,-1.2685,-1.2639,-1.2665,-1.2633,-1.2487,-1.2555,-1.2699,-1.2742,-1.2834,-1.329,-1.3713,-1.4312,-1.4765,-1.4883,-1.4942,-1.5294,-1.542,-1.542,-1.542,-1.542,-1.542,-1.542,-1.542,-1.542,-1.542,-1.542,-1.542,-0.1823,-0.1793,-0.1818,-0.1804,-0.1792,-0.174,-0.1714,-0.1705,-0.163,-0.1566,-0.1566,-0.1566,-0.1566,-0.1617,-0.1918,-0.3074,-0.4576,-0.5127,-0.6327,-0.7746,-0.8109,-0.7998,-0.8075,-0.8005,-0.8055,-0.8072,-0.8052,-0.8038,-0.8088,-0.8088,-0.8137,-0.8336,-0.8187,-0.8137,-0.8333,-0.8137,-0.8038,-0.812,-0.8199,-0.8353,-0.8534,-0.8502,-0.854,-0.8722,-0.8499,-0.8247,-0.7987,-0.7825,-0.769,-0.7547,-0.7518,-0.7514,-0.7812,-0.8993,-0.9701,-0.9975,-1.1397,-1.1977,-1.2181,-1.2087,-1.2013,-1.2118,-1.1977,-1.1944,-1.2124,-1.2138,-1.2098,-1.2024,-1.1893,-1.1772,-1.1598,-1.127,-1.0982,-1.0935,-1.0921,-1.1022,-1.1376,-1.1737,-1.2058,-1.2288,-1.2452,-1.2562,-1.2526,-1.2673,-1.2746,-1.2783,-1.282,-1.2717,-1.2571,-1.2424,-1.2357,-1.2219,-1.2102,-1.2055,-1.2199,-1.2163,-1.2234,-1.2374,-1.2873,-1.3489,-1.4291,-1.4529,-1.4677,-1.503,-1.542,-1.542,-1.542,-1.542,-1.542,-1.542,-1.542,-1.542,-1.542,-1.542,-1.542,-0.1823,-0.1792,-0.1818,-0.1791,-0.1713,-0.1728,-0.1649,-0.1629,-0.1622,-0.1566,-0.1566,-0.1566,-0.1566,-0.1667,-0.2421,-0.3525,-0.4674,-0.5579,-0.6645,-0.7885,-0.8015,-0.8113,-0.816,-0.8092,-0.8102,-0.8177,-0.8042,-0.7988,-0.7988,-0.7988,-0.8041,-0.8088,-0.8038,-0.8038,-0.8088,-0.8038,-0.7988,-0.8018,-0.814,-0.8239,-0.8345,-0.844,-0.8444,-0.8355,-0.844,-0.8235,-0.7822,-0.7636,-0.7584,-0.7531,-0.7518,-0.7518,-0.7595,-0.8504,-0.9296,-0.9895,-1.0795,-1.1605,-1.188,-1.1946,-1.1817,-1.1663,-1.1568,-1.1577,-1.1637,-1.1628,-1.1557,-1.1396,-1.1249,-1.1156,-1.0988,-1.0821,-1.0727,-1.0754,-1.0955,-1.1196,-1.1415,-1.1877,-1.2225,-1.2291,-1.2342,-1.2378,-1.2415,-1.2432,-1.2469,-1.2498,-1.2531,-1.2508,-1.224,-1.2291,-1.2234,-1.2059,-1.1909,-1.1786,-1.1684,-1.1606,-1.1582,-1.1573,-1.1965,-1.2483,-1.3437,-1.4201,-1.441,-1.4706,-1.5264,-1.542,-1.542,-1.542,-1.542,-1.542,-1.542,-1.542,-1.542,-1.542,-1.542,-0.1804,-0.1775,-0.1812,-0.1779,-0.1687,-0.1721,-0.1645,-0.1621,-0.1566,-0.1566,-0.1566,-0.1566,-0.1566,-0.1667,-0.222,-0.3374,-0.4776,-0.5429,-0.6642,-0.8092,-0.8306,-0.8313,-0.8269,-0.8167,-0.8187,-0.8238,-0.8113,-0.7995,-0.7988,-0.7988,-0.7988,-0.7988,-0.7988,-0.7988,-0.7988,-0.7988,-0.7988,-0.8001,-0.8039,-0.8102,-0.8146,-0.8204,-0.8191,-0.8065,-0.8138,-0.7936,-0.7516,-0.7395,-0.7411,-0.7484,-0.7518,-0.7518,-0.7557,-0.8246,-0.8889,-0.9442,-1.0432,-1.1101,-1.1001,-1.1333,-1.1464,-1.1127,-1.1098,-1.1289,-1.1375,-1.1389,-1.1282,-1.1209,-1.1076,-1.0915,-1.0801,-1.0673,-1.06,-1.0646,-1.0975,-1.1283,-1.1369,-1.1944,-1.2251,-1.2305,-1.2305,-1.2305,-1.2298,-1.2211,-1.2138,-1.2114,-1.2058,-1.1898,-1.1696,-1.1923,-1.204,-1.1853,-1.1832,-1.1808,-1.1783,-1.172,-1.172,-1.1621,-1.1682,-1.2092,-1.2721,-1.3761,-1.4267,-1.4595,-1.5079,-1.542,-1.542,-1.542,-1.542,-1.542,-1.542,-1.542,-1.542,-1.542,-1.542,-0.1779,-0.1809,-0.1802,-0.1768,-0.1724,-0.166,-0.164,-0.162,-0.1566,-0.1566,-0.1566,-0.1566,-0.1621,-0.1621,-0.2023,-0.2981,-0.4808,-0.5214,-0.6589,-0.7942,-0.8554,-0.8554,-0.8374,-0.8316,-0.8303,-0.8289,-0.8136,-0.8015,-0.7998,-0.7988,-0.7988,-0.7988,-0.7988,-0.7988,-0.7988,-0.7988,-0.7988,-0.7984,-0.79,-0.7932,-0.7948,-0.7947,-0.7901,-0.7889,-0.7658,-0.7514,-0.7325,-0.7219,-0.7296,-0.7518,-0.7518,-0.7518,-0.7595,-0.8241,-0.8661,-0.8945,-0.997,-1.0472,-0.991,-1.0516,-1.0791,-1.0322,-1.0444,-1.081,-1.0826,-1.0858,-1.0906,-1.0659,-1.0976,-1.0915,-1.0855,-1.0713,-1.0613,-1.0653,-1.0888,-1.1156,-1.1409,-1.1917,-1.2258,-1.2271,-1.2271,-1.2305,-1.2231,-1.2071,-1.1913,-1.1957,-1.1832,-1.1598,-1.1498,-1.1614,-1.1628,-1.1465,-1.1627,-1.1873,-1.1885,-1.1917,-1.1945,-1.1894,-1.1934,-1.2153,-1.236,-1.3158,-1.3951,-1.4501,-1.4799,-1.5146,-1.542,-1.542,-1.5391,-1.542,-1.542,-1.542,-1.542,-1.542,-1.542,-0.1791,-0.1781,-0.1734,-0.1707,-0.1688,-0.1647,-0.1624,-0.1618,-0.1566,-0.1618,-0.1618,-0.1618,-0.1631,-0.1702,-0.2396,-0.3679,-0.4952,-0.5798,-0.7173,-0.8318,-0.8642,-0.8682,-0.8584,-0.8506,-0.8442,-0.8394,-0.8286,-0.8157,-0.8072,-0.7988,-0.7988,-0.7988,-0.7988,-0.7988,-0.7988,-0.7988,-0.7988,-0.7938,-0.7798,-0.7861,-0.7949,-0.7741,-0.7652,-0.7651,-0.7379,-0.7326,-0.7479,-0.734,-0.7304,-0.7446,-0.7518,-0.7518,-0.7672,-0.8203,-0.8589,-0.8779,-0.9352,-0.9715,-0.9403,-0.9387,-0.9304,-0.9063,-0.9144,-0.907,-0.9142,-0.969,-0.9646,-0.9492,-1.0032,-1.0521,-1.0611,-1.064,-1.055,-1.0611,-1.0956,-1.1282,-1.1435,-1.1757,-1.2027,-1.208,-1.2184,-1.2305,-1.2285,-1.2011,-1.1899,-1.1866,-1.1643,-1.1389,-1.1376,-1.1404,-1.1458,-1.1431,-1.1526,-1.182,-1.1847,-1.1928,-1.2021,-1.2066,-1.214,-1.2167,-1.2389,-1.2516,-1.3279,-1.3909,-1.4412,-1.4758,-1.5098,-1.5332,-1.5274,-1.5332,-1.542,-1.542,-1.542,-1.542,-1.542,-0.1787,-0.1828,-0.1754,-0.173,-0.1701,-0.1671,-0.165,-0.1637,-0.1622,-0.1625,-0.1636,-0.1638,-0.1654,-0.1732,-0.2288,-0.314,-0.4448,-0.6052,-0.7449,-0.8405,-0.8743,-0.8815,-0.8808,-0.8723,-0.8642,-0.8492,-0.8333,-0.8191,-0.8025,-0.7992,-0.7988,-0.7988,-0.7988,-0.7988,-0.7988,-0.7988,-0.7988,-0.7951,-0.7824,-0.7839,-0.7931,-0.7649,-0.7403,-0.7399,-0.7221,-0.7237,-0.7338,-0.7361,-0.7313,-0.7393,-0.7446,-0.7518,-0.7518,-0.7906,-0.8131,-0.8214,-0.8686,-0.8655,-0.8337,-0.8598,-0.871,-0.809,-0.8296,-0.849,-0.8554,-0.8871,-0.8844,-0.8716,-0.9145,-0.9684,-1.004,-1.0072,-1.0111,-1.0328,-1.0824,-1.1094,-1.1037,-1.1549,-1.2071,-1.2127,-1.2225,-1.2191,-1.2084,-1.187,-1.159,-1.1436,-1.1356,-1.1162,-1.1323,-1.139,-1.1645,-1.1665,-1.1672,-1.1728,-1.1813,-1.1888,-1.2047,-1.2142,-1.2294,-1.2292,-1.2395,-1.246,-1.2599,-1.3206,-1.3787,-1.4312,-1.4647,-1.4883,-1.5118,-1.5323,-1.5381,-1.5391,-1.542,-1.542,-1.542,-0.1784,-0.1814,-0.1785,-0.1763,-0.1715,-0.1699,-0.1681,-0.1711,-0.1635,-0.164,-0.1712,-0.1717,-0.1684,-0.1705,-0.1755,-0.2343,-0.37,-0.5478,-0.71,-0.816,-0.8359,-0.8627,-0.8741,-0.8876,-0.8743,-0.8496,-0.8429,-0.8235,-0.8119,-0.7998,-0.7988,-0.7988,-0.7988,-0.7988,-0.7988,-0.7988,-0.7988,-0.7965,-0.7879,-0.7824,-0.7794,-0.7589,-0.7347,-0.7194,-0.713,-0.7155,-0.719,-0.7215,-0.732,-0.7231,-0.7385,-0.7484,-0.7518,-0.7518,-0.7518,-0.7514,-0.8016,-0.7861,-0.7526,-0.7881,-0.8081,-0.7386,-0.7777,-0.8069,-0.8096,-0.8199,-0.8199,-0.8166,-0.8361,-0.878,-0.9358,-0.9582,-0.9748,-1.0048,-1.0612,-1.0617,-1.0602,-1.1365,-1.1685,-1.2191,-1.2211,-1.2204,-1.1944,-1.1683,-1.1349,-1.1069,-1.0995,-1.0975,-1.1129,-1.1236,-1.1396,-1.1437,-1.1283,-1.127,-1.1329,-1.155,-1.176,-1.1824,-1.2059,-1.2134,-1.2127,-1.2058,-1.2104,-1.2594,-1.3163,-1.3657,-1.4043,-1.4261,-1.4588,-1.5059,-1.5235,-1.5147,-1.5235,-1.5391,-1.542,-0.1815,-0.1788,-0.1793,-0.1774,-0.1791,-0.1744,-0.1722,-0.1714,-0.1708,-0.1709,-0.1719,-0.1687,-0.1767,-0.1731,-0.1714,-0.2361,-0.3645,-0.5013,-0.6217,-0.7216,-0.7534,-0.7875,-0.8602,-0.8851,-0.871,-0.8554,-0.8435,-0.835,-0.8201,-0.8109,-0.8012,-0.7995,-0.7988,-0.7988,-0.7988,-0.7988,-0.7988,-0.7975,-0.7909,-0.7889,-0.7872,-0.7624,-0.7329,-0.718,-0.7131,-0.7111,-0.713,-0.7159,-0.7223,-0.7351,-0.7453,-0.75,-0.748,-0.748,-0.748,-0.7516,-0.748,-0.7325,-0.7134,-0.7021,-0.6979,-0.6668,-0.6806,-0.6839,-0.697,-0.7297,-0.74,-0.7222,-0.7517,-0.8149,-0.9358,-0.9338,-0.9908,-1.0362,-1.0424,-1.0392,-1.0486,-1.0657,-1.1095,-1.1923,-1.2135,-1.2055,-1.166,-1.1398,-1.1269,-1.1015,-1.0914,-1.0868,-1.0928,-1.0935,-1.0909,-1.0881,-1.0747,-1.0734,-1.0739,-1.1056,-1.1293,-1.1247,-1.1402,-1.1507,-1.1516,-1.1468,-1.1659,-1.2072,-1.2484,-1.2942,-1.3282,-1.3593,-1.4112,-1.4647,-1.4765,-1.4824,-1.5147,-1.542,-1.542,-0.1785,-0.1827,-0.1826,-0.1818,-0.1798,-0.1757,-0.1684,-0.1734,-0.1721,-0.1732,-0.1757,-0.1776,-0.1799,-0.1763,-0.176,-0.2419,-0.3483,-0.4117,-0.514,-0.6089,-0.6816,-0.7321,-0.8085,-0.8481,-0.8753,-0.8682,-0.857,-0.8367,-0.8174,-0.817,-0.8106,-0.7998,-0.7988,-0.7988,-0.7988,-0.7988,-0.7988,-0.7968,-0.7921,-0.7907,-0.7965,-0.7719,-0.7506,-0.7337,-0.7269,-0.7301,-0.7208,-0.7319,-0.7319,-0.7261,-0.7277,-0.7266,-0.7242,-0.7292,-0.7365,-0.7439,-0.7248,-0.7102,-0.6955,-0.6759,-0.6505,-0.6444,-0.6428,-0.642,-0.6453,-0.6683,-0.6829,-0.6764,-0.6764,-0.7501,-0.8547,-0.8767,-0.9037,-0.9476,-0.9703,-0.9973,-1.0225,-1.0353,-1.0886,-1.1546,-1.1568,-1.137,-1.1086,-1.097,-1.1088,-1.0989,-1.0834,-1.0774,-1.0747,-1.0787,-1.0762,-1.0782,-1.0767,-1.0653,-1.0646,-1.0819,-1.0984,-1.0942,-1.093,-1.1026,-1.1083,-1.1136,-1.1185,-1.142,-1.1839,-1.2313,-1.2634,-1.3009,-1.3614,-1.4172,-1.435,-1.4617,-1.5118,-1.542,-1.5352,-0.1807,-0.1795,-0.1802,-0.1804,-0.1799,-0.1716,-0.1707,-0.1707,-0.1744,-0.1759,-0.18,-0.1811,-0.1827,-0.1789,-0.1905,-0.2352,-0.3246,-0.3246,-0.3914,-0.4973,-0.5755,-0.6371,-0.7008,-0.774,-0.8301,-0.8227,-0.8605,-0.8387,-0.8238,-0.8221,-0.8167,-0.8079,-0.7988,-0.7988,-0.7988,-0.7988,-0.7988,-0.7988,-0.7988,-0.7985,-0.7921,-0.782,-0.7672,-0.7453,-0.7549,-0.7451,-0.7224,-0.7339,-0.7306,-0.7163,-0.7114,-0.7072,-0.6937,-0.7065,-0.7215,-0.7321,-0.7167,-0.7118,-0.6988,-0.6818,-0.6634,-0.6599,-0.6546,-0.6538,-0.6546,-0.6662,-0.6637,-0.6739,-0.681,-0.716,-0.7985,-0.8056,-0.8298,-0.8691,-0.9124,-0.9364,-0.9622,-0.9814,-0.9949,-1.0406,-1.0712,-1.0864,-1.0765,-1.0842,-1.1022,-1.0888,-1.0707,-1.074,-1.0734,-1.0881,-1.0895,-1.0949,-1.0902,-1.0754,-1.0707,-1.072,-1.0816,-1.0809,-1.0816,-1.0887,-1.0912,-1.0923,-1.0998,-1.1115,-1.1314,-1.1763,-1.2058,-1.2328,-1.2757,-1.3252,-1.3803,-1.4341,-1.4795,-1.5089,-1.5118,-0.1759,-0.1712,-0.1792,-0.1804,-0.18,-0.1718,-0.172,-0.1795,-0.179,-0.1796,-0.1809,-0.1776,-0.179,-0.1794,-0.1795,-0.1907,-0.2075,-0.2242,-0.2797,-0.3792,-0.4244,-0.4858,-0.5635,-0.6753,-0.7172,-0.7305,-0.805,-0.8541,-0.8157,-0.811,-0.8201,-0.8035,-0.7998,-0.7988,-0.7988,-0.7988,-0.7988,-0.7988,-0.7988,-0.7931,-0.7882,-0.7838,-0.7668,-0.7525,-0.7419,-0.7396,-0.7207,-0.726,-0.7165,-0.7046,-0.7057,-0.704,-0.6937,-0.6903,-0.6942,-0.7053,-0.7194,-0.735,-0.7159,-0.7017,-0.6952,-0.6878,-0.6873,-0.691,-0.6869,-0.6865,-0.6882,-0.6939,-0.6959,-0.7233,-0.778,-0.7971,-0.8449,-0.8612,-0.8655,-0.8743,-0.8883,-0.9199,-0.9377,-0.9427,-0.9771,-1.0448,-1.0754,-1.0839,-1.0929,-1.076,-1.062,-1.066,-1.0707,-1.0821,-1.0874,-1.0848,-1.0848,-1.072,-1.0673,-1.07,-1.0713,-1.0713,-1.0745,-1.0745,-1.075,-1.0787,-1.0887,-1.101,-1.1122,-1.1185,-1.1389,-1.1663,-1.1903,-1.2389,-1.3061,-1.3734,-1.441,-1.4608,-1.4746,-0.1744,-0.1705,-0.1718,-0.1788,-0.1802,-0.1789,-0.1791,-0.1802,-0.1804,-0.1814,-0.1775,-0.1787,-0.1795,-0.1795,-0.1795,-0.1795,-0.1795,-0.1795,-0.2006,-0.2721,-0.3228,-0.3841,-0.4469,-0.5404,-0.5932,-0.6158,-0.6406,-0.6412,-0.6815,-0.7755,-0.8225,-0.812,-0.8032,-0.7988,-0.7988,-0.7988,-0.7988,-0.7988,-0.7985,-0.7955,-0.7907,-0.7874,-0.7834,-0.7621,-0.7536,-0.7414,-0.7255,-0.7078,-0.6988,-0.683,-0.6796,-0.6687,-0.6645,-0.6679,-0.6753,-0.6753,-0.698,-0.7083,-0.7047,-0.7066,-0.7062,-0.7033,-0.6996,-0.6971,-0.6984,-0.7004,-0.7057,-0.7102,-0.7106,-0.7322,-0.7619,-0.7727,-0.7952,-0.8118,-0.816,-0.8393,-0.8443,-0.8536,-0.8712,-0.8746,-0.8862,-0.9529,-1.0054,-1.015,-1.0267,-1.0412,-1.0378,-1.0454,-1.0531,-1.066,-1.068,-1.0653,-1.0653,-1.062,-1.0613,-1.0626,-1.064,-1.064,-1.064,-1.0672,-1.0683,-1.0719,-1.0776,-1.0776,-1.0807,-1.0839,-1.0839,-1.1146,-1.1577,-1.1965,-1.2358,-1.3036,-1.3682,-1.3939,-1.4111,-0.179,-0.1715,-0.1707,-0.1775,-0.1804,-0.1804,-0.1809,-0.1816,-0.1817,-0.1774,-0.1789,-0.1795,-0.1795,-0.1795,-0.1795,-0.1795,-0.1795,-0.1795,-0.1782,-0.2163,-0.2609,-0.3,-0.3429,-0.4131,-0.4799,-0.4937,-0.5336,-0.5405,-0.5806,-0.6498,-0.7286,-0.7843,-0.7955,-0.7949,-0.7988,-0.7988,-0.7988,-0.7988,-0.7988,-0.7982,-0.7975,-0.7978,-0.7891,-0.7804,-0.7672,-0.7529,-0.7356,-0.7136,-0.6922,-0.6709,-0.6651,-0.6548,-0.6418,-0.6486,-0.6525,-0.6563,-0.6753,-0.69,-0.6942,-0.7035,-0.7066,-0.7118,-0.7118,-0.7171,-0.7155,-0.7126,-0.7155,-0.7281,-0.7285,-0.7358,-0.7477,-0.7536,-0.7634,-0.7668,-0.7609,-0.797,-0.8208,-0.8196,-0.8109,-0.8038,-0.8176,-0.8395,-0.8883,-0.9136,-0.9452,-0.9906,-1.0104,-1.0199,-1.0282,-1.0359,-1.0563,-1.0538,-1.0543,-1.0575,-1.06,-1.06,-1.0593,-1.0586,-1.0586,-1.0586,-1.0618,-1.0618,-1.0649,-1.0618,-1.0586,-1.0618,-1.0713,-1.0996,-1.1247,-1.1577,-1.1927,-1.2379,-1.2833,-1.3156,-1.3629,-0.1804,-0.1799,-0.1717,-0.1724,-0.1807,-0.1804,-0.1821,-0.1787,-0.1789,-0.1789,-0.179,-0.1795,-0.1794,-0.1792,-0.179,-0.1791,-0.1795,-0.1795,-0.1787,-0.1842,-0.1905,-0.2124,-0.2504,-0.3107,-0.3656,-0.378,-0.4146,-0.4702,-0.5134,-0.4948,-0.5811,-0.6532,-0.7089,-0.7675,-0.7839,-0.7587,-0.7839,-0.7939,-0.7988,-0.7988,-0.7988,-0.7978,-0.7917,-0.7831,-0.7682,-0.7529,-0.738,-0.7197,-0.693,-0.6722,-0.6641,-0.6508,-0.6347,-0.6342,-0.6374,-0.6412,-0.6525,-0.6689,-0.6832,-0.7057,-0.7279,-0.7397,-0.7449,-0.7404,-0.7388,-0.7445,-0.7452,-0.7427,-0.7411,-0.7435,-0.751,-0.7518,-0.7518,-0.7518,-0.751,-0.7562,-0.7757,-0.7744,-0.7643,-0.7397,-0.7486,-0.7774,-0.775,-0.8062,-0.8657,-0.9125,-0.9274,-0.937,-0.9737,-0.9917,-1.0309,-1.0463,-1.0487,-1.0538,-1.062,-1.0613,-1.0593,-1.0586,-1.0586,-1.0586,-1.0586,-1.0586,-1.0586,-1.0586,-1.0586,-1.0586,-1.0618,-1.087,-1.109,-1.1185,-1.1469,-1.1912,-1.2256,-1.2597,-1.3195,-0.1778,-0.1776,-0.1765,-0.1767,-0.1778,-0.1778,-0.1785,-0.1793,-0.1795,-0.1783,-0.1825,-0.1785,-0.1785,-0.1828,-0.1824,-0.1778,-0.1789,-0.1774,-0.1826,-0.1775,-0.1782,-0.1782,-0.2058,-0.223,-0.2454,-0.2596,-0.2998,-0.3103,-0.3067,-0.3638,-0.407,-0.4804,-0.5641,-0.5898,-0.6158,-0.6789,-0.7288,-0.7839,-0.7939,-0.7988,-0.7988,-0.7988,-0.7961,-0.7953,-0.7804,-0.7662,-0.7502,-0.7265,-0.6997,-0.6763,-0.6624,-0.6494,-0.6344,-0.6306,-0.63,-0.63,-0.6412,-0.6525,-0.6753,-0.7026,-0.7296,-0.7446,-0.7514,-0.7518,-0.748,-0.7518,-0.7518,-0.7514,-0.7518,-0.7518,-0.7518,-0.7518,-0.7518,-0.7518,-0.7502,-0.7431,-0.7419,-0.7477,-0.7363,-0.7216,-0.7133,-0.7182,-0.7061,-0.6973,-0.7659,-0.8328,-0.8436,-0.8619,-0.8999,-0.9394,-0.9746,-1.0012,-1.0019,-1.0277,-1.0367,-1.0443,-1.0561,-1.0555,-1.0523,-1.0586,-1.0586,-1.0586,-1.0586,-1.0586,-1.0586,-1.0586,-1.0649,-1.0814,-1.094,-1.0996,-1.1178,-1.1399,-1.1752,-1.2093,-1.2573,-0.1795,-0.1795,-0.1795,-0.1795,-0.1795,-0.1795,-0.1795,-0.1795,-0.1795,-0.1784,-0.1819,-0.1778,-0.1826,-0.1809,-0.1806,-0.1814,-0.1826,-0.1817,-0.1815,-0.1825,-0.1783,-0.178,-0.1777,-0.1834,-0.1954,-0.178,-0.1818,-0.1921,-0.2062,-0.2574,-0.2824,-0.3182,-0.3587,-0.4083,-0.5137,-0.5491,-0.6334,-0.6883,-0.7388,-0.7487,-0.7487,-0.7839,-0.7988,-0.7941,-0.7831,-0.7692,-0.7502,-0.7213,-0.6956,-0.6736,-0.6607,-0.6457,-0.6354,-0.63,-0.63,-0.63,-0.6296,-0.6374,-0.6641,-0.6907,-0.7219,-0.7369,-0.7369,-0.7407,-0.7484,-0.7518,-0.7518,-0.7518,-0.7518,-0.7518,-0.7518,-0.7518,-0.7518,-0.7518,-0.7518,-0.7452,-0.7399,-0.7378,-0.7241,-0.7101,-0.6955,-0.6841,-0.6769,-0.6705,-0.6985,-0.7602,-0.7852,-0.8002,-0.8272,-0.8657,-0.9074,-0.9277,-0.9387,-0.9694,-1.0033,-1.0026,-1.004,-1.0199,-1.0231,-1.0555,-1.0586,-1.0555,-1.0555,-1.0586,-1.0586,-1.0586,-1.0649,-1.0719,-1.0776,-1.0839,-1.0888,-1.0877,-1.1316,-1.1602,-1.175,-0.1795,-0.1795,-0.1795,-0.1795,-0.1795,-0.1795,-0.1795,-0.1794,-0.1791,-0.1785,-0.1773,-0.1759,-0.1802,-0.1797,-0.1793,-0.1804,-0.1811,-0.1809,-0.1818,-0.1785,-0.1791,-0.1792,-0.1792,-0.1791,-0.1786,-0.1813,-0.1808,-0.179,-0.1744,-0.1974,-0.1966,-0.1956,-0.2381,-0.3042,-0.4694,-0.4817,-0.4878,-0.5077,-0.6034,-0.6334,-0.6587,-0.7288,-0.769,-0.7684,-0.7759,-0.7668,-0.7529,-0.7179,-0.6889,-0.6719,-0.6586,-0.6477,-0.6327,-0.6323,-0.632,-0.6303,-0.63,-0.6374,-0.6598,-0.6788,-0.6984,-0.718,-0.7215,-0.7253,-0.7407,-0.7484,-0.7442,-0.7365,-0.7446,-0.7484,-0.7484,-0.7518,-0.7518,-0.7518,-0.7518,-0.7439,-0.7378,-0.7378,-0.7265,-0.7086,-0.6873,-0.6672,-0.6611,-0.655,-0.6592,-0.6881,-0.7231,-0.7456,-0.764,-0.7902,-0.8271,-0.8668,-0.8813,-0.9025,-0.9332,-0.9421,-0.9524,-0.9716,-0.9843,-1.0009,-1.0263,-1.0326,-1.0358,-1.0523,-1.0586,-1.0586,-1.0586,-1.0586,-1.0609,-1.0594,-1.0258,-1.0292,-1.0767,-1.1053,-1.1068,-0.1795,-0.1795,-0.1795,-0.1795,-0.1795,-0.1795,-0.1795,-0.1791,-0.1828,-0.1798,-0.1716,-0.1712,-0.1707,-0.1702,-0.1715,-0.1731,-0.1802,-0.1805,-0.1821,-0.1792,-0.1795,-0.1795,-0.1795,-0.1793,-0.1789,-0.1782,-0.1776,-0.1826,-0.1757,-0.1793,-0.1784,-0.1778,-0.1804,-0.2475,-0.3466,-0.3865,-0.4024,-0.4724,-0.5177,-0.5377,-0.5477,-0.6381,-0.7086,-0.7126,-0.7492,-0.7695,-0.7594,-0.7196,-0.6923,-0.6763,-0.6644,-0.6505,-0.6385,-0.6364,-0.6385,-0.633,-0.63,-0.6338,-0.6412,-0.649,-0.6679,-0.6872,-0.7022,-0.7022,-0.7096,-0.7096,-0.7096,-0.7173,-0.7253,-0.7296,-0.7296,-0.7446,-0.7484,-0.7518,-0.7498,-0.7387,-0.7346,-0.7399,-0.7342,-0.7171,-0.6963,-0.6931,-0.6838,-0.6729,-0.67,-0.6643,-0.6983,-0.6986,-0.708,-0.717,-0.7403,-0.7986,-0.8304,-0.8449,-0.86,-0.8695,-0.878,-0.8909,-0.9037,-0.9198,-0.9454,-0.9875,-1.0168,-1.0333,-1.046,-1.0586,-1.0566,-1.0526,-1.0439,-1.0299,-0.9937,-0.9839,-1.0258,-1.0296,-1.0087,-0.1795,-0.1795,-0.1795,-0.1795,-0.1795,-0.1795,-0.179,-0.1774,-0.1792,-0.1754,-0.1685,-0.1688,-0.1734,-0.1728,-0.1692,-0.171,-0.1789,-0.1801,-0.1821,-0.1791,-0.1795,-0.1795,-0.1795,-0.1794,-0.1793,-0.1794,-0.1793,-0.1788,-0.1823,-0.1811,-0.1788,-0.1764,-0.1753,-0.2087,-0.2572,-0.2801,-0.2943,-0.3638,-0.4124,-0.4924,-0.5327,-0.6082,-0.7036,-0.7251,-0.7498,-0.7767,-0.76,-0.7307,-0.7011,-0.6878,-0.6729,-0.6593,-0.6484,-0.6429,-0.6439,-0.6344,-0.63,-0.63,-0.63,-0.63,-0.649,-0.6641,-0.6753,-0.683,-0.6865,-0.6942,-0.6942,-0.698,-0.7022,-0.7065,-0.7142,-0.7292,-0.7411,-0.7407,-0.746,-0.7349,-0.7391,-0.7443,-0.7403,-0.7237,-0.7098,-0.7122,-0.7094,-0.7,-0.6906,-0.6833,-0.6759,-0.6684,-0.6627,-0.6707,-0.6792,-0.7241,-0.7528,-0.7563,-0.7735,-0.7972,-0.8079,-0.8134,-0.8328,-0.8522,-0.8973,-0.9422,-0.9779,-1.0174,-1.0364,-1.0541,-1.0519,-1.0452,-1.0238,-0.9916,-0.9544,-0.9575,-0.9812,-0.9701,-0.9473,-0.1793,-0.1793,-0.1793,-0.1791,-0.179,-0.1782,-0.1769,-0.1797,-0.1742,-0.173,-0.1696,-0.1719,-0.171,-0.1666,-0.169,-0.1705,-0.1718,-0.1741,-0.1769,-0.1788,-0.1795,-0.1795,-0.1793,-0.1791,-0.1785,-0.1789,-0.1787,-0.1774,-0.1807,-0.1796,-0.1768,-0.1734,-0.1726,-0.1806,-0.1895,-0.1947,-0.2046,-0.2584,-0.3323,-0.3924,-0.4277,-0.6179,-0.6833,-0.7143,-0.7501,-0.7769,-0.7655,-0.7365,-0.7156,-0.698,-0.6825,-0.6661,-0.6569,-0.6515,-0.6422,-0.6344,-0.63,-0.63,-0.63,-0.63,-0.63,-0.6412,-0.6525,-0.6676,-0.6753,-0.6753,-0.6753,-0.6791,-0.683,-0.6865,-0.6942,-0.7099,-0.7261,-0.7334,-0.7407,-0.7425,-0.7464,-0.749,-0.7399,-0.7301,-0.7224,-0.7183,-0.7147,-0.7114,-0.6939,-0.6849,-0.6712,-0.6611,-0.6554,-0.6497,-0.6539,-0.6568,-0.6739,-0.6602,-0.6815,-0.7279,-0.7372,-0.7423,-0.7777,-0.8037,-0.849,-0.8877,-0.923,-0.9652,-1.0238,-1.0478,-1.0508,-1.0271,-0.9903,-0.9574,-0.9353,-0.9213,-0.9418,-0.9329,-0.9146,-0.175,-0.1733,-0.1754,-0.175,-0.1729,-0.1762,-0.1748,-0.1737,-0.1719,-0.1658,-0.1641,-0.1634,-0.1633,-0.1634,-0.1681,-0.1699,-0.1722,-0.1752,-0.1779,-0.1791,-0.1788,-0.1793,-0.1787,-0.1774,-0.1822,-0.1818,-0.1816,-0.1811,-0.18,-0.1786,-0.1754,-0.1721,-0.171,-0.164,-0.1637,-0.1698,-0.1635,-0.1827,-0.2573,-0.2873,-0.3425,-0.4977,-0.5677,-0.6148,-0.7116,-0.7353,-0.7446,-0.732,-0.7166,-0.7041,-0.693,-0.6763,-0.6535,-0.6508,-0.645,-0.6323,-0.63,-0.63,-0.63,-0.63,-0.63,-0.63,-0.6374,-0.6377,-0.6451,-0.6528,-0.6528,-0.6563,-0.6637,-0.6676,-0.6788,-0.6945,-0.7146,-0.7257,-0.7369,-0.748,-0.7518,-0.7506,-0.7419,-0.7391,-0.7317,-0.7187,-0.7192,-0.7033,-0.6906,-0.682,-0.6722,-0.6578,-0.6468,-0.6444,-0.642,-0.642,-0.642,-0.642,-0.642,-0.6749,-0.6749,-0.6778,-0.7134,-0.7456,-0.7749,-0.8134,-0.8587,-0.9198,-0.9881,-1.0301,-1.0579,-1.0238,-0.9793,-0.9619,-0.9434,-0.9165,-0.8985,-0.8971,-0.8945,-0.172,-0.1706,-0.1711,-0.175,-0.1671,-0.1665,-0.1657,-0.1647,-0.1645,-0.1633,-0.1568,-0.1567,-0.1566,-0.1625,-0.1664,-0.1687,-0.169,-0.1727,-0.1752,-0.1754,-0.1772,-0.1763,-0.181,-0.1807,-0.1799,-0.1792,-0.1785,-0.173,-0.1725,-0.1703,-0.1672,-0.1645,-0.1645,-0.1635,-0.1627,-0.1631,-0.1631,-0.1774,-0.207,-0.217,-0.2873,-0.3823,-0.4524,-0.5014,-0.624,-0.6571,-0.6787,-0.6726,-0.6821,-0.6798,-0.67,-0.6829,-0.6586,-0.6511,-0.6416,-0.6303,-0.63,-0.63,-0.63,-0.63,-0.63,-0.63,-0.63,-0.63,-0.63,-0.6335,-0.6335,-0.6374,-0.6447,-0.6525,-0.6676,-0.6868,-0.7026,-0.7223,-0.7334,-0.748,-0.7518,-0.7518,-0.7464,-0.7447,-0.737,-0.7227,-0.7139,-0.6972,-0.6861,-0.6763,-0.6661,-0.6518,-0.6465,-0.6436,-0.642,-0.642,-0.642,-0.642,-0.642,-0.642,-0.6486,-0.6519,-0.6618,-0.6909,-0.7068,-0.7521,-0.8134,-0.8844,-0.9614,-0.9907,-1.0098,-1.0069,-0.9793,-0.9597,-0.9336,-0.9038,-0.8878,-0.8905,-0.8878,-0.1699,-0.1693,-0.1669,-0.1643,-0.162,-0.1643,-0.1641,-0.1615,-0.1618,-0.1566,-0.1566,-0.1562,-0.1609,-0.1613,-0.1643,-0.171,-0.1671,-0.1699,-0.172,-0.1706,-0.1734,-0.179,-0.1729,-0.1726,-0.1716,-0.1705,-0.1702,-0.1705,-0.1699,-0.1682,-0.1656,-0.162,-0.162,-0.1615,-0.161,-0.1611,-0.1609,-0.1707,-0.2156,-0.2558,-0.302,-0.3874,-0.4674,-0.4624,-0.4866,-0.5014,-0.5144,-0.5517,-0.6045,-0.6164,-0.6268,-0.6476,-0.6384,-0.6222,-0.6142,-0.6187,-0.6103,-0.618,-0.6219,-0.63,-0.63,-0.63,-0.63,-0.63,-0.63,-0.63,-0.63,-0.63,-0.6374,-0.6412,-0.6563,-0.6714,-0.6872,-0.7065,-0.7219,-0.733,-0.7407,-0.7446,-0.7514,-0.7439,-0.7346,-0.7207,-0.7143,-0.7021,-0.6865,-0.6735,-0.6615,-0.6513,-0.644,-0.6432,-0.6432,-0.6428,-0.642,-0.642,-0.642,-0.642,-0.642,-0.642,-0.642,-0.6453,-0.6712,-0.7167,-0.7712,-0.8361,-0.8973,-0.9262,-0.942,-0.9315,-0.9296,-0.9324,-0.9058,-0.8844,-0.8765,-0.8791,-0.8844,-0.1658,-0.1637,-0.163,-0.1611,-0.1588,-0.1615,-0.1611,-0.1585,-0.1608,-0.1566,-0.1562,-0.1595,-0.1582,-0.1588,-0.1614,-0.1627,-0.1635,-0.1664,-0.1697,-0.1699,-0.171,-0.1707,-0.1699,-0.1692,-0.1683,-0.1728,-0.1727,-0.168,-0.168,-0.172,-0.1709,-0.1645,-0.1626,-0.1601,-0.1588,-0.1588,-0.1588,-0.1643,-0.1891,-0.2152,-0.2319,-0.2973,-0.3575,-0.3825,-0.4024,-0.4474,-0.4698,-0.489,-0.499,-0.497,-0.4814,-0.5039,-0.5345,-0.5316,-0.5676,-0.6025,-0.5634,-0.567,-0.5867,-0.5983,-0.5983,-0.6141,-0.618,-0.6257,-0.63,-0.63,-0.6257,-0.6257,-0.6296,-0.6335,-0.6409,-0.6563,-0.6714,-0.6868,-0.6984,-0.7103,-0.7219,-0.7407,-0.748,-0.7407,-0.7313,-0.7203,-0.7147,-0.7049,-0.6859,-0.6753,-0.67,-0.6611,-0.6497,-0.6419,-0.6453,-0.6448,-0.6424,-0.642,-0.642,-0.642,-0.642,-0.642,-0.642,-0.642,-0.642,-0.6872,-0.7391,-0.7749,-0.8204,-0.8501,-0.863,-0.836,-0.8403,-0.866,-0.863,-0.8311,-0.856,-0.8659,-0.8738,-0.1633,-0.1618,-0.1566,-0.16,-0.158,-0.1604,-0.1607,-0.1597,-0.1609,-0.1566,-0.1565,-0.1598,-0.1578,-0.1562,-0.1583,-0.1585,-0.1589,-0.1623,-0.1633,-0.1644,-0.1674,-0.1673,-0.1667,-0.1662,-0.1654,-0.1647,-0.1643,-0.1646,-0.1647,-0.1633,-0.1618,-0.1619,-0.1594,-0.1578,-0.1568,-0.1572,-0.1579,-0.1592,-0.1588,-0.16,-0.1616,-0.217,-0.2521,-0.2772,-0.3024,-0.3423,-0.3615,-0.3722,-0.3955,-0.3996,-0.4051,-0.4226,-0.4487,-0.4455,-0.4696,-0.4888,-0.4768,-0.4688,-0.5079,-0.5276,-0.5318,-0.5356,-0.524,-0.5043,-0.4963,-0.5002,-0.567,-0.5747,-0.6219,-0.6335,-0.6251,-0.6363,-0.6556,-0.671,-0.6556,-0.644,-0.6945,-0.7373,-0.7484,-0.7494,-0.7354,-0.7203,-0.7167,-0.7062,-0.6935,-0.6878,-0.6786,-0.6761,-0.6643,-0.6456,-0.6485,-0.6465,-0.644,-0.6424,-0.642,-0.642,-0.642,-0.642,-0.642,-0.642,-0.6453,-0.6712,-0.7036,-0.7297,-0.7535,-0.7832,-0.7834,-0.7685,-0.7763,-0.804,-0.7934,-0.7729,-0.8103,-0.8427,-0.8507,-0.1613,-0.1566,-0.1566,-0.1599,-0.1578,-0.1604,-0.1562,-0.161,-0.1564,-0.1563,-0.161,-0.1562,-0.153,-0.1553,-0.1549,-0.1538,-0.1548,-0.1592,-0.159,-0.1597,-0.1635,-0.1641,-0.1643,-0.1641,-0.163,-0.1615,-0.1604,-0.1588,-0.1576,-0.1571,-0.157,-0.1562,-0.1553,-0.1544,-0.156,-0.1573,-0.158,-0.1593,-0.1599,-0.1609,-0.1564,-0.1566,-0.1717,-0.1667,-0.1566,-0.1564,-0.1913,-0.2285,-0.2808,-0.3072,-0.3295,-0.3589,-0.362,-0.364,-0.3845,-0.3949,-0.3832,-0.3832,-0.3986,-0.4144,-0.4066,-0.3949,-0.3793,-0.3791,-0.383,-0.4183,-0.481,-0.5201,-0.567,-0.5864,-0.578,-0.5777,-0.597,-0.616,-0.5893,-0.5896,-0.6553,-0.7176,-0.7288,-0.7365,-0.7281,-0.7123,-0.7126,-0.7054,-0.7025,-0.6968,-0.6911,-0.6918,-0.6849,-0.6639,-0.6538,-0.6497,-0.6448,-0.6436,-0.6424,-0.642,-0.642,-0.642,-0.642,-0.642,-0.6453,-0.6613,-0.6679,-0.6646,-0.6911,-0.7228,-0.7299,-0.7216,-0.733,-0.7399,-0.7319,-0.7225,-0.7563,-0.7883,-0.815,-0.1595,-0.1566,-0.1566,-0.1599,-0.1579,-0.1604,-0.1603,-0.1587,-0.1607,-0.1604,-0.1594,-0.1603,-0.1583,-0.1479,-0.1482,-0.1523,-0.1519,-0.1564,-0.1581,-0.1585,-0.161,-0.1616,-0.1616,-0.1611,-0.1603,-0.1583,-0.156,-0.1542,-0.1535,-0.1534,-0.1534,-0.1532,-0.156,-0.1551,-0.1536,-0.1553,-0.1577,-0.159,-0.1594,-0.1598,-0.1563,-0.1566,-0.1566,-0.1566,-0.1566,-0.1601,-0.1682,-0.1749,-0.1741,-0.1973,-0.2381,-0.2757,-0.2834,-0.2838,-0.304,-0.3183,-0.3025,-0.3093,-0.3209,-0.3365,-0.3365,-0.3402,-0.3402,-0.3443,-0.3482,-0.3521,-0.391,-0.391,-0.4263,-0.438,-0.4338,-0.4338,-0.4491,-0.4763,-0.4724,-0.5267,-0.5925,-0.6433,-0.6784,-0.6861,-0.6881,-0.6912,-0.6977,-0.6975,-0.7082,-0.7048,-0.6981,-0.6929,-0.6784,-0.6686,-0.6515,-0.6467,-0.6373,-0.6436,-0.642,-0.642,-0.642,-0.642,-0.642,-0.642,-0.642,-0.642,-0.642,-0.6453,-0.6449,-0.6654,-0.6683,-0.6755,-0.6724,-0.6748,-0.6707,-0.6731,-0.71,-0.7456,-0.7803]}]]